[[{"header":{"parameterUnit":"m.s-1","parameterCategory":1,"la1":31.0,"la2":29.5877,"lo1":-88.7671,"lo2":-86.6584,"dy":0.0162,"dx":0.0185,"nx":115,"ny":88,"refTime":"2023-07-10T12:00:00:Z","depth":0,"parameterNumber":2,"parameterNumberName":"U-component_of_WINDS"},"data":[0.0,0.0,0.0,0.0,0.0,0.0,0.0,0.0,0.0,0.0,0.0,0.0,0.0,0.0,0.0,0.0,0.0,0.0,0.0,0.0,0.0,0.0,0.0,0.0,0.0,0.0,0.0,0.0,0.0,0.0,0.0,0.0,0.0,0.0,0.0,0.0,0.0,0.0,0.0,0.0,0.0,0.0,0.0,0.0,0.0,0.0,0.0,0.0,0.0,0.0,0.0,0.0,0.0,0.0,0.0,0.0,0.0,0.0,0.0,0.0,0.0,0.0,0.0,0.0,0.0,0.0,0.0,0.0,0.0,0.0,0.0,0.0,0.0,0.0,0.0,0.0,0.0,0.0,0.0,0.0,0.0,0.0,0.0,0.0,0.0,0.0,0.0,0.0,0.0,0.0,0.0,0.0,0.0,0.0,0.0,0.0,0.0,0.0,0.0,0.0,0.0,0.0,0.0,0.0,0.0,0.0,0.0,0.0,0.0,0.0,0.0,0.0,0.0,0.0,0.0,0.0,0.0,0.0,0.0,0.0,0.0,0.0,0.0,0.0,0.0,0.0,0.0,0.0,0.0,0.0,0.0,0.0,0.0,0.0,0.0,0.0,0.0,0.0,0.0,0.0,0.0,0.0,0.0,0.0,0.0,0.0,0.0,0.0,0.0,0.0,0.0,0.0,0.0,0.0,0.0,0.0,0.0,0.0,0.0,0.0,0.0,0.0,0.0,0.0,0.0,0.0,0.0,0.0,0.0,0.0,0.0,0.0,0.0,0.0,0.0,0.0,0.0,0.0,0.0,0.0,0.0,0.0,0.0,0.0,0.0,0.0,0.0,0.0,0.0,0.0,0.0,0.0,0.0,0.0,0.0,0.0,0.0,0.0,0.0,0.0,0.0,0.0,0.0,0.0,0.0,0.0,0.0,0.0,0.0,0.0,0.0,0.0,0.0,0.0,0.0,0.0,0.0,0.0,0.0,0.0,0.0,0.0,0.0,0.0,0.0,0.0,0.0,0.0,0.0,0.0,0.0,0.0,0.0,0.0,0.0,0.0,0.0,0.0,0.0,0.0,0.0,0.0,0.0,0.0,0.0,0.0,0.0,0.0,0.0,0.0,0.0,0.0,0.0,0.0,0.0,0.0,0.0,0.0,0.0,0.0,0.0,0.0,0.0,0.0,0.0,0.0,0.0,0.0,0.0,0.0,0.0,0.0,0.0,0.0,0.0,0.0,0.0,0.0,0.0,0.0,0.0,0.0,0.0,0.0,0.0,0.0,0.0,0.0,0.0,0.0,0.0,0.0,0.0,0.0,0.0,0.0,0.0,0.0,0.0,0.0,0.0,0.0,0.0,0.0,0.0,0.0,0.0,0.0,0.0,0.0,0.0,0.0,0.0,0.0,0.0,0.0,0.0,0.0,0.0,0.0,0.0,0.0,0.0,0.0,0.0,0.0,0.0,0.0,0.0,0.0,0.0,0.0,0.0,0.0,0.0,0.0,0.0,0.0,0.0,0.0,0.0,0.0,0.0,0.0,0.0,0.0,0.0,0.0,0.0,0.0,0.0,0.0,0.0,0.0,0.0,0.0,0.0,0.0,0.0,0.0,0.0,0.0,0.0,0.0,0.0,0.0,0.0,0.0,0.0,0.0,0.0,0.0,0.0,0.0,0.0,0.0,0.0,0.0,0.0,0.0,0.0,0.0,0.0,0.0,0.0,0.0,0.0,0.0,0.0,0.0,0.0,0.0,0.0,0.0,0.0,0.0,0.0,0.0,0.0,0.0,0.0,0.0,0.0,0.0,0.0,0.0,0.0,0.0,0.0,0.0,0.0,0.0,0.0,0.0,0.0,0.0,0.0,0.0,0.0,0.0,0.0,0.0,0.0,0.0,0.0,0.0,0.0,0.0,0.0,0.0,0.0,0.0,0.0,0.0,0.0,0.0,0.0,0.0,0.0,0.0,0.0,0.0,0.0,0.0,0.0,0.0,0.0,0.0,0.0,0.0,0.0,0.0,0.0,0.0,0.0,0.0,0.0,0.0,0.0,0.0,0.0,0.0,0.0,0.0,0.0,0.0,0.0,0.0,0.0,0.0,0.0,0.0,0.0,0.0,0.0,0.0,0.0,0.0,0.0,0.0,0.0,0.0,0.0,0.0,0.0,0.0,0.0,0.0,0.0,0.0,0.0,0.0,0.0,0.0,0.0,0.0,0.0,0.0,0.0,0.0,0.0,0.0,0.0,0.0,0.0,0.0,0.0,0.0,0.0,0.0,0.0,0.0,0.0,0.0,0.0,0.0,0.0,0.0,0.0,0.0,0.0,0.0,0.0,0.0,0.0,0.0,0.0,0.0,0.0,0.0,0.0,0.0,0.0,0.0,0.0,0.0,0.0,0.0,0.0,0.0,0.0,0.0,0.0,0.0,0.0,0.0,0.0,0.0,0.0,0.0,0.0,0.0,0.0,0.0,0.0,0.0,0.0,0.0,0.0,0.0,0.0,0.0,0.0,0.0,0.0,0.0,0.0,0.0,0.0,0.0,0.0,0.0,0.0,0.0,0.0,0.0,0.0,0.0,0.0,0.0,0.0,0.0,0.0,0.0,0.0,0.0,0.0,0.0,0.0,0.0,0.0,0.0,0.0,0.0,0.0,0.0,0.0,0.0,0.0,0.0,0.0,0.0,0.0,0.0,0.0,0.0,0.0,0.0,0.0,0.0,0.0,0.0,0.0,0.0,0.0,0.0,0.0,0.0,0.0,0.0,0.0,0.0,0.0,0.0,0.0,0.0,0.0,0.0,0.0,0.0,0.0,0.0,0.0,0.0,0.0,0.0,0.0,0.0,0.0,0.0,0.0,0.0,0.0,0.0,0.0,0.0,0.0,0.0,0.0,0.0,0.0,0.0,0.0,0.0,0.0,0.0,0.0,0.0,0.0,0.0,0.0,0.0,0.0,0.0,0.0,0.0,0.0,0.0,0.0,0.0,0.0,0.0,0.0,0.0,0.0,0.0,0.0,0.0,0.0,0.0,0.0,0.0,0.0,0.0,0.0,0.0,0.0,0.0,0.0,0.0,0.0,0.0,0.0,0.0,0.0,0.0,0.0,0.0,0.0,0.0,0.0,0.0,0.0,0.0,0.0,0.0,0.0,0.0,0.0,0.0,0.0,0.0,0.0,0.0,0.0,0.0,0.0,0.0,0.0,0.0,0.0,0.0,0.0,0.0,0.0,0.0,0.0,0.0,0.0,0.0,0.0,0.0,0.0,0.0,0.0,0.0,0.0,0.0,0.0,0.0,0.0,0.0,0.0,0.0,0.0,0.0,0.0,0.0,0.0,0.0,0.0,0.0,0.0,0.0,0.0,0.0,0.0,0.0,0.0,0.0,0.0,0.0,0.0,0.0,0.0,0.0,0.0,0.0,0.0,0.0,0.0,0.0,0.0,0.0,0.0,0.0,0.0,0.0,0.0,0.0,0.0,0.0,0.0,0.0,0.0,0.0,0.0,0.0,0.0,0.0,0.0,0.0,0.0,0.0,0.0,0.0,0.0,0.0,0.0,0.0,0.0,0.0,0.0,0.0,0.0,0.0,0.0,0.0,0.0,0.0,0.0,0.0,0.0,0.0,0.0,0.0,0.0,0.0,0.0,0.0,0.0,0.0,0.0,0.0,0.0,0.0,0.0,0.0,0.0,0.0,0.0,0.0,0.0,0.0,0.0,0.0,0.0,0.0,0.0,0.0,0.0,0.0,0.0,0.0,0.0,0.0,0.0,0.0,0.0,0.0,0.0,0.0,0.0,0.0,0.0,0.0,0.0,0.0,0.0,0.0,0.0,0.0,0.0,0.0,0.0,0.0,0.0,0.0,0.0,0.0,0.0,0.0,0.0,0.0,0.0,0.0,0.0,0.0,0.0,0.0,0.0,0.0,0.0,0.0,0.0,0.0,0.0,0.0,0.0,0.0,0.0,0.0,0.0,0.0,0.0,0.0,0.0,0.0,0.0,0.0,0.0,0.0,0.0,0.0,0.0,0.0,0.0,0.0,0.0,0.0,0.0,0.0,0.0,0.0,0.0,0.0,0.0,0.0,0.0,0.0,0.0,0.0,0.0,0.0,0.0,0.0,0.0,0.0,0.0,0.0,0.0,0.0,0.0,0.0,0.0,0.0,0.0,0.0,0.0,0.0,0.0,0.0,0.0,0.0,0.0,0.0,0.0,0.0,0.0,0.0,0.0,0.0,0.0,0.0,0.0,0.0,0.0,0.0,0.0,0.0,0.0,0.0,0.0,0.0,0.0,0.0,-0.6196,0.0,0.0,0.0,0.0,0.0,0.0,0.0,0.0,0.0,0.0,0.0,0.0,0.0,0.0,0.0,0.0,0.0,0.0,0.0,0.0,0.0,0.0,0.0,0.0,0.0,0.0,0.0,0.0,0.0,0.0,0.0,0.0,0.0,0.0,0.0,0.0,0.0,0.0,0.0,0.0,0.0,0.0,0.0,0.0,0.0,0.0,0.0,0.0,0.0,0.0,0.0,0.0,0.0,0.0,0.0,0.0,0.0,0.0,0.0,0.0,0.0,0.0,0.0,0.0,0.0,0.0,0.0,0.0,0.0,0.0,0.0,0.0,0.0,0.0,0.0,0.0,0.0,0.0,0.0,0.0,0.0,0.0,0.0,0.0,0.0,0.0,0.0,0.0,0.0,0.0,0.0,0.0,0.0,0.0,0.0,0.0,0.0,0.0,0.0,0.0,0.0,0.0,0.0,0.0,0.0,0.0,0.0,0.0,0.0,0.0,-0.7272,-0.6889,-0.6796,-0.6651,-0.6351,0.0,0.0,0.0,0.0,0.0,0.0,0.0,0.0,0.0,0.0,0.0,0.0,0.0,0.0,0.0,0.0,0.0,0.0,0.0,0.0,0.0,0.0,0.0,0.0,0.0,0.0,0.0,0.0,0.0,0.0,0.0,0.0,0.0,0.0,0.0,0.0,0.0,0.0,0.0,0.0,0.0,0.0,0.0,0.0,0.0,0.0,0.0,0.0,0.0,0.0,0.0,0.0,0.0,0.0,0.0,0.0,0.0,0.0,0.0,0.0,0.0,0.0,0.0,0.0,0.0,0.0,0.0,0.0,0.0,0.0,0.0,0.0,0.0,0.0,0.0,0.0,0.0,0.0,0.0,0.0,0.0,0.0,0.0,0.0,0.0,0.0,0.0,0.0,0.0,0.0,0.0,0.0,0.0,0.0,0.0,0.0,0.0,0.0,0.0,0.0,0.0,0.0,0.0,0.0,0.0,0.0,0.0,0.0,0.0,0.0,0.0,0.0,-0.688,-0.6676,-0.6425,0.0,0.0,0.0,0.0,0.0,0.0,0.0,0.0,0.0,0.0,0.0,0.0,0.0,0.0,0.0,0.0,0.0,0.0,0.0,0.0,0.0,0.0,0.0,0.0,0.0,0.0,0.0,0.0,0.0,0.0,0.0,0.0,0.0,0.0,0.0,0.0,0.0,0.0,0.0,0.0,0.0,0.0,0.0,0.0,0.0,0.0,0.0,0.0,0.0,0.0,0.0,0.0,0.0,0.0,0.0,0.0,0.0,0.0,0.0,0.0,0.0,0.0,0.0,0.0,0.0,0.0,0.0,0.0,0.0,0.0,0.0,0.0,0.0,0.0,0.0,0.0,0.0,0.0,0.0,0.0,0.0,0.0,0.0,0.0,0.0,0.0,0.0,0.0,0.0,0.0,0.0,0.0,0.0,0.0,0.0,0.0,0.0,0.0,0.0,0.0,0.0,0.0,0.0,0.0,0.0,0.0,0.0,0.0,0.0,0.0,-0.7108,-0.6921,-0.6697,0.0,-0.6165,0.0,0.0,0.0,0.0,0.0,0.0,0.0,0.0,0.0,0.0,0.0,0.0,0.0,0.0,0.0,0.0,0.0,0.0,0.0,0.0,0.0,0.0,0.0,0.0,0.0,0.0,0.0,0.0,0.0,0.0,0.0,0.0,0.0,0.0,0.0,0.0,0.0,0.0,0.0,0.0,0.0,0.0,0.0,0.0,0.0,0.0,0.0,0.0,0.0,0.0,0.0,0.0,0.0,0.0,0.0,0.0,0.0,0.0,0.0,0.0,0.0,0.0,0.0,0.0,0.0,0.0,0.0,0.0,0.0,0.0,0.0,0.0,0.0,0.0,0.0,0.0,0.0,0.0,0.0,0.0,0.0,0.0,0.0,0.0,0.0,0.0,0.0,0.0,0.0,0.0,0.0,0.0,0.0,0.0,0.0,0.0,0.0,0.0,0.0,0.0,0.0,0.0,0.0,0.0,0.0,0.0,0.0,0.0,0.0,0.0,-0.5778,-0.565,-0.5421,-0.5206,0.0,0.0,0.0,0.0,0.0,0.0,0.0,0.0,0.0,0.0,0.0,0.0,0.0,0.0,0.0,0.0,0.0,0.0,0.0,0.0,0.0,0.0,0.0,0.0,0.0,0.0,0.0,0.0,0.0,0.0,0.0,0.0,0.0,0.0,0.0,0.0,0.0,0.0,0.0,0.0,0.0,0.0,0.0,0.0,0.0,0.0,0.0,0.0,0.0,0.0,0.0,0.0,0.0,0.0,0.0,0.0,0.0,0.0,0.0,0.0,0.0,0.0,0.0,0.0,0.0,0.0,0.0,0.0,0.0,0.0,0.0,0.0,0.0,0.0,0.0,0.0,0.0,0.0,0.0,0.0,0.0,0.0,0.0,0.0,0.0,0.0,0.0,0.0,0.0,0.0,0.0,0.0,0.0,0.0,0.0,0.0,0.0,0.0,0.0,0.0,0.0,0.0,0.0,0.0,0.0,0.0,0.0,0.0,0.0,0.0,-0.5011,-0.468,-0.468,-0.4587,-0.4411,-0.4162,0.0,0.0,0.0,0.0,0.0,0.0,0.0,0.0,0.0,0.0,0.0,0.0,0.0,0.0,0.0,0.0,0.0,0.0,0.0,0.0,0.0,0.0,0.0,0.0,0.0,0.0,0.0,0.0,0.0,0.0,0.0,0.0,0.0,0.0,0.0,0.0,0.0,0.0,0.0,0.0,0.0,0.0,0.0,0.0,0.0,0.0,0.0,0.0,0.0,0.0,0.0,0.0,0.0,0.0,0.0,0.0,0.0,0.0,0.0,0.0,0.0,0.0,0.0,0.0,0.0,0.0,0.0,0.0,0.0,0.0,0.0,0.0,0.0,0.0,0.0,0.0,0.0,0.0,0.0,0.0,0.0,0.0,0.0,0.0,0.0,0.0,0.0,0.0,0.0,0.0,0.0,0.0,0.0,0.0,0.0,0.0,0.0,0.0,0.0,0.0,0.0,0.0,0.0,0.0,0.0,0.0,0.0,0.0,-0.4541,-0.4541,-0.4411,-0.4287,-0.4613,-0.4546,0.0,0.0,0.0,0.0,0.0,0.0,0.0,0.0,0.0,0.0,0.0,0.0,0.0,0.0,0.0,0.0,0.0,0.0,0.0,0.0,0.0,0.0,0.0,0.0,0.0,0.0,0.0,0.0,0.0,0.0,0.0,0.0,0.0,0.0,0.0,0.0,0.0,0.0,0.0,0.0,0.0,0.0,0.0,0.0,0.0,0.0,0.0,0.0,0.0,0.0,0.0,0.0,0.0,0.0,0.0,0.0,0.0,0.0,0.0,0.0,0.0,0.0,0.0,0.0,0.0,0.0,0.0,0.0,0.0,0.0,0.0,0.0,0.0,0.0,0.0,0.0,0.0,0.0,0.0,0.0,0.0,0.0,0.0,0.0,0.0,0.0,0.0,0.0,0.0,0.0,0.0,0.0,0.0,0.0,0.0,0.0,0.0,0.0,0.0,0.0,0.0,0.0,0.0,0.0,0.0,0.0,0.0,0.0,0.0,-0.3613,-0.3284,-0.3021,-0.2954,-0.3088,-0.3074,0.0,0.0,0.0,0.0,0.0,0.0,0.0,0.0,0.0,0.0,0.0,0.0,0.0,0.0,0.0,0.0,0.0,0.0,0.0,0.0,0.0,0.0,0.0,0.0,0.0,0.0,0.0,0.0,0.0,0.0,0.0,0.0,0.0,0.0,0.0,0.0,0.0,0.0,0.0,0.0,0.0,0.0,0.0,0.0,0.0,0.0,0.0,0.0,0.0,0.0,0.0,0.0,0.0,0.0,0.0,0.0,0.0,0.0,0.0,0.0,0.0,0.0,0.0,0.0,0.0,0.0,0.0,0.0,0.0,0.0,0.0,0.0,0.0,0.0,0.0,0.0,0.0,0.0,0.0,0.0,0.0,0.0,0.0,0.0,0.0,0.0,0.0,0.0,0.0,0.0,0.0,0.0,0.0,0.0,0.0,0.0,0.0,0.0,0.0,0.0,0.0,0.0,0.0,0.0,0.0,0.0,0.0,0.0,0.0,-0.2885,0.0,-0.2221,-0.2221,-0.2221,-0.2221,0.0,0.0,0.0,0.0,0.0,0.0,0.0,0.0,0.0,0.0,0.0,0.0,0.0,0.0,0.0,0.0,0.0,0.0,0.0,0.0,0.0,0.0,0.0,0.0,0.0,0.0,0.0,0.0,0.0,0.0,0.0,0.0,0.0,0.0,0.0,0.0,0.0,0.0,0.0,0.0,0.0,0.0,0.0,0.0,0.0,0.0,0.0,0.0,0.0,0.0,0.0,0.0,0.0,0.0,0.0,0.0,0.0,0.0,0.0,0.0,0.0,0.0,0.0,0.0,0.0,0.0,0.0,0.0,0.0,0.0,0.0,0.0,0.0,0.0,0.0,0.0,0.0,0.0,0.0,0.0,0.0,0.0,0.0,0.0,0.0,0.0,0.0,0.0,0.0,0.0,0.0,0.0,0.0,0.0,0.0,0.0,0.0,0.0,0.0,0.0,0.0,0.0,0.0,0.0,0.0,0.0,0.0,0.0,-0.2221,-0.2221,-0.2221,-0.2221,-0.2221,-0.2221,-0.2221,0.0,0.0,0.0,0.0,0.0,0.0,0.0,0.0,0.0,0.0,0.0,0.0,0.0,0.0,0.0,0.0,0.0,0.0,0.0,0.0,0.0,0.0,0.0,0.0,0.0,0.0,0.0,0.0,0.0,0.0,0.0,0.0,0.0,0.0,0.0,0.0,0.0,0.0,0.0,0.0,0.0,0.0,0.0,0.0,0.0,0.0,0.0,0.0,0.0,0.0,0.0,0.0,0.0,0.0,0.0,0.0,0.0,0.0,0.0,0.0,0.0,0.0,0.0,0.0,0.0,0.0,0.0,0.0,0.0,0.0,0.0,0.0,0.0,0.0,0.0,0.0,0.0,0.0,0.0,0.0,0.0,0.0,0.0,0.0,0.0,0.0,0.0,0.0,0.0,0.0,0.0,0.0,0.0,0.0,0.0,0.0,0.0,0.0,0.0,0.0,0.0,0.0,0.0,0.0,0.0,0.0,0.0,0.0,0.0,-0.2221,-0.2221,-0.2221,-0.2221,-0.2221,-0.2221,0.0,0.0,0.0,0.0,0.0,0.0,0.0,0.0,0.0,0.0,0.0,0.0,0.0,0.0,0.0,0.0,0.0,0.0,0.0,0.0,0.0,0.0,0.0,0.0,0.0,0.0,0.0,0.0,0.0,0.0,0.0,0.0,0.0,0.0,0.0,0.0,0.0,0.0,0.0,0.0,0.0,0.0,0.0,0.0,0.0,0.0,0.0,0.0,0.0,0.0,0.0,0.0,0.0,0.0,0.0,0.0,0.0,0.0,0.0,0.0,0.0,0.0,0.0,0.0,0.0,0.0,0.0,0.0,0.0,0.0,0.0,0.0,0.0,0.0,0.0,0.0,0.0,0.0,0.0,0.0,0.0,0.0,0.0,0.0,0.0,0.0,0.0,0.0,0.0,0.0,0.0,0.0,0.0,0.0,0.0,0.0,0.0,0.0,0.0,0.0,0.0,0.0,0.0,0.0,0.0,0.0,0.0,0.0,0.0,-0.2221,-0.2221,-0.2221,-0.2221,-0.2221,-0.2221,-0.2221,0.0,0.0,0.0,0.0,0.0,0.0,0.0,0.0,0.0,0.0,0.0,0.0,0.0,0.0,0.0,0.0,0.0,0.0,0.0,0.0,0.0,0.0,0.0,0.0,0.0,0.0,0.0,0.0,0.0,0.0,0.0,0.0,0.0,0.0,0.0,0.0,0.0,0.0,0.0,0.0,0.0,0.0,0.0,0.0,0.0,0.0,0.0,0.0,0.0,0.0,0.0,0.0,0.0,0.0,0.0,0.0,0.0,0.0,0.0,0.0,0.0,0.0,0.0,0.0,0.0,0.0,0.0,0.0,0.0,0.0,0.0,0.0,0.0,0.0,0.0,0.0,0.0,0.0,0.0,0.0,0.0,0.0,0.0,0.0,0.0,0.0,0.0,0.0,0.0,0.0,0.0,0.0,0.0,0.0,0.0,0.0,0.0,0.0,0.0,0.0,0.0,0.0,0.0,0.0,0.0,0.0,0.0,0.0,-0.2221,-0.2221,-0.2221,-0.2221,-0.2221,-0.2221,0.0,0.0,0.0,0.0,0.0,0.0,0.0,0.0,0.0,0.0,0.0,0.0,0.0,0.0,0.0,0.0,0.0,0.0,0.0,0.0,0.0,0.0,0.0,0.0,0.0,0.0,0.0,0.0,0.0,0.0,0.0,0.0,0.0,0.0,0.0,0.0,0.0,0.0,0.0,0.0,0.0,0.0,0.0,0.0,0.0,0.0,0.0,0.0,0.0,0.0,0.0,0.0,0.0,0.0,0.0,0.0,0.0,0.0,0.0,0.0,0.0,0.0,0.0,0.0,0.0,0.0,0.0,0.0,0.0,0.0,0.0,0.0,0.0,0.0,0.0,0.0,0.0,0.0,0.0,0.0,0.0,0.0,0.0,0.0,0.0,0.0,0.0,0.0,0.0,0.0,0.0,0.0,0.0,0.0,0.0,0.0,0.0,0.0,0.0,0.0,0.0,0.0,0.0,0.0,0.0,0.0,0.0,0.0,0.0,-0.2221,-0.2221,-0.2221,-0.2221,-0.2221,-0.2221,0.0,0.0,0.0,0.0,0.0,0.0,0.0,0.0,0.0,0.0,0.0,0.0,0.0,0.0,0.0,0.0,0.0,0.0,0.0,0.0,0.0,0.0,0.0,0.0,0.0,0.0,0.0,0.0,0.0,0.0,0.0,0.0,0.0,0.0,0.0,0.0,0.0,0.0,0.0,0.0,0.0,0.0,0.0,0.0,0.0,0.0,0.0,0.0,0.0,0.0,0.0,0.0,0.0,0.0,0.0,0.0,0.0,0.0,0.0,0.0,0.0,0.0,0.0,0.0,0.0,0.0,0.0,0.0,0.0,0.0,0.0,0.0,0.0,0.0,0.0,0.0,0.0,0.0,0.0,0.0,0.0,0.0,0.0,0.0,0.0,0.0,0.0,0.0,0.0,0.0,0.0,0.0,0.0,0.0,0.0,0.0,0.0,0.0,0.0,0.0,0.0,0.0,0.0,0.0,0.0,0.0,0.0,0.0,-0.2221,-0.2221,-0.2221,-0.2221,-0.2221,-0.2221,-0.2221,0.0,0.0,0.0,0.0,0.0,0.0,0.0,0.0,0.0,0.0,0.0,0.0,0.0,0.0,0.0,0.0,0.0,0.0,0.0,0.0,0.0,0.0,0.0,0.0,0.0,0.0,0.0,0.0,0.0,0.0,0.0,0.0,0.0,0.0,0.0,0.0,0.0,0.0,0.0,0.0,0.0,0.0,0.0,0.0,0.0,0.0,0.0,0.0,0.0,0.0,0.0,0.0,0.0,0.0,0.0,0.0,0.0,0.0,0.0,0.0,0.0,0.0,0.0,0.0,0.0,0.0,0.0,0.0,0.0,0.0,0.0,0.0,0.0,0.0,0.0,0.0,0.0,0.0,0.0,0.0,0.0,0.0,0.0,0.0,0.0,0.0,0.0,0.0,0.0,0.0,0.0,0.0,0.0,0.0,0.0,0.0,0.0,0.0,0.0,0.0,0.0,0.0,0.0,0.0,0.0,0.0,0.0,0.0,-0.2221,-0.2221,-0.2221,-0.2221,-0.2221,-0.2221,-0.2221,0.0,0.0,0.0,0.0,0.0,0.0,0.0,0.0,0.0,0.0,0.0,0.0,0.0,0.0,0.0,0.0,0.0,0.0,0.0,0.0,0.0,0.0,0.0,0.0,0.0,0.0,0.0,0.0,0.0,0.0,0.0,0.0,0.0,0.0,0.0,0.0,0.0,0.0,0.0,0.0,0.0,0.0,0.0,0.0,0.0,0.0,0.0,0.0,0.0,0.0,0.0,0.0,0.0,0.0,0.0,0.0,0.0,0.0,0.0,0.0,0.0,0.0,0.0,0.0,0.0,0.0,0.0,0.0,0.0,0.0,0.0,0.0,0.0,0.0,0.0,0.0,0.0,0.0,0.0,0.0,0.0,0.0,0.0,0.0,0.0,0.0,0.0,0.0,0.0,0.0,0.0,0.0,0.0,0.0,0.0,0.0,0.0,0.0,0.0,0.0,0.0,0.0,0.0,0.0,0.0,0.0,0.0,0.0,-0.2221,-0.2221,-0.2221,-0.2221,-0.2221,-0.2221,-0.2221,0.0,0.0,0.0,0.0,0.0,0.0,0.0,0.0,0.0,0.0,0.0,0.0,0.0,0.0,0.0,0.0,0.0,0.0,0.0,0.0,0.0,0.0,0.0,0.0,0.0,0.0,0.0,0.0,0.0,0.0,0.0,0.0,0.0,0.0,0.0,0.0,0.0,0.0,0.0,0.0,0.0,0.0,0.0,0.0,0.0,0.0,0.0,0.0,0.224,0.0,0.0,0.0,0.0,0.0,0.0,0.0,0.0,0.0,0.0,0.0,0.0,0.0,0.0,0.0,0.0,0.0,0.0,0.0,0.0,0.0,0.0,0.0,0.0,0.0,0.0,0.0,0.0,0.0,0.0,0.0,0.0,0.0,0.0,0.0,0.0,0.0,0.0,0.0,0.0,0.0,0.0,0.0,0.0,0.0,0.0,0.0,0.0,0.0,0.0,0.0,0.0,0.0,0.0,0.0,0.0,0.0,0.0,0.0,-0.2221,-0.2221,-0.2221,-0.2221,-0.2221,-0.2221,-0.2221,0.0,0.0,0.0,0.0,0.0,0.0,0.0,0.0,0.0,0.0,0.0,0.0,0.0,0.0,0.0,0.0,0.0,0.0,0.0,0.0,0.0,0.0,0.0,0.0,0.0,0.0,0.0,0.0,0.0,0.0,0.0,0.0,0.0,0.0,0.0,0.0,0.0,0.0,0.0,0.0,0.0,0.0,0.0,0.0,0.0,0.0,0.0,0.0,0.0,0.0,0.0,0.0,0.0,0.0,0.0,0.0,0.0,0.0,0.0,0.0,0.0,0.0,0.0,0.0,0.0,0.0,0.0,0.0,0.0,0.0,0.0,0.0,0.0,0.0,0.0,0.0,0.0,0.0,0.0,0.0,0.0,0.0,0.0,0.0,0.0,0.0,0.0,0.0,0.0,0.0,0.0,0.0,0.0,0.0,0.0,0.0,0.0,0.0,0.0,0.0,0.0,0.0,0.0,0.0,0.0,0.0,0.0,-0.2183,-0.2249,-0.2183,-0.2249,-0.2183,-0.2181,-0.2173,-0.2168,-0.2168,0.0,0.0,0.0,0.0,0.0,0.0,0.0,0.0,0.0,0.0,0.0,0.0,0.0,0.0,0.0,0.0,0.0,0.0,0.0,0.0,0.0,0.0,0.0,0.0,0.0,0.0,0.0,0.0,0.0,0.0,0.0,0.0,0.0,0.0,0.0,0.0,0.0,0.0,-0.0056,-0.0,0.0,0.0,0.0,0.0,0.0,0.0,0.0,0.0,0.273,0.0,0.0,0.0,0.0,0.0,0.0,0.0,0.0,0.0,0.0,0.0,0.0,0.0,0.0,0.0,0.0,0.0,0.0,0.0,0.0,0.0,0.0,0.0,0.0,0.0,0.0,0.0,0.0,0.0,0.0,0.0,0.0,0.0,0.0,0.0,0.0,0.0,0.0,0.0,0.0,0.0,0.0,0.0,0.0,0.0,0.0,0.0,0.0,0.0,0.0,0.0,0.0,0.0,0.0,0.0,0.0,-0.2016,-0.2161,-0.2305,-0.2305,-0.2305,-0.2307,-0.2304,-0.2256,-0.2159,-0.2018,0.0,0.0,0.0,0.0,0.0,0.0,0.0,0.0,0.0,0.0,0.0,0.0,0.0,0.0,0.0,0.0,0.0,0.0,0.0,0.0,0.0,0.0,0.0,0.0,0.0,0.0,0.0,0.0,0.0,0.0,0.0,0.0,0.0,0.0,0.0,0.0,0.0,0.0,0.0,-0.0,0.0224,0.0,0.0,0.0,0.0,0.0,0.0,0.0,0.0,0.3153,0.0,0.0,0.0,0.0,0.0,0.0,0.0,0.0,0.0,0.0,0.0,0.0,0.0,0.0,0.0,0.0,0.0,0.0,0.0,0.0,0.0,0.0,0.0,0.0,0.0,0.0,0.0,0.0,0.0,0.0,0.0,0.0,0.0,0.0,0.0,0.0,0.0,0.0,0.0,0.0,0.0,0.0,0.0,0.0,0.0,0.0,0.0,0.0,0.0,0.0,0.0,0.0,0.0,0.0,0.0,-0.2115,-0.2261,-0.2261,-0.2261,-0.2261,-0.2261,-0.2261,-0.2235,-0.2004,0.0,0.0,0.0,0.0,0.0,0.0,0.0,0.0,0.0,0.0,0.0,0.0,0.0,0.0,0.0,0.0,0.0,0.0,0.0,0.0,0.0,0.0,0.0,0.0,0.0,0.0,0.0,0.0,0.0,0.0,0.0,0.0,0.0,0.0,0.0,0.0,0.0,0.0,0.0,0.0,0.0459,0.0693,0.141,0.0,0.0,0.0,0.0,0.0,0.0,0.314,0.3263,0.0,0.0,0.0,0.0,0.0,0.0,0.0,0.0,0.0,0.0,0.0,0.0,0.0,0.0,0.0,0.0,0.0,0.0,0.0,0.0,0.0,0.0,0.0,0.0,0.0,0.0,0.0,0.0,0.0,0.0,0.0,0.0,0.0,0.0,0.0,0.0,0.0,0.0,0.0,0.0,0.0,0.0,0.0,0.0,0.0,0.0,0.0,0.0,0.0,0.0,0.0,0.0,0.0,0.0,0.0,-0.2075,-0.2297,-0.2371,-0.2297,-0.2371,-0.2371,-0.2369,-0.2285,-0.191,0.0,0.0,0.0,0.0,0.0,0.0,0.0,0.0,0.0,0.0,0.0,0.0,0.0,0.0,0.0,0.0,0.0,0.0,0.0,0.0,0.0,0.0,0.0,0.0,0.0,0.0,0.0,0.0,0.0,0.0,0.0,0.0,0.0,0.0,0.0,0.0,0.0,0.0,0.0,0.0,0.0,0.1257,0.1965,0.1601,0.0,0.0,0.0,0.0,0.3194,0.3261,0.0,0.0,0.0,0.0,0.0,0.0,0.0,0.0,0.0,0.0,0.0,0.0,0.0,0.0,0.0,0.0,0.0,0.0,0.0,0.0,0.0,0.0,0.0,0.0,0.0,0.0,0.0,0.0,0.0,0.0,0.0,0.0,0.0,0.0,0.0,0.0,0.0,0.0,0.0,0.0,0.0,0.0,0.0,0.0,0.0,0.0,0.0,0.0,0.0,0.0,0.0,0.0,0.0,0.0,0.0,0.0,-0.148,-0.2102,-0.2489,-0.2489,-0.2489,-0.2491,-0.2489,-0.2439,-0.1805,0.0,0.0,0.0,0.0,0.0,0.0,0.0,0.0,0.0,0.0,0.0,0.0,0.0,0.0,0.0,0.0,0.0,0.0,0.0,0.0,0.0,0.0,0.0,0.0,0.0,0.0,0.0,0.0,0.0,0.0,0.0,0.0,0.0,0.0,0.0,0.0,0.0,0.0,0.0,0.0,0.0,0.1411,0.2033,0.2092,0.2358,0.0,0.0,0.3299,0.3249,0.333,0.0,0.0,0.0,0.0,0.0,0.0,0.0,0.0,0.0,0.0,0.0,0.0,0.0,0.0,0.0,0.0,0.0,0.0,0.0,0.0,0.0,0.0,0.0,0.0,0.0,0.0,0.0,0.0,0.0,0.0,0.0,0.0,0.0,0.0,0.0,0.0,0.0,0.0,0.0,0.0,0.0,0.0,0.0,0.0,0.0,0.0,0.0,0.0,0.0,0.0,0.0,0.0,0.0,0.0,0.0,-0.1412,-0.1491,-0.2118,-0.251,-0.251,-0.251,-0.251,-0.251,-0.2485,-0.1853,0.0,0.0,0.0,0.0,0.0,0.0,0.0,0.0,0.0,0.0,0.0,0.0,0.0,0.0,0.0,0.0,0.0,0.0,0.0,0.0,0.0,0.0,0.0,0.0,0.0,0.0,0.0,0.0,0.0,0.0,0.0,0.0,0.0,0.0,0.0,0.0,0.0,0.0,0.0,0.0,0.0,0.0,0.265,0.2525,0.0,0.0,0.0,0.3449,0.3357,0.0,0.0,0.0,0.0,0.0,0.0,0.0,0.0,0.0,0.0,0.0,0.0,0.0,0.0,0.0,0.0,0.0,0.0,0.0,0.0,0.0,0.0,0.0,0.0,0.0,0.0,0.0,0.0,0.0,0.0,0.0,0.0,0.0,0.0,0.0,0.0,0.0,0.0,0.0,0.0,0.0,0.0,0.0,0.0,0.0,0.0,0.0,0.0,0.0,0.0,0.0,0.0,0.0,0.0,0.0,0.0,0.0,-0.1333,-0.2118,-0.251,-0.251,-0.251,-0.251,-0.251,-0.251,0.0,0.0,0.0,0.0,0.0,0.0,0.0,0.0,0.0,0.0,0.0,0.0,0.0,0.0,0.0,0.0,0.0,0.0,0.0,0.0,0.0,0.0,0.0,0.0,0.0,0.0,0.0,0.2222,0.0,0.0,0.0,0.0,0.0,0.0,0.0,0.0,0.0,0.0,0.0,0.0,0.0,0.0,0.2297,0.3082,0.2753,0.2619,0.0,0.0,0.3498,0.3431,0.3431,0.3496,0.0,0.0,0.0,0.0,0.0,0.0,0.0,0.0,0.0,0.0,0.0,0.0,0.0,0.0,0.0,0.0,0.0,0.0,0.0,0.0,0.0,0.0,0.0,0.0,0.0,0.0,0.0,0.0,0.0,0.0,0.0,0.0,0.0,0.0,0.0,0.0,0.0,0.0,0.0,0.0,0.0,0.0,0.0,0.0,0.0,0.0,0.0,0.0,0.0,0.0,0.0,0.0,0.0,0.0,-0.1255,-0.0707,-0.1883,-0.251,-0.251,-0.251,-0.251,-0.251,-0.251,-0.1724,0.0,0.0,0.0,0.0,0.0,0.0,0.0,0.0,0.0,0.0,0.0,0.0,0.0,0.0,0.0,0.0,0.0,0.0,0.0,0.0,0.0,0.0,0.0,0.0,0.0,0.0,0.0,0.0,0.0,0.0,0.0,0.0,0.0,0.0,0.0,0.0,0.0,0.0,0.0,0.0,0.0,0.2412,0.309,0.2753,0.2619,0.0,0.3362,0.3431,0.3228,0.3228,0.336,0.3692,0.0,0.0,0.0,0.0,0.0,0.0,0.0,0.0,0.0,0.0,0.0,0.0,0.0,0.0,0.0,0.0,0.0,0.0,0.0,0.0,0.0,0.0,0.0,0.0,0.0,0.0,0.0,0.0,0.0,0.0,0.0,0.0,0.0,0.0,0.0,0.0,0.0,0.0,0.0,0.0,0.0,0.0,0.0,0.0,0.0,0.0,0.0,0.0,0.0,0.0,0.0,0.0,0.0,-0.0864,-0.0629,-0.149,-0.2117,-0.2431,-0.2117,-0.2117,-0.251,-0.251,-0.2037,0.0,0.0,0.0,0.0,0.0,0.0,0.0,0.0,0.0,0.0,0.0,0.0,0.0,0.0,0.0,0.0,0.0,0.0,0.0,0.0,0.0,0.0,0.0,0.0,0.0,0.0,0.0,0.0,0.3071,0.306,0.3115,0.0,0.0,0.0,0.0,0.0,0.0,0.0,0.0,0.0,0.0,0.1813,0.2484,0.2484,0.0,0.0,0.3362,0.3431,0.3228,0.3226,0.3295,0.3563,0.3694,0.0,0.0,0.0,0.0,0.0,0.0,0.0,0.0,0.0,0.0,0.0,0.0,0.0,0.0,0.0,0.0,0.0,0.0,0.0,0.0,0.0,0.0,0.0,0.0,0.0,0.0,0.0,0.0,0.0,0.0,0.0,0.0,0.0,0.0,0.0,0.0,0.0,0.0,0.0,0.0,0.0,0.0,0.0,0.0,0.0,0.0,0.0,0.0,0.0,0.0,0.0,0.0,-0.0629,-0.0629,-0.1412,-0.1959,-0.2195,-0.2037,-0.1959,-0.2195,-0.2431,-0.2195,0.0,0.0,0.0,0.0,0.0,0.0,0.0,0.0,0.0,0.0,0.0,0.0,0.0,0.0,0.0,0.0,0.0,0.0,0.0,0.0,0.0,0.0,0.0,0.0,0.0,0.0,0.0,0.0,0.3171,0.3156,0.322,0.0,0.0,0.0,0.0,0.0,0.0,0.0,0.0,0.0,0.0,0.1344,0.208,0.2281,0.2559,0.3195,0.3404,0.3415,0.3303,0.3307,0.3376,0.3584,0.0,0.0,0.0,0.0,0.0,0.0,0.0,0.0,0.0,0.0,0.0,0.0,0.0,0.0,0.0,0.0,0.0,0.0,0.0,0.0,0.0,0.0,0.0,0.0,0.0,0.0,0.0,0.2179,0.0,0.0,0.2104,0.0,0.0,0.0,0.0,0.0,0.0,0.0,0.0,0.0,0.0,0.0,0.0,0.0,0.0,0.0,0.0,0.0,0.0,0.0,0.0,0.0,0.0,-0.0629,-0.0629,-0.1804,-0.2195,-0.1724,-0.2195,-0.2195,-0.1724,-0.2195,-0.2195,-0.1645,0.0,0.0,0.0,0.0,0.0,0.0,0.0,0.0,0.0,0.0,0.0,0.0,0.0,0.0,0.0,0.0,0.0,0.0,0.0,0.0,0.0,0.0,0.0,0.0,0.0,0.0,0.3092,0.3224,0.3224,0.0,0.0,0.0,0.0,0.0,0.0,0.0,0.0,0.0,0.121,0.1076,0.1344,0.2082,0.2216,0.2514,0.3279,0.336,0.3391,0.3477,0.3489,0.3566,0.0,0.0,0.0,0.0,0.0,0.0,0.0,0.0,0.0,0.0,0.0,0.0,0.0,0.0,0.0,0.0,0.0,0.0,0.0,0.0,0.0,0.0,0.0,0.0,0.0,0.0,0.0,0.1019,0.0874,0.0,0.0,0.0,0.0,0.0,0.0,0.0,0.0,0.0,0.0,0.0,-0.0698,-0.1086,0.0,0.0,0.0,0.0,0.0,0.0,0.0,0.0,0.0,0.0,0.0,0.0,-0.0629,-0.0628,-0.1412,-0.1959,-0.2195,-0.2037,-0.1959,-0.2195,-0.2431,-0.2195,-0.1645,0.0,0.0,0.0,0.0,0.0,0.0,0.0,0.0,0.0,0.0,0.0,0.0,0.0,0.0,0.0,0.0,0.0,0.0,0.0,0.0,0.0,0.0,0.0,0.0,0.0,0.1746,0.0,0.0,0.0,0.0,0.0,0.0,0.0,0.0,0.0,0.0,0.0,0.0806,0.1076,0.0683,0.0898,0.2071,0.2313,0.2562,0.0,0.0,0.0,0.0,0.0,0.0,0.0,0.0,0.0,0.0,0.0,0.0,0.0,0.0,0.4038,0.5424,0.5908,0.6186,0.6395,0.0,0.0,0.0,0.0,0.0,0.0,0.0,0.0,0.0,0.0,0.0,0.0,0.0,0.0,0.0224,-0.0075,-0.0075,0.0,0.0,0.0,0.0,0.0,0.0,0.0,0.0,-0.1021,-0.1256,-0.1256,-0.1725,-0.1647,-0.1256,-0.1256,-0.0942,0.0,0.0,0.0,0.0,0.0,0.0,0.0,0.0,-0.0707,-0.0942,-0.1568,-0.2037,-0.2195,-0.2037,-0.2037,-0.2195,-0.2353,-0.2352,-0.1959,-0.1724,-0.1567,0.0,0.0,0.0,0.0,0.0,0.0,0.0,0.0,0.0,0.0,0.0,0.0,0.0,0.0,0.0,0.0,0.0,0.0,0.0,0.0,0.0,0.0,0.0,0.1589,0.0,0.0,0.0,0.0,0.0,0.0,0.0,0.0,0.0,0.1776,0.0961,0.0484,0.0692,0.0843,0.1277,0.2198,0.0,0.0,0.0,0.0,0.0,0.0,0.0,0.3666,0.381,0.381,0.381,0.3885,0.3812,0.3957,0.4397,0.0,0.0,0.5015,0.5425,0.5636,0.5639,0.5711,0.5783,0.5854,0.5639,0.5574,0.0,0.0,0.0,0.0,0.1724,0.0,0.0,0.0,0.0548,0.0235,0.0,-0.0627,0.0,0.0,0.0,0.0,0.0236,-0.0314,0.0,0.0,-0.2117,-0.2431,-0.251,-0.251,-0.251,-0.251,-0.251,-0.2195,-0.1568,-0.0942,0.0,0.0,0.0,0.0,0.0,0.0,-0.0942,-0.1568,-0.2198,-0.2199,-0.1727,-0.2201,-0.2201,-0.1727,-0.2196,-0.251,-0.251,-0.1959,-0.1645,-0.1646,-0.102,0.0,0.0,0.0,0.0,0.0,0.0,0.0,0.0,0.0,0.0,0.0,0.0,0.0,0.0,0.0,0.0,0.0,0.0,0.0,0.0,0.1672,0.0,0.0,0.0,0.0,0.0,0.0,0.0,0.0,0.0,0.0217,0.0846,0.1074,0.0945,0.0218,0.0,0.0,0.0,0.0,0.3538,0.362,0.363,0.3661,0.3746,0.3761,0.3837,0.3837,0.0,0.0,0.3839,0.3839,0.3834,0.3839,0.3832,0.371,0.3616,0.4237,0.4737,0.4806,0.489,0.5093,0.5234,0.4832,0.4468,0.0816,0.0,0.0,0.0,0.0,0.1959,0.1097,-0.0392,-0.0235,-0.0628,-0.1333,-0.1333,0.0,0.0,0.0,0.0,0.0,0.0,-0.0941,-0.1568,-0.1803,-0.2117,-0.251,-0.251,-0.251,-0.251,-0.251,-0.2431,-0.2273,-0.204,-0.1412,-0.0393,0.0,0.0,0.0,0.0,-0.1412,-0.1647,-0.2233,-0.2495,-0.2334,-0.2537,-0.2537,-0.2335,-0.2454,-0.251,-0.251,-0.2352,-0.2273,-0.2273,-0.204,0.0,0.0,0.0,0.0,0.0,0.0,0.0,0.0,0.0,0.0,0.0,0.0,0.0,0.0,0.0,0.0,0.0,0.0,0.0,-0.0583,0.0073,0.051,0.0,0.0,0.0,0.0,0.0,0.0,0.0,0.0,0.0,0.0148,0.0293,0.0509,0.0,0.0,0.2692,0.3215,0.3493,0.3697,0.372,0.3722,0.0,0.3759,0.3841,0.3841,0.3841,0.3841,0.3841,0.3841,0.3841,0.3841,0.3841,0.3841,0.3744,0.378,0.3914,0.4065,0.4065,0.4141,0.4218,0.4373,0.4301,0.4301,-0.0699,0.0171,0.0915,0.098,0.0483,0.0726,-0.0,-0.1453,-0.113,-0.1372,-0.2017,-0.2016,-0.1694,-0.105,-0.0807,0.0,0.0,0.0,-0.1372,-0.2017,-0.2017,-0.2258,-0.2583,-0.2582,-0.2583,-0.2582,-0.2583,-0.2583,-0.2582,-0.2582,-0.2179,-0.1452,0.0,-0.104,-0.1049,-0.1452,-0.1774,-0.2018,-0.2455,-0.2638,-0.2638,-0.2673,-0.2674,-0.2639,-0.2602,-0.2571,-0.2548,-0.2546,-0.2534,-0.2511,-0.251,-0.251,0.0,0.0,0.0,0.0,0.0,0.0,0.0,0.0,0.0,0.0,0.0,-0.1429,-0.1353,0.0,0.0,0.0,-0.1278,-0.1278,-0.1202,-0.0526,0.0,0.0,0.0,0.0,0.0,0.0,0.0,0.0599,-0.0076,-0.0615,-0.0537,0.0076,0.075,0.12,0.2279,0.3222,0.3605,0.0,0.3841,0.3841,0.3841,0.3841,0.3841,0.3841,0.3841,0.3841,0.3841,0.3841,0.3841,0.3841,0.3841,0.3841,0.3841,0.3841,0.3841,0.3841,0.3841,0.3841,0.3841,0.3843,0.4079,0.4079,0.4155,-0.2074,-0.2031,-0.1307,-0.1186,-0.1601,-0.1009,-0.1513,-0.2524,-0.1934,-0.2103,-0.2694,-0.2694,-0.2356,-0.1766,-0.1177,0.0,-0.1766,-0.1766,-0.2102,-0.2694,-0.2694,-0.2694,-0.2694,-0.2692,-0.2694,-0.2692,-0.2694,-0.2694,-0.2691,-0.2692,-0.2695,-0.2698,-0.2065,-0.1814,-0.1764,-0.1766,-0.2103,-0.2692,-0.2696,-0.2703,-0.2707,-0.2702,-0.27,-0.2699,-0.2695,-0.2665,-0.2612,-0.2609,-0.258,-0.2522,-0.2518,-0.2515,-0.2511,0.0,0.0,0.0,0.0,0.0,0.0,0.0,0.0,0.0,0.0,0.0,0.0,0.0,0.0,0.0,-0.1336,0.0,-0.1336,-0.0549,0.0,0.0,0.0,0.1096,0.1097,-0.0313,-0.1018,-0.0157,0.0,0.0,-0.1336,0.0157,0.1254,0.1332,0.2741,0.3841,0.3841,0.3839,0.3841,0.3841,0.3841,0.3841,0.3841,0.3841,0.3841,0.3841,0.3841,0.3841,0.3841,0.3841,0.3841,0.3841,0.3841,0.3841,0.3841,0.3841,0.3841,0.3841,0.3841,0.3843,0.4079,0.4079,0.4155,-0.285,-0.2836,-0.2609,-0.1982,-0.1033,-0.0931,-0.1261,-0.1934,-0.1766,-0.2103,-0.2694,-0.2694,-0.2608,-0.244,-0.2271,-0.2355,-0.244,-0.244,-0.2524,-0.2694,-0.2694,-0.2694,-0.2694,-0.2694,-0.2694,-0.2694,-0.2694,-0.2694,-0.2694,-0.2694,-0.2717,-0.2759,-0.2575,-0.2554,-0.2441,-0.244,-0.2524,-0.2694,-0.2737,-0.2783,-0.2827,-0.2785,-0.2762,-0.276,-0.2717,-0.2685,-0.267,-0.267,-0.2642,-0.2583,-0.2579,-0.2559,-0.2512,-0.251,0.0,0.0,0.0,0.0,0.0,0.0,0.0,0.0,0.0,-0.173,-0.1651,0.0,-0.1493,0.0,-0.1415,-0.1336,-0.1336,-0.1099,0.0,0.0,-0.0784,-0.0705,-0.0706,-0.1019,-0.1176,-0.102,-0.1178,-0.1336,-0.1336,-0.0392,0.0548,0.1254,0.2743,0.3841,0.3841,0.3841,0.3841,0.3841,0.3841,0.3841,0.3841,0.3841,0.3841,0.3841,0.3841,0.3841,0.3841,0.3841,0.3841,0.3841,0.3841,0.3841,0.3841,0.3841,0.3841,0.3841,0.3841,0.3841,0.4079,0.4079,0.4155,-0.3131,-0.3127,-0.3101,-0.2652,-0.1834,-0.1796,-0.2046,-0.2315,-0.2315,-0.2493,-0.285,-0.285,-0.2852,-0.2852,-0.285,-0.285,-0.2852,-0.285,-0.2852,-0.2852,-0.285,-0.285,-0.2852,-0.2852,-0.2837,-0.2811,-0.2811,-0.2798,-0.2774,-0.2774,-0.279,-0.2824,-0.2824,-0.2807,-0.2775,-0.2774,-0.2773,-0.2774,-0.2807,-0.2839,-0.2872,-0.2841,-0.2824,-0.2823,-0.2792,-0.276,-0.2733,-0.2732,-0.2704,-0.2644,-0.2642,-0.2614,-0.2555,-0.255,-0.2538,0.0,0.0,0.0,0.0,0.0,0.0,0.0,0.0,0.0,0.0,0.0,-0.1493,-0.1493,-0.1336,-0.1336,-0.1336,-0.1336,-0.1336,-0.1336,-0.1335,-0.1334,-0.1336,-0.1335,-0.1334,-0.1335,-0.1336,-0.1336,-0.1258,-0.0554,0.0159,0.0637,0.2169,0.3369,0.37,0.3841,0.3841,0.3841,0.3841,0.3841,0.3841,0.3841,0.3841,0.3841,0.3841,0.3841,0.3841,0.3841,0.3841,0.3841,0.3841,0.3841,0.3841,0.3841,0.3841,0.3841,0.3841,0.3841,0.3921,0.3999,0.3999,-0.323,-0.3226,-0.3173,-0.3151,-0.3147,-0.3094,-0.3158,-0.3146,-0.3146,-0.3146,-0.3146,-0.3146,-0.3146,-0.3146,-0.3146,-0.3146,-0.3146,-0.3146,-0.3146,-0.3146,-0.3146,-0.3146,-0.3146,-0.3144,-0.3022,-0.297,-0.3063,-0.3036,-0.2898,-0.2897,-0.2897,-0.2897,-0.2895,-0.2897,-0.2897,-0.2897,-0.2888,-0.2875,-0.2875,-0.2875,-0.2875,-0.2875,-0.2875,-0.2875,-0.2875,-0.2849,-0.2797,-0.2794,-0.2767,-0.2709,-0.2704,-0.2676,-0.2617,-0.2613,-0.2586,0.0,-0.2443,0.0,0.0,0.0,0.0,0.0,0.0,0.0,0.0,-0.1493,-0.1336,-0.1336,-0.1336,-0.1336,-0.1336,-0.1336,-0.1336,-0.1336,-0.134,-0.1342,-0.1342,-0.1346,-0.1348,-0.1348,-0.1348,-0.1348,-0.1272,-0.0645,-0.0163,0.0082,0.124,0.2392,0.3277,0.3489,0.3572,0.364,0.364,0.3578,0.3572,0.3716,0.3785,0.3862,0.3849,0.3843,0.3841,0.3841,0.3841,0.3841,0.3841,0.3847,0.3855,0.3783,0.3789,0.3808,0.3814,0.3801,0.3849,0.3841,0.3841,-0.323,-0.3229,-0.3218,-0.3213,-0.3211,-0.32,-0.314,-0.3146,-0.3146,-0.3146,-0.3146,-0.3146,-0.3146,-0.3146,-0.3146,-0.3146,-0.3146,-0.3146,-0.3146,-0.3146,-0.3146,-0.3146,-0.3146,-0.3146,-0.3044,-0.3126,-0.3127,-0.312,-0.3016,-0.3016,-0.3111,-0.3109,-0.3111,-0.3109,-0.3016,0.0,0.0,0.0,-0.2875,-0.2875,-0.2875,-0.2875,-0.2875,-0.2875,-0.2875,0.0,-0.2857,-0.2856,-0.2828,-0.277,-0.2766,0.0,0.0,0.0,0.0,0.0,0.0,0.0,0.0,0.0,0.0,0.0,-0.1963,-0.1886,-0.204,-0.1885,-0.1651,-0.1336,-0.1336,-0.1336,-0.1336,-0.1336,-0.1336,-0.1337,-0.1279,-0.1294,-0.1294,-0.1315,-0.1331,-0.1331,-0.133,-0.1331,-0.1328,-0.1168,-0.0836,-0.0167,0.0251,0.0753,0.1579,0.2401,0.2815,0.2815,0.2808,0.2814,0.2817,0.3345,0.3792,0.3867,0.3808,0.3773,0.3773,0.3849,0.3845,0.3845,0.3841,0.3791,0.3852,0.3875,0.3889,0.3967,0.3979,0.3938,0.3797,0.3843,0.3841,-0.323,-0.323,-0.323,-0.323,0.0,-0.3263,-0.3241,-0.3181,-0.3151,-0.3139,-0.3139,-0.3138,-0.3139,-0.3138,-0.3139,-0.3139,-0.3139,-0.3138,-0.3139,-0.3139,-0.3139,-0.3139,-0.3138,-0.3138,-0.3123,-0.3094,-0.3094,-0.3079,-0.3146,-0.3146,-0.3146,-0.3146,-0.3146,-0.3146,-0.3146,-0.3146,-0.3006,-0.2917,-0.2916,-0.2902,-0.2876,-0.2875,-0.2875,-0.2875,-0.2875,0.0,0.0,0.0,0.0,0.0,0.0,0.0,0.0,-0.2737,0.0,-0.2651,-0.2563,-0.2467,-0.244,-0.2357,-0.2357,-0.2437,-0.2252,-0.2068,-0.2043,-0.1964,-0.1808,-0.1494,-0.143,-0.1439,-0.128,-0.1293,-0.1302,-0.1303,-0.1316,-0.1325,-0.1326,-0.1338,-0.1348,-0.1348,-0.1348,-0.1348,-0.1348,-0.1361,-0.1196,-0.0769,-0.0345,0.0087,0.0606,0.1361,0.1931,0.193,0.1932,0.1931,0.2014,0.2665,0.3055,0.2801,0.3272,0.3656,0.3245,0.3572,0.3885,0.3844,0.3832,0.3838,0.383,0.3867,0.3916,0.3961,0.4006,0.401,0.3914,0.3897,0.3899,-0.3263,-0.3263,-0.3263,-0.3263,-0.3266,-0.3316,-0.3337,-0.3334,-0.3283,0.0,0.0,-0.3262,-0.3256,-0.3247,-0.3247,-0.324,-0.323,-0.323,-0.323,-0.323,-0.323,-0.323,-0.323,-0.323,-0.3203,-0.3157,-0.3157,-0.3129,-0.3083,-0.3082,-0.308,-0.3082,-0.308,-0.3082,-0.3082,-0.3082,-0.3052,-0.2992,-0.298,-0.2952,-0.2907,-0.2905,-0.2901,-0.289,-0.289,-0.2884,-0.2875,-0.2875,-0.2875,-0.2875,-0.2875,-0.2852,-0.2804,-0.2798,-0.2773,-0.2714,-0.2709,-0.2704,-0.2694,-0.2683,-0.2676,-0.2676,-0.2474,-0.2271,-0.1913,-0.1903,-0.1744,-0.1591,-0.1539,-0.1475,-0.1311,-0.1332,-0.1348,-0.1348,-0.1352,-0.1355,-0.1356,-0.1361,-0.1366,-0.1363,-0.1366,-0.1279,-0.1367,-0.1384,-0.1397,-0.1313,-0.0796,-0.0269,-0.0179,0.0435,0.0939,0.0683,0.077,0.1023,0.1105,0.1777,0.2028,0.1521,0.2525,0.3193,0.2687,0.3107,0.3669,0.3605,0.3759,0.3895,0.3838,0.3883,0.3928,0.3946,0.4006,0.4065,0.4079,0.4083,0.4069,-0.3386,-0.3387,-0.3387,-0.3387,-0.3387,-0.3395,-0.3401,-0.3398,-0.339,-0.3386,-0.3387,-0.3387,-0.3357,-0.3308,-0.3309,-0.3281,-0.3232,-0.323,-0.323,-0.323,-0.323,-0.323,-0.323,-0.323,-0.3226,-0.3218,-0.3218,-0.3214,-0.3206,-0.3203,-0.3204,-0.3203,-0.3204,-0.3203,-0.3204,-0.3204,-0.3176,-0.3116,-0.3063,-0.3127,-0.3025,-0.3119,-0.3092,-0.2948,-0.2947,-0.2924,-0.2877,-0.2876,-0.2875,-0.2875,-0.2875,-0.2869,-0.2862,-0.2861,-0.2834,-0.2777,-0.277,-0.2748,-0.2696,-0.2644,-0.2614,-0.2616,-0.2654,-0.2424,-0.1998,-0.1801,-0.1553,-0.1332,-0.1338,-0.1341,-0.1341,-0.1347,-0.1352,-0.1352,-0.1371,-0.1384,-0.1384,-0.1405,-0.1419,-0.1418,-0.1423,-0.1421,-0.1418,-0.1423,-0.1426,-0.1428,-0.1163,-0.1166,-0.0986,-0.0446,-0.0267,-0.0711,-0.0355,0.0089,0.0265,0.0874,0.1299,0.1297,0.1448,0.1774,0.1435,0.2195,0.2778,0.2759,0.3343,0.3756,0.3822,0.4006,0.3871,0.3919,0.3959,0.4076,0.4136,0.4156,0.4208,-0.3413,-0.3413,-0.3413,-0.3413,-0.3414,-0.3444,-0.3477,-0.3507,-0.3507,-0.3471,-0.3414,-0.3413,-0.3397,-0.3372,-0.3371,-0.3356,-0.3327,-0.3294,-0.3281,-0.3277,-0.3247,-0.323,-0.323,-0.323,-0.323,-0.323,-0.323,-0.323,-0.323,-0.323,-0.323,-0.323,-0.323,-0.323,-0.323,-0.323,-0.3217,-0.3188,-0.3128,-0.3083,-0.3146,-0.3146,-0.3129,-0.3008,-0.3008,-0.3089,-0.297,-0.2937,-0.292,-0.292,-0.289,-0.2875,-0.2875,-0.2875,-0.2861,-0.2834,-0.2832,-0.2822,-0.2793,-0.2766,-0.2749,-0.2749,-0.2657,-0.2498,-0.2265,-0.2113,-0.1914,-0.1682,-0.1615,-0.1457,-0.1371,-0.1385,-0.1395,-0.1307,-0.1408,-0.1414,-0.1416,-0.1425,-0.1435,-0.1436,-0.1436,-0.1436,-0.1436,-0.1436,-0.1436,-0.1436,-0.1436,-0.1436,-0.1436,-0.1076,-0.0897,-0.1256,-0.0987,-0.0807,-0.0717,-0.0,0.0265,-0.0088,0.0701,0.0958,0.0783,0.1304,0.1816,0.1885,0.2309,0.2469,0.2531,0.252,0.2546,0.2675,0.3126,0.3414,0.3559,0.3941,0.4269,-0.3452,-0.3451,-0.3451,-0.3451,-0.3456,-0.3497,-0.3544,-0.3586,-0.3586,-0.3536,-0.3459,-0.3452,-0.3446,-0.3432,-0.3431,-0.3424,-0.3406,-0.3364,-0.3342,-0.3337,-0.3279,-0.3251,-0.3249,-0.3238,-0.323,-0.323,-0.323,-0.323,-0.323,-0.323,-0.323,-0.323,-0.323,-0.323,-0.323,-0.323,-0.323,-0.3228,-0.3184,-0.3136,-0.3093,-0.309,-0.3085,-0.307,-0.307,-0.316,-0.3143,-0.3004,-0.2978,-0.2976,-0.2924,-0.2892,-0.2892,-0.288,-0.2875,-0.2875,-0.2875,-0.2868,-0.2856,-0.2867,-0.2868,-0.2853,-0.2734,-0.2559,-0.2591,-0.244,-0.222,-0.2053,-0.1821,-0.1663,-0.149,-0.1419,-0.1438,-0.1444,-0.1446,-0.1449,-0.1455,-0.1455,-0.1456,-0.1456,-0.1456,-0.1457,-0.1455,-0.145,-0.1444,-0.1437,-0.1436,-0.1436,-0.1436,-0.1436,-0.1436,-0.1436,-0.1436,-0.1346,-0.1346,-0.0807,-0.0627,-0.1346,-0.0268,0.0178,-0.0,0.0447,0.098,0.1053,0.1225,0.1474,0.1277,0.1356,0.1451,0.1558,0.2083,0.2534,0.2585,0.3042,0.3849,-0.357,-0.3571,-0.3565,-0.3571,-0.3568,-0.3575,-0.3582,-0.3587,-0.3587,-0.3583,-0.3565,-0.3571,-0.3537,-0.3493,-0.3489,-0.3463,-0.342,-0.3407,-0.3405,-0.3398,-0.3341,-0.3313,-0.3307,-0.3258,-0.323,-0.3232,-0.3232,-0.323,-0.323,-0.323,-0.323,-0.323,-0.323,-0.323,-0.323,-0.323,-0.323,-0.323,-0.3225,-0.3219,-0.3214,-0.3214,-0.3188,-0.3132,-0.3131,-0.3105,-0.3154,-0.3044,-0.3136,-0.3035,-0.2984,-0.2951,-0.2947,-0.2903,-0.2875,-0.2876,-0.2875,-0.2852,-0.2804,-0.2843,-0.2852,-0.2803,-0.2839,-0.2865,-0.2873,-0.2596,-0.2409,-0.223,-0.1965,-0.1789,-0.1789,-0.1527,-0.1451,-0.1474,-0.1476,-0.1487,-0.1508,-0.1517,-0.1518,-0.1518,-0.151,-0.1517,-0.1508,-0.1491,-0.1468,-0.1448,-0.1443,-0.1441,-0.144,-0.1436,-0.1436,-0.1436,-0.1436,-0.1436,-0.1346,-0.1346,-0.1256,-0.1346,-0.1256,-0.1076,-0.0896,-0.0448,0.009,0.0178,0.0713,0.106,0.1134,0.1299,0.1125,0.0957,0.1222,0.1487,0.1512,0.1789,0.2415,-0.3587,-0.3587,-0.3587,-0.3587,-0.3587,-0.3587,-0.3587,-0.3587,-0.3587,-0.3587,-0.3587,-0.3587,-0.3574,-0.355,-0.355,-0.3537,-0.3514,-0.3478,-0.3463,-0.3456,-0.3402,-0.3375,-0.3368,-0.3313,-0.3285,-0.3279,-0.3249,-0.323,-0.323,-0.323,-0.323,-0.323,-0.323,-0.323,-0.323,-0.323,-0.323,-0.323,-0.323,-0.323,-0.323,-0.323,-0.3218,-0.3198,-0.3192,-0.3183,-0.3155,-0.3123,-0.3102,-0.31,-0.3045,-0.3011,-0.3105,-0.3047,-0.2924,-0.2921,-0.2892,-0.2862,-0.2841,-0.2861,-0.2862,-0.2838,-0.286,-0.2875,-0.2876,-0.2813,-0.265,-0.2469,-0.2194,-0.2011,-0.2013,-0.1848,-0.1682,-0.1694,-0.1602,-0.1513,-0.1524,-0.1527,-0.1526,-0.1526,-0.1526,-0.1527,-0.1525,-0.1515,-0.1503,-0.1488,-0.1475,-0.1462,-0.1461,-0.1447,-0.1436,-0.1436,-0.1436,-0.1436,-0.1436,-0.1436,-0.1436,-0.1436,-0.1436,-0.1436,-0.1346,-0.1166,-0.0807,-0.0807,-0.0358,-0.0179,-0.0355,-0.0263,-0.0261,-0.0175,0.0354,0.071,0.1251,0.1431,0.1878,-0.3587,-0.3587,-0.3587,-0.3587,-0.3587,-0.3587,-0.3587,-0.3587,-0.3587,-0.381,-0.4035,-0.3699,-0.3811,-0.4033,-0.3811,-0.3587,-0.3582,-0.3541,-0.3522,-0.3515,-0.3462,-0.3435,-0.3431,-0.3375,-0.3337,-0.3316,-0.3278,-0.3247,-0.3233,-0.323,-0.323,-0.323,-0.323,-0.323,-0.323,-0.323,-0.323,-0.323,-0.323,-0.323,-0.323,-0.323,-0.323,-0.323,-0.323,-0.323,-0.3229,-0.3188,-0.3165,-0.3164,-0.3106,-0.3074,-0.3072,-0.3016,-0.2982,-0.2978,-0.2929,-0.2898,-0.2897,-0.2883,-0.2875,-0.2876,-0.2886,-0.2897,-0.2907,-0.295,-0.2982,-0.28,-0.2532,-0.2445,-0.2151,-0.1891,-0.1815,-0.1825,-0.1635,-0.1541,-0.1551,-0.1551,-0.1553,-0.1551,-0.1557,-0.1547,-0.154,-0.1538,-0.1535,-0.1522,-0.1506,-0.1493,-0.1489,-0.1468,-0.1449,-0.1447,-0.1442,-0.1436,-0.1436,-0.1436,-0.1436,-0.1436,-0.1436,-0.1436,-0.1436,-0.1346,-0.1346,-0.1166,-0.1346,-0.1345,-0.1072,-0.1237,-0.1317,-0.1247,-0.0807,-0.0179,0.0269,0.0537,0.0627,-0.3587,-0.3699,-0.3587,-0.3699,-0.3587,-0.3699,-0.3699,-0.381,-0.3699,-0.4255,-0.5148,-0.4257,-0.4257,-0.5258,-0.4257,-0.3699,-0.3586,-0.3582,-0.3689,-0.3684,-0.3521,-0.3492,-0.3489,-0.3435,-0.3379,-0.3442,-0.3523,-0.3384,-0.3233,-0.323,-0.323,-0.323,-0.3331,-0.323,-0.323,-0.323,-0.323,-0.323,-0.323,-0.323,-0.323,-0.323,-0.323,-0.323,-0.323,-0.323,-0.323,-0.3228,-0.3225,-0.3225,-0.3166,-0.3135,-0.3131,-0.3079,-0.3045,-0.3132,-0.2986,-0.2954,-0.295,-0.2912,-0.2884,-0.2886,-0.3021,-0.2954,-0.2959,-0.301,-0.3044,-0.3045,-0.2998,-0.2717,-0.2011,-0.1821,-0.1641,-0.1664,-0.1668,-0.1581,-0.1607,-0.1603,-0.1611,-0.1609,-0.1605,-0.1594,-0.1573,-0.157,-0.1558,-0.154,-0.1527,-0.1524,-0.152,-0.1498,-0.1481,-0.147,-0.1455,-0.1436,-0.1436,-0.1436,-0.1436,-0.1436,-0.1436,-0.1436,-0.1436,-0.1436,-0.1436,-0.1436,-0.1436,-0.1436,-0.1435,-0.1433,-0.143,-0.1346,-0.1346,-0.0896,-0.0627,-0.1076,-0.0987,-0.5808,-0.5808,-0.5808,-0.5808,-0.581,-0.5808,-0.5808,-0.5808,-0.581,-0.6033,-0.6366,-0.6031,-0.6031,-0.6475,-0.6031,-0.5033,-0.3699,-0.3587,-0.4033,-0.4589,-0.3896,-0.4325,-0.5638,-0.5013,-0.4638,-0.4598,-0.4503,-0.4002,-0.3337,-0.3833,-0.4232,-0.4234,-0.4232,-0.4234,-0.4133,-0.3531,-0.323,-0.323,-0.323,-0.323,-0.323,-0.323,-0.323,-0.323,-0.323,-0.323,-0.323,-0.323,-0.323,-0.323,-0.3209,-0.3198,-0.3192,-0.314,-0.3087,-0.3147,-0.3027,-0.3015,-0.3014,-0.3092,-0.308,-0.3081,-0.3096,-0.3111,-0.3026,-0.307,-0.3009,-0.2923,-0.2865,-0.2585,-0.2183,-0.1979,-0.1983,-0.1897,-0.1701,-0.1603,-0.1613,-0.1617,-0.1617,-0.1617,-0.1617,-0.1611,-0.1603,-0.16,-0.1596,-0.1585,-0.1567,-0.1557,-0.155,-0.1529,-0.1504,-0.1485,-0.1471,-0.1457,-0.1436,-0.1436,-0.1436,-0.1436,-0.1436,-0.1436,-0.1436,-0.1436,-0.1436,-0.1436,-0.1436,-0.1436,-0.1435,-0.1435,-0.1436,-0.1436,-0.1436,-0.1436,-0.1436,-0.1436,-0.1436,-0.7141,-0.7141,-0.7141,-0.7141,-0.7141,-0.7141,-0.7141,-0.7141,-0.7141,-0.7249,-0.7584,-0.7252,-0.7252,-0.7584,-0.7249,-0.6253,-0.4812,-0.47,-0.5146,-0.5813,-0.5144,-0.5588,-0.6684,-0.6291,-0.5914,-0.5854,-0.5675,-0.5135,-0.4472,-0.4945,-0.5331,-0.5331,-0.5033,-0.4832,-0.4634,-0.3732,-0.323,-0.323,-0.323,-0.323,-0.323,-0.323,-0.323,-0.323,-0.323,-0.323,-0.323,-0.323,-0.323,-0.323,-0.323,-0.323,-0.3226,-0.3191,-0.3151,-0.3112,-0.309,-0.3079,-0.3075,-0.3155,-0.3144,-0.3146,-0.3068,-0.3078,-0.3083,-0.3135,-0.3065,-0.288,-0.2901,-0.2726,-0.2424,-0.232,-0.2221,-0.192,-0.1718,-0.1617,-0.1617,-0.1617,-0.1617,-0.1617,-0.1617,-0.1617,-0.1617,-0.1616,-0.1615,-0.1617,-0.1598,-0.1588,-0.1582,-0.156,-0.1536,-0.1513,-0.1491,-0.1474,-0.1455,-0.1446,-0.1438,-0.1436,-0.1436,-0.1436,-0.1436,-0.1436,-0.1436,-0.1436,-0.1436,-0.1436,-0.1436,-0.1436,-0.1436,-0.1436,-0.1436,-0.1436,-0.1436,-0.1436,-0.1436,-0.7252,-0.7362,-0.7138,-0.7362,-0.747,-0.7473,-0.7252,-0.7362,-0.736,-0.8029,-0.8696,-0.7805,-0.8026,-0.8585,-0.7916,-0.7249,-0.7138,-0.7138,-0.7138,-0.7138,-0.6919,-0.703,-0.7467,-0.7238,-0.7062,-0.7064,-0.6838,-0.6616,-0.6382,-0.6393,-0.6439,-0.6226,-0.5532,-0.5233,-0.4933,-0.4133,-0.343,-0.3331,-0.3331,-0.3331,-0.323,-0.323,-0.323,-0.323,-0.323,-0.323,-0.323,-0.323,-0.323,-0.323,-0.323,-0.323,-0.323,-0.3224,-0.3225,-0.321,-0.317,-0.3143,-0.3135,-0.3093,-0.3167,-0.3075,-0.311,-0.314,-0.3149,-0.3189,-0.3221,-0.312,-0.3126,-0.3029,-0.2725,-0.2522,-0.2221,-0.1718,-0.1617,-0.1617,-0.1617,-0.1617,-0.1617,-0.1617,-0.1617,-0.1617,-0.1617,-0.1617,-0.1617,-0.1615,-0.1613,-0.161,-0.1608,-0.1587,-0.1574,-0.1558,-0.1528,-0.1498,-0.1477,-0.1457,-0.1445,-0.1436,-0.1436,-0.1436,-0.1436,-0.1436,-0.1436,-0.1436,-0.1436,-0.1436,-0.1436,-0.1436,-0.1436,-0.1436,-0.1436,-0.1436,-0.1436,-0.1436,-0.1436,-0.9688,-0.9798,-0.9688,-0.9691,-0.9794,-0.9688,-0.9581,-0.9581,-0.9578,-0.9805,-1.0025,-0.9801,-0.9801,-1.0025,-0.9691,-0.9578,-0.9578,-0.9578,-0.9137,-0.8361,-0.747,-0.8023,-0.9133,-0.8696,-0.8291,-0.8161,-0.7425,-0.6868,-0.6938,-0.7385,-0.7623,-0.7441,-0.7126,-0.7027,-0.6828,-0.5927,-0.5129,-0.4332,-0.4332,-0.3932,-0.3331,-0.323,-0.323,-0.323,-0.323,-0.323,-0.323,-0.323,-0.323,-0.323,-0.323,-0.323,-0.323,-0.323,-0.323,-0.3229,-0.3215,-0.3203,-0.32,-0.3185,-0.3169,-0.3176,-0.3192,-0.32,-0.3202,-0.3218,-0.323,-0.323,-0.323,-0.313,-0.2826,-0.2725,-0.2423,-0.192,-0.1718,-0.1617,-0.1617,-0.1617,-0.1617,-0.1617,-0.1617,-0.1617,-0.1617,-0.1617,-0.1617,-0.1617,-0.1617,-0.1617,-0.1615,-0.1608,-0.1592,-0.1573,-0.1546,-0.1521,-0.1493,-0.1471,-0.1456,-0.1441,-0.1436,-0.1436,-0.1436,-0.1436,-0.1436,-0.1436,-0.1436,-0.1436,-0.1436,-0.1436,-0.1436,-0.1436,-0.1436,-0.1436,-0.1436,-0.1436,-0.1436,-1.1126,-1.124,-1.1126,-1.1126,-1.1236,-1.1131,-1.1021,-1.1021,-1.0911,-1.0798,-1.0802,-1.0692,-1.0692,-1.0692,-1.0692,-1.0692,-1.0692,-1.0692,-1.0249,-0.9581,-0.8913,-0.9357,-1.0578,-0.9915,-0.9541,-0.9435,-0.872,-0.8278,-0.8105,-0.8611,-0.8813,-0.8721,-0.8251,-0.7922,-0.7922,-0.6924,-0.5827,-0.4933,-0.4734,-0.4232,-0.343,-0.323,-0.323,-0.323,-0.323,-0.323,-0.323,-0.323,-0.323,-0.323,-0.323,-0.323,-0.323,-0.323,-0.323,-0.323,-0.323,-0.323,-0.323,-0.3225,-0.323,-0.323,-0.323,-0.323,-0.323,-0.323,-0.323,-0.323,-0.323,-0.313,-0.3029,-0.2826,-0.2624,-0.2222,-0.192,-0.1718,-0.1617,-0.1617,-0.1617,-0.1617,-0.1617,-0.1617,-0.1617,-0.1617,-0.1617,-0.1617,-0.1617,-0.1617,-0.1617,-0.1616,-0.1603,-0.1588,-0.1572,-0.1543,-0.1506,-0.1485,-0.1468,-0.1451,-0.1436,-0.1436,-0.1436,-0.1436,-0.1436,-0.1436,-0.1436,-0.1436,-0.1436,-0.1436,-0.1436,-0.1436,-0.1436,-0.1436,-0.1436,-0.1436,-0.1436,-1.1568,-1.1568,-1.1568,-1.1564,-1.1568,-1.1564,-1.1568,-1.1459,-1.1236,-1.1126,-1.1017,-1.0802,-1.0692,-1.0692,-1.0692,-1.0692,-1.0692,-1.0692,-1.0692,-1.0578,-1.0359,-1.0578,-1.0582,-1.0582,-1.0457,-1.0538,-1.0313,-1.0226,-0.9929,-0.9896,-0.99,-0.9653,-0.8714,-0.8131,-0.8127,-0.7123,-0.6226,-0.5231,-0.5033,-0.4433,-0.3331,-0.323,-0.323,-0.323,-0.323,-0.323,-0.323,-0.323,-0.323,-0.323,-0.323,-0.323,-0.323,-0.323,-0.323,-0.323,-0.323,-0.323,-0.323,-0.323,-0.323,-0.323,-0.323,-0.323,-0.323,-0.323,-0.323,-0.323,-0.323,-0.323,-0.313,-0.3029,-0.2725,-0.2422,-0.2121,-0.1819,-0.1617,-0.1617,-0.1617,-0.1617,-0.1617,-0.1617,-0.1617,-0.1617,-0.1617,-0.1617,-0.1617,-0.1617,-0.1617,-0.1617,-0.1617,-0.1606,-0.1591,-0.156,-0.1523,-0.1505,-0.1485,-0.1448,-0.1436,-0.1436,-0.1436,-0.1436,-0.1436,-0.1436,-0.1436,-0.1436,-0.1436,-0.1436,-0.1436,-0.1436,-0.1436,-0.1436,-0.1436,-0.1436,-0.1436,-1.1678,-1.1896,-1.1678,-1.1678,-1.1891,-1.1673,-1.1568,-1.1568,-1.1568,-1.135,-1.1126,-1.1017,-1.0911,-1.0692,-1.0692,-1.0692,-1.0692,-1.0692,-1.0692,-1.0692,-1.0692,-1.0692,-1.0692,-1.0692,-1.0692,-1.068,-1.0635,-1.0562,-1.044,-1.0322,-1.014,-0.9892,-0.9544,-0.9245,-0.9145,-0.8832,-0.7723,-0.6226,-0.5924,-0.5031,-0.343,-0.323,-0.323,-0.323,-0.323,-0.323,-0.323,-0.323,-0.323,-0.323,-0.323,-0.323,-0.323,-0.323,-0.323,-0.323,-0.323,-0.323,-0.323,-0.323,-0.323,-0.323,-0.323,-0.323,-0.323,-0.323,-0.323,-0.323,-0.323,-0.323,-0.323,-0.313,-0.2928,-0.2624,-0.2121,-0.1718,-0.1617,-0.1617,-0.1617,-0.1617,-0.1617,-0.1617,-0.1617,-0.1617,-0.1617,-0.1617,-0.1617,-0.1617,-0.1617,-0.1617,-0.1617,-0.1617,-0.1603,-0.1572,-0.1545,-0.1526,-0.1497,-0.1451,-0.1436,-0.1436,-0.1436,-0.1436,-0.1436,-0.1436,-0.1436,-0.1436,-0.1436,-0.1436,-0.1436,-0.1436,-0.1436,-0.1436,-0.1436,-0.1436,-0.1436,-1.2001,-1.2114,-1.2005,-1.2005,-1.2114,-1.2005,-1.1896,-1.1891,-1.1787,-1.1678,-1.1459,-1.135,-1.124,-1.1131,-1.1131,-1.1131,-1.1021,-1.0911,-1.0907,-1.0802,-1.0802,-1.0692,-1.0692,-1.0692,-1.0692,-1.0692,-1.0692,-1.0635,-1.0546,-1.0477,-1.031,-1.0152,-1.0038,-0.9908,-0.9654,-0.9634,-0.8585,-0.6833,-0.6321,-0.5329,-0.3432,-0.323,-0.323,-0.323,-0.323,-0.323,-0.323,-0.323,-0.323,-0.323,-0.323,-0.323,-0.323,-0.323,-0.323,-0.323,-0.323,-0.323,-0.323,-0.323,-0.323,-0.323,-0.323,-0.323,-0.323,-0.323,-0.323,-0.323,-0.323,-0.323,-0.323,-0.313,-0.2928,-0.2725,-0.2222,-0.1819,-0.1718,-0.1718,-0.1617,-0.1617,-0.1617,-0.1617,-0.1617,-0.1617,-0.1617,-0.1617,-0.1617,-0.1617,-0.1617,-0.1617,-0.1617,-0.1617,-0.161,-0.1581,-0.1549,-0.1528,-0.1495,-0.1451,-0.1436,-0.1436,-0.1436,-0.1436,-0.1436,-0.1436,-0.1436,-0.1436,-0.1436,-0.1436,-0.1436,-0.1436,-0.1436,-0.1436,-0.1436,-0.1436,-0.1436,-1.2436,-1.2436,-1.2436,-1.2436,-1.2327,-1.2436,-1.2327,-1.2327,-1.211,-1.2005,-1.1891,-1.1678,-1.1568,-1.1573,-1.1459,-1.1568,-1.1568,-1.124,-1.1017,-1.0911,-1.0802,-1.0692,-1.0692,-1.0692,-1.0692,-1.0692,-1.0692,-1.0684,-1.0639,-1.053,-1.0456,-1.0363,-1.0241,-1.0095,-0.9937,-0.9892,-0.8672,-0.7071,-0.6531,-0.5527,-0.3831,-0.333,-0.323,-0.323,-0.323,-0.323,-0.323,-0.323,-0.323,-0.323,-0.323,-0.323,-0.323,-0.323,-0.323,-0.323,-0.323,-0.323,-0.323,-0.323,-0.323,-0.323,-0.323,-0.323,-0.323,-0.323,-0.323,-0.323,-0.323,-0.323,-0.323,-0.3029,-0.2927,-0.2826,-0.2424,-0.2122,-0.2022,-0.1819,-0.1617,-0.1617,-0.1617,-0.1617,-0.1617,-0.1617,-0.1617,-0.1617,-0.1617,-0.1617,-0.1617,-0.1617,-0.1617,-0.1617,-0.1606,-0.1591,-0.1558,-0.1526,-0.1489,-0.1451,-0.144,-0.1436,-0.1436,-0.1436,-0.1436,-0.1436,-0.1436,-0.1436,-0.1436,-0.1436,-0.1436,-0.1436,-0.1436,-0.1436,-0.1436,-0.1436,-0.1436,-1.2436,-1.2436,-1.2436,-1.2436,-1.2436,-1.2436,-1.2436,-1.2327,-1.2332,-1.2223,-1.2005,-1.1896,-1.1787,-1.1573,-1.1678,-1.1568,-1.1568,-1.135,-1.1021,-1.0802,-1.0692,-1.0692,-1.0692,-1.0692,-1.0692,-1.0692,-1.0692,-1.0692,-1.0672,-1.0639,-1.0566,-1.0444,-1.0404,-1.0282,-1.0115,-0.9985,-0.9267,-0.7981,-0.6983,-0.5837,-0.4537,-0.3632,-0.323,-0.323,-0.323,-0.323,-0.323,-0.323,-0.323,-0.323,-0.323,-0.323,-0.323,-0.323,-0.323,-0.323,-0.323,-0.323,-0.323,-0.323,-0.323,-0.323,-0.323,-0.323,-0.323,-0.323,-0.323,-0.323,-0.323,-0.323,-0.323,-0.313,-0.313,-0.3029,-0.2827,-0.2625,-0.2524,-0.202,-0.1617,-0.1617,-0.1617,-0.1617,-0.1617,-0.1617,-0.1617,-0.1617,-0.1617,-0.1617,-0.1617,-0.1617,-0.1617,-0.1617,-0.1612,-0.1594,-0.1547,-0.1514,-0.1478,-0.1451,-0.1441,-0.1436,-0.1436,-0.1436,-0.1436,-0.1436,-0.1436,-0.1436,-0.1436,-0.1436,-0.1436,-0.1436,-0.1436,-0.1436,-0.1436,-0.1436,-0.1436,-1.2436,-1.2436,-1.2436,-1.2436,-1.2436,-1.2436,-1.2436,-1.2436,-1.2436,-1.2332,-1.2223,-1.2219,-1.2114,-1.2005,-1.2005,-1.2005,-1.1896,-1.1568,-1.1131,-1.0802,-1.0692,-1.0692,-1.0692,-1.0692,-1.0692,-1.0692,-1.0692,-1.0692,-1.0692,-1.0688,-1.0643,-1.0566,-1.0554,-1.0461,-1.0314,-1.0176,-0.948,-0.8546,-0.7699,-0.6614,-0.5095,-0.4351,-0.3632,-0.3331,-0.323,-0.323,-0.323,-0.323,-0.323,-0.323,-0.323,-0.323,-0.323,-0.323,-0.323,-0.323,-0.323,-0.323,-0.323,-0.323,-0.323,-0.323,-0.323,-0.323,-0.323,-0.323,-0.323,-0.323,-0.323,-0.323,-0.323,-0.323,-0.323,-0.313,-0.2928,-0.2826,-0.2725,-0.2222,-0.1819,-0.1718,-0.1718,-0.1617,-0.1617,-0.1617,-0.1617,-0.1617,-0.1617,-0.1617,-0.1617,-0.1617,-0.1617,-0.1617,-0.1617,-0.1594,-0.154,-0.15,-0.1466,-0.1446,-0.1438,-0.1436,-0.1436,-0.1436,-0.1436,-0.1436,-0.1436,-0.1436,-0.1436,-0.1436,-0.1436,-0.1436,-0.1436,-0.1436,-0.1436,-0.1436,-0.1436,-1.2436,-1.2436,-1.2436,-1.2436,-1.2436,-1.2436,-1.2436,-1.2436,-1.2436,-1.2327,-1.2436,-1.2436,-1.2327,-1.2327,-1.2327,-1.2327,-1.2219,-1.1787,-1.124,-1.0911,-1.0692,-1.0692,-1.0692,-1.0692,-1.0692,-1.0692,-1.0692,-1.0692,-1.0692,-1.0692,-1.068,-1.0684,-1.0684,-1.0599,-1.0497,-1.0321,-0.9906,-0.9028,-0.8467,-0.7331,-0.567,-0.4993,-0.4257,-0.3432,-0.323,-0.323,-0.323,-0.323,-0.323,-0.323,-0.323,-0.323,-0.323,-0.323,-0.323,-0.323,-0.323,-0.323,-0.323,-0.323,-0.323,-0.323,-0.323,-0.323,-0.323,-0.323,-0.323,-0.323,-0.323,-0.323,-0.323,-0.323,-0.323,-0.313,-0.3029,-0.2927,-0.2826,-0.2425,-0.2223,-0.1921,-0.1819,-0.1718,-0.1617,-0.1617,-0.1617,-0.1617,-0.1617,-0.1617,-0.1617,-0.1617,-0.1617,-0.1617,-0.1617,-0.159,-0.1538,-0.1485,-0.1451,-0.1444,-0.1436,-0.1436,-0.1436,-0.1436,-0.1436,-0.1436,-0.1436,-0.1436,-0.1436,-0.1436,-0.1436,-0.1436,-0.1436,-0.1436,-0.1436,-0.1436,-0.1436,-1.2436,-1.2436,-1.2436,-1.2436,-1.2436,-1.2436,-1.2436,-1.2436,-1.2436,-1.2436,-1.2436,-1.2436,-1.2436,-1.2436,-1.2436,-1.2327,-1.2001,-1.1787,-1.1459,-1.1021,-1.0802,-1.0692,-1.0692,-1.0692,-1.0692,-1.0692,-1.0692,-1.0692,-1.0692,-1.0692,-1.0692,-1.0692,-1.0692,-1.0655,-1.0607,-1.0521,-1.0337,-0.9831,-0.9144,-0.7868,-0.6635,-0.5446,-0.4382,-0.3337,-0.323,-0.323,-0.323,-0.323,-0.323,-0.323,-0.323,-0.323,-0.323,-0.323,-0.323,-0.323,-0.323,-0.323,-0.323,-0.323,-0.323,-0.323,-0.323,-0.323,-0.323,-0.323,-0.323,-0.323,-0.323,-0.323,-0.323,-0.323,-0.323,-0.323,-0.313,-0.313,-0.3029,-0.2827,-0.2424,-0.2223,-0.2021,-0.1819,-0.1718,-0.1718,-0.1818,-0.1819,-0.1718,-0.1819,-0.1819,-0.1718,-0.1617,-0.1617,-0.1617,-0.158,-0.1536,-0.148,-0.1438,-0.144,-0.1436,-0.1436,-0.1436,-0.1436,-0.1436,-0.1436,-0.1436,-0.1436,-0.1436,-0.1436,-0.1436,-0.1436,-0.1436,-0.1436,-0.1436,-0.1436,-0.1436,-1.2436,-1.2436,-1.2436,-1.2436,-1.2436,-1.2436,-1.2436,-1.2436,-1.2436,-1.2436,-1.2436,-1.2436,-1.2436,-1.2436,-1.2436,-1.2219,-1.2001,-1.1896,-1.1568,-1.1126,-1.1021,-1.0802,-1.0692,-1.0692,-1.0692,-1.0692,-1.0692,-1.0692,-1.0692,-1.0692,-1.0692,-1.0692,-1.0692,-1.0692,-1.068,-1.0615,-1.0566,-1.0413,-0.9846,-0.8934,-0.7519,-0.5985,-0.4367,-0.3542,-0.323,-0.323,-0.323,-0.323,-0.323,-0.323,-0.323,-0.323,-0.323,-0.323,-0.323,-0.323,-0.323,-0.323,-0.323,-0.323,-0.323,-0.323,-0.323,-0.323,-0.323,-0.323,-0.323,-0.323,-0.323,-0.323,-0.323,-0.323,-0.323,-0.323,-0.323,-0.323,-0.313,-0.313,-0.2726,-0.2425,-0.2122,-0.2021,-0.192,-0.192,-0.202,-0.2021,-0.192,-0.192,-0.2021,-0.1819,-0.1616,-0.1604,-0.1598,-0.1562,-0.1522,-0.1476,-0.1437,-0.1436,-0.1436,-0.1436,-0.1436,-0.1436,-0.1436,-0.1436,-0.1436,-0.1436,-0.1436,-0.1436,-0.1436,-0.1436,-0.1436,-0.1436,-0.1436,-0.1436,-0.1436,-1.2436,-1.2436,-1.2436,-1.2436,-1.2436,-1.2436,-1.2436,-1.2436,-1.2436,-1.2436,-1.2436,-1.2436,-1.2436,-1.2436,-1.2332,-1.2223,-1.211,-1.2001,-1.1673,-1.1455,-1.1236,-1.1131,-1.0911,-1.0911,-1.0907,-1.0798,-1.0802,-1.0692,-1.0692,-1.0692,-1.0692,-1.0692,-1.0692,-1.0692,-1.0684,-1.0672,-1.0692,-1.0647,-1.0566,-0.9846,-0.8027,-0.6075,-0.4345,-0.3331,-0.323,-0.323,-0.323,-0.323,-0.323,-0.323,-0.323,-0.323,-0.323,-0.323,-0.323,-0.323,-0.323,-0.323,-0.323,-0.323,-0.323,-0.323,-0.323,-0.323,-0.323,-0.323,-0.323,-0.323,-0.323,-0.323,-0.323,-0.323,-0.323,-0.323,-0.323,-0.323,-0.323,-0.313,-0.3029,-0.2625,-0.2323,-0.2222,-0.2121,-0.2121,-0.2221,-0.2322,-0.2222,-0.2222,-0.2223,-0.192,-0.1713,-0.1592,-0.1572,-0.1539,-0.1504,-0.147,-0.1442,-0.1436,-0.1436,-0.1436,-0.1436,-0.1436,-0.1436,-0.1436,-0.1436,-0.1436,-0.1436,-0.1436,-0.1436,-0.1436,-0.1436,-0.1436,-0.1436,-0.1436,-0.1436,-1.2436,-1.2436,-1.2436,-1.2436,-1.2436,-1.2436,-1.2436,-1.2436,-1.2436,-1.2436,-1.2436,-1.2436,-1.2436,-1.2436,-1.2436,-1.2327,-1.2327,-1.2114,-1.2005,-1.1782,-1.1568,-1.1459,-1.1459,-1.1459,-1.124,-1.1017,-1.1021,-1.0911,-1.0802,-1.0692,-1.0692,-1.0692,-1.0692,-1.0692,-1.0692,-1.0692,-1.0692,-1.0684,-1.066,-0.9507,-0.7437,-0.5822,-0.4502,-0.3546,-0.323,-0.323,-0.323,-0.323,-0.323,-0.323,-0.323,-0.323,-0.323,-0.323,-0.323,-0.323,-0.323,-0.323,-0.323,-0.323,-0.323,-0.323,-0.323,-0.323,-0.323,-0.323,-0.323,-0.323,-0.323,-0.323,-0.323,-0.323,-0.323,-0.323,-0.323,-0.323,-0.323,-0.323,-0.3029,-0.3029,-0.2625,-0.2523,-0.2423,-0.2422,-0.2422,-0.2522,-0.2624,-0.2523,-0.2424,-0.2122,-0.1806,-0.1684,-0.1558,-0.1526,-0.1495,-0.146,-0.1444,-0.1436,-0.1436,-0.1436,-0.1436,-0.1436,-0.1436,-0.1436,-0.1436,-0.1436,-0.1436,-0.1436,-0.1436,-0.1436,-0.1436,-0.1436,-0.1436,-0.1436,-0.1436,-1.2436,-1.2436,-1.2436,-1.2436,-1.2436,-1.2436,-1.2436,-1.2436,-1.2436,-1.2436,-1.2436,-1.2436,-1.2436,-1.2436,-1.2436,-1.2436,-1.2327,-1.2219,-1.2114,-1.2005,-1.1896,-1.1787,-1.1568,-1.1568,-1.1459,-1.124,-1.1131,-1.0911,-1.0802,-1.0692,-1.0692,-1.0692,-1.0692,-1.0692,-1.0692,-1.0692,-1.0692,-1.0441,-0.9922,-0.8682,-0.712,-0.5737,-0.4411,-0.3334,-0.3232,-0.323,-0.323,-0.323,-0.323,-0.323,-0.323,-0.323,-0.323,-0.323,-0.323,-0.323,-0.323,-0.323,-0.323,-0.323,-0.323,-0.323,-0.323,-0.323,-0.323,-0.323,-0.323,-0.323,-0.323,-0.323,-0.323,-0.323,-0.323,-0.323,-0.323,-0.323,-0.323,-0.323,-0.313,-0.313,-0.3029,-0.2826,-0.2725,-0.2725,-0.2725,-0.2826,-0.2826,-0.2725,-0.2524,-0.2223,-0.19,-0.1675,-0.1549,-0.1518,-0.1488,-0.1457,-0.1444,-0.1436,-0.1436,-0.1436,-0.1436,-0.1436,-0.1436,-0.1436,-0.1436,-0.1436,-0.1436,-0.1436,-0.1436,-0.1436,-0.1436,-0.1436,-0.1436,-0.1436,-0.1436,-1.2436,-1.2436,-1.2436,-1.2436,-1.2436,-1.2436,-1.2436,-1.2436,-1.2436,-1.2436,-1.2436,-1.2436,-1.2436,-1.2436,-1.2436,-1.2436,-1.2436,-1.2436,-1.2332,-1.2114,-1.2114,-1.2005,-1.1896,-1.1787,-1.1678,-1.135,-1.135,-1.1131,-1.0911,-1.0802,-1.0692,-1.0692,-1.0692,-1.0692,-1.0692,-1.0692,-1.0692,-1.0684,-0.9926,-0.8786,-0.744,-0.6187,-0.4943,-0.3962,-0.3331,-0.323,-0.323,-0.323,-0.323,-0.323,-0.323,-0.323,-0.323,-0.323,-0.323,-0.323,-0.323,-0.323,-0.323,-0.323,-0.323,-0.323,-0.323,-0.323,-0.323,-0.323,-0.323,-0.323,-0.323,-0.323,-0.323,-0.323,-0.323,-0.323,-0.323,-0.323,-0.323,-0.323,-0.323,-0.313,-0.313,-0.313,-0.3029,-0.2928,-0.3029,-0.313,-0.3029,-0.2927,-0.2625,-0.2424,-0.2089,-0.1861,-0.1737,-0.1605,-0.1472,-0.145,-0.1439,-0.1525,-0.1525,-0.1525,-0.1525,-0.1525,-0.1525,-0.1525,-0.1436,-0.1436,-0.1436,-0.1436,-0.1436,-0.1436,-0.1436,-0.1436,-0.1436,-0.1436,-0.1436,-1.2436,-1.2436,-1.2436,-1.2436,-1.2436,-1.2436,-1.2436,-1.2436,-1.2436,-1.2436,-1.2436,-1.2436,-1.2436,-1.2436,-1.2436,-1.2436,-1.2436,-1.2436,-1.2332,-1.2332,-1.2327,-1.2327,-1.2219,-1.2219,-1.211,-1.1896,-1.1568,-1.135,-1.1021,-1.0806,-1.0692,-1.0692,-1.0692,-1.0692,-1.0692,-1.0692,-1.0692,-1.0692,-1.0202,-0.9485,-0.8338,-0.7165,-0.5933,-0.4669,-0.3732,-0.323,-0.323,-0.323,-0.323,-0.323,-0.323,-0.323,-0.323,-0.323,-0.323,-0.323,-0.323,-0.323,-0.323,-0.323,-0.323,-0.323,-0.323,-0.323,-0.323,-0.323,-0.323,-0.323,-0.323,-0.323,-0.323,-0.323,-0.323,-0.323,-0.323,-0.323,-0.323,-0.323,-0.323,-0.323,-0.323,-0.323,-0.323,-0.313,-0.3029,-0.313,-0.313,-0.3029,-0.2826,-0.2619,-0.2372,-0.2141,-0.1923,-0.1785,-0.1546,-0.1527,-0.1616,-0.1705,-0.1795,-0.1705,-0.1705,-0.1705,-0.1615,-0.1436,-0.1436,-0.1436,-0.1436,-0.1436,-0.1436,-0.1436,-0.1436,-0.1436,-0.1436,-0.1436,-0.1436,-1.2436,-1.2436,-1.2436,-1.2436,-1.2436,-1.2436,-1.2436,-1.2436,-1.2436,-1.2436,-1.2436,-1.2436,-1.2436,-1.2436,-1.2436,-1.2436,-1.2436,-1.2436,-1.2436,-1.2436,-1.2436,-1.2436,-1.2436,-1.2327,-1.2219,-1.2005,-1.1678,-1.1459,-1.1131,-1.0802,-1.0692,-1.0692,-1.0692,-1.0692,-1.0692,-1.0692,-1.0692,-1.0472,-1.0002,-0.9204,-0.8642,-0.7407,-0.6261,-0.4853,-0.4533,-0.3833,-0.3331,-0.323,-0.323,-0.323,-0.323,-0.323,-0.323,-0.323,-0.323,-0.323,-0.323,-0.323,-0.323,-0.323,-0.323,-0.323,-0.323,-0.323,-0.323,-0.323,-0.323,-0.323,-0.323,-0.323,-0.323,-0.323,-0.323,-0.323,-0.323,-0.323,-0.323,-0.323,-0.323,-0.323,-0.323,-0.323,-0.323,-0.323,-0.323,-0.323,-0.323,-0.313,-0.2928,-0.282,-0.2577,-0.2337,-0.2211,-0.208,-0.1833,-0.1812,-0.1887,-0.1974,-0.2064,-0.1974,-0.1974,-0.1795,-0.1705,-0.1525,-0.1436,-0.1436,-0.1436,-0.1436,-0.1436,-0.1436,-0.1436,-0.1436,-0.1436,-0.1436,-0.1436,-1.2436,-1.2436,-1.2436,-1.2436,-1.2436,-1.2436,-1.2436,-1.2436,-1.2436,-1.2436,-1.2436,-1.2436,-1.2436,-1.2436,-1.2436,-1.2436,-1.2436,-1.2436,-1.2436,-1.2436,-1.2436,-1.2436,-1.2436,-1.2327,-1.2327,-1.2114,-1.1787,-1.1459,-1.124,-1.0911,-1.0692,-1.0692,-1.0692,-1.0692,-1.0692,-1.0692,-1.0692,-1.0472,-1.0002,-0.9316,-0.9043,-0.7935,-0.7087,-0.5768,-0.5233,-0.4433,-0.3831,-0.3533,-0.323,-0.323,-0.323,-0.323,-0.323,-0.323,-0.323,-0.323,-0.323,-0.323,-0.323,-0.323,-0.323,-0.323,-0.323,-0.323,-0.323,-0.323,-0.323,-0.323,-0.323,-0.323,-0.323,-0.323,-0.323,-0.323,-0.323,-0.323,-0.323,-0.323,-0.323,-0.323,-0.323,-0.323,-0.323,-0.323,-0.323,-0.323,-0.323,-0.313,-0.313,-0.2918,-0.2796,-0.2648,-0.2507,-0.2367,-0.2227,-0.2099,-0.2068,-0.2244,-0.2244,-0.2244,-0.2155,-0.1974,-0.1885,-0.1795,-0.1705,-0.1525,-0.1525,-0.1525,-0.1436,-0.1436,-0.1436,-0.1436,-0.1436,-0.1436,-0.1436,-1.2436,-1.2436,-1.2436,-1.2436,-1.2436,-1.2436,-1.2436,-1.2436,-1.2436,-1.2436,-1.2436,-1.2436,-1.2436,-1.2436,-1.2436,-1.2436,-1.2436,-1.2436,-1.2436,-1.2436,-1.2436,-1.2436,-1.2436,-1.2327,-1.2327,-1.2219,-1.1891,-1.1678,-1.1568,-1.1021,-1.0802,-1.0692,-1.0692,-1.0692,-1.0692,-1.0692,-1.0692,-1.0692,-1.0582,-1.027,-0.9817,-0.8992,-0.8203,-0.719,-0.6129,-0.5231,-0.4732,-0.3932,-0.3632,-0.3533,-0.323,-0.323,-0.323,-0.323,-0.323,-0.323,-0.323,-0.323,-0.323,-0.323,-0.323,-0.323,-0.323,-0.323,-0.323,-0.323,-0.323,-0.323,-0.323,-0.323,-0.323,-0.323,-0.323,-0.323,-0.323,-0.323,-0.323,-0.323,-0.323,-0.323,-0.323,-0.323,-0.323,-0.323,-0.323,-0.323,-0.323,-0.313,-0.313,-0.3123,-0.3006,-0.2876,-0.2727,-0.2674,-0.253,-0.2285,-0.2252,-0.2427,-0.2515,-0.2424,-0.2424,-0.2334,-0.2244,-0.2155,-0.1974,-0.1795,-0.1705,-0.1615,-0.1525,-0.1525,-0.1436,-0.1436,-0.1436,-0.1436,-0.1436,-1.2436,-1.2436,-1.2436,-1.2436,-1.2436,-1.2436,-1.2436,-1.2436,-1.2436,-1.2436,-1.2436,-1.2436,-1.2436,-1.2436,-1.2436,-1.2436,-1.2436,-1.2436,-1.2436,-1.2436,-1.2436,-1.2436,-1.2436,-1.2436,-1.2436,-1.2327,-1.2001,-1.1678,-1.1568,-1.1131,-1.0802,-1.0802,-1.0692,-1.0692,-1.0692,-1.0692,-1.0692,-1.0692,-1.066,-1.0526,-1.0209,-0.9719,-0.916,-0.8144,-0.7126,-0.6426,-0.5827,-0.483,-0.4133,-0.4034,-0.3732,-0.323,-0.323,-0.323,-0.323,-0.323,-0.323,-0.323,-0.323,-0.323,-0.323,-0.323,-0.323,-0.323,-0.323,-0.323,-0.323,-0.323,-0.323,-0.323,-0.323,-0.323,-0.323,-0.323,-0.323,-0.323,-0.323,-0.323,-0.323,-0.323,-0.323,-0.323,-0.323,-0.323,-0.323,-0.323,-0.323,-0.323,-0.313,-0.313,-0.312,-0.31,-0.296,-0.2901,-0.284,-0.2589,-0.2541,-0.2709,-0.2702,-0.2694,-0.2604,-0.2604,-0.2424,-0.2244,-0.2155,-0.2064,-0.1974,-0.1795,-0.1705,-0.1615,-0.1525,-0.1436,-0.1436,-0.1436,-0.1436,-1.2866,-1.3506,-1.2762,-1.2866,-1.3403,-1.2762,-1.2436,-1.2436,-1.2436,-1.2436,-1.2436,-1.2436,-1.2436,-1.2436,-1.2436,-1.2436,-1.2436,-1.2436,-1.2436,-1.2436,-1.2436,-1.2436,-1.2436,-1.2436,-1.2436,-1.2332,-1.2005,-1.1787,-1.1568,-1.1131,-1.0911,-1.0692,-1.0692,-1.0692,-1.0692,-1.0692,-1.0692,-1.0692,-1.0664,-1.0517,-1.0266,-1.0008,-0.9674,-0.8818,-0.8124,-0.7624,-0.6725,-0.5829,-0.4832,-0.4533,-0.3932,-0.323,-0.323,-0.323,-0.323,-0.323,-0.323,-0.323,-0.323,-0.323,-0.323,-0.323,-0.323,-0.323,-0.323,-0.323,-0.323,-0.323,-0.323,-0.323,-0.323,-0.323,-0.323,-0.323,-0.323,-0.323,-0.323,-0.323,-0.323,-0.323,-0.323,-0.323,-0.323,-0.323,-0.323,-0.323,-0.323,-0.323,-0.323,-0.323,-0.323,-0.3213,-0.3187,-0.3031,-0.2967,-0.2904,-0.2856,-0.2909,-0.2894,-0.2793,-0.2785,-0.2694,-0.2604,-0.2424,-0.2334,-0.2244,-0.2155,-0.2064,-0.1885,-0.1795,-0.1705,-0.1525,-0.1436,-0.1436,-0.1436,-1.3804,-1.5411,-1.3383,-1.3788,-1.518,-1.3434,-1.2611,-1.2432,-1.2436,-1.2436,-1.2436,-1.2436,-1.2436,-1.2436,-1.2436,-1.2436,-1.2436,-1.2436,-1.2436,-1.2436,-1.2436,-1.2436,-1.2436,-1.2436,-1.2436,-1.2223,-1.2005,-1.1782,-1.1568,-1.1021,-1.0802,-1.0692,-1.0692,-1.0692,-1.0692,-1.0692,-1.0692,-1.0692,-1.0672,-1.0513,-1.0294,-1.0164,-0.9879,-0.9264,-0.8744,-0.8326,-0.7524,-0.6528,-0.5532,-0.4832,-0.4033,-0.3531,-0.3331,-0.323,-0.323,-0.323,-0.323,-0.323,-0.323,-0.323,-0.323,-0.323,-0.323,-0.323,-0.323,-0.323,-0.323,-0.323,-0.323,-0.323,-0.323,-0.323,-0.323,-0.323,-0.323,-0.323,-0.323,-0.323,-0.323,-0.323,-0.323,-0.323,-0.323,-0.323,-0.323,-0.323,-0.323,-0.323,-0.323,-0.323,-0.3229,-0.3224,-0.3194,-0.3157,-0.3098,-0.3044,-0.3006,-0.297,-0.2917,-0.2898,-0.2887,-0.2879,-0.2784,-0.2694,-0.2604,-0.2515,-0.2424,-0.2244,-0.2154,-0.1974,-0.1795,-0.1615,-0.1436,-0.1436,-0.1436,-1.4573,-1.5082,-1.4464,-1.4568,-1.4985,-1.447,-1.4041,-1.3599,-1.2871,-1.2436,-1.2436,-1.2436,-1.2436,-1.2436,-1.2436,-1.2436,-1.2436,-1.2436,-1.2436,-1.2436,-1.2436,-1.2436,-1.2436,-1.2436,-1.2436,-1.2223,-1.2005,-1.1673,-1.1459,-1.1021,-1.0692,-1.0692,-1.0692,-1.0692,-1.0692,-1.0692,-1.0692,-1.0692,-1.0692,-1.0546,-1.0359,-1.0225,-1.0022,-0.9637,-0.9267,-0.9038,-0.8524,-0.7627,-0.6927,-0.6728,-0.5233,-0.4435,-0.4332,-0.3732,-0.323,-0.323,-0.323,-0.323,-0.323,-0.323,-0.323,-0.323,-0.323,-0.323,-0.323,-0.323,-0.323,-0.323,-0.323,-0.323,-0.323,-0.323,-0.323,-0.323,-0.323,-0.323,-0.323,-0.323,-0.323,-0.323,-0.323,-0.323,-0.323,-0.323,-0.323,-0.323,-0.323,-0.323,-0.323,-0.323,-0.323,-0.3225,-0.3215,-0.3181,-0.3153,-0.3104,-0.3068,-0.303,-0.2976,-0.2931,-0.2921,-0.2909,-0.2886,-0.2875,-0.2784,-0.2784,-0.2784,-0.2604,-0.2334,-0.2155,-0.1974,-0.1705,-0.1525,-0.1436,-0.1436,-1.5462,-1.6072,-1.5267,-1.516,-1.5569,-1.5576,-1.5378,-1.492,-1.4077,-1.3414,-1.3083,-1.3088,-1.2871,-1.2436,-1.2436,-1.2436,-1.2436,-1.2436,-1.2436,-1.2436,-1.2436,-1.2436,-1.2436,-1.2327,-1.2332,-1.2223,-1.2005,-1.1673,-1.1345,-1.1021,-1.0692,-1.0692,-1.0692,-1.0692,-1.0692,-1.0692,-1.0692,-1.0692,-1.0668,-1.0582,-1.044,-1.0262,-1.0075,-0.99,-0.9721,-0.9644,-0.9525,-0.8623,-0.812,-0.7822,-0.6129,-0.5233,-0.4832,-0.3833,-0.323,-0.323,-0.323,-0.323,-0.323,-0.323,-0.323,-0.323,-0.323,-0.323,-0.323,-0.323,-0.323,-0.323,-0.323,-0.323,-0.323,-0.323,-0.323,-0.323,-0.323,-0.323,-0.323,-0.323,-0.323,-0.323,-0.323,-0.323,-0.323,-0.323,-0.323,-0.323,-0.323,-0.323,-0.323,-0.323,-0.323,-0.3229,-0.3226,-0.3213,-0.3184,-0.3155,-0.3121,-0.308,-0.3034,-0.2993,-0.297,-0.2937,-0.2912,-0.2891,-0.2875,-0.2875,-0.2875,-0.2784,-0.2604,-0.2334,-0.2064,-0.1885,-0.1705,-0.1525,-0.1436,-1.6295,-1.7992,-1.6008,-1.5757,-1.652,-1.6587,-1.662,-1.6587,-1.58,-1.5019,-1.4366,-1.4228,-1.3675,-1.2911,-1.2729,-1.2545,-1.2436,-1.2436,-1.2436,-1.2436,-1.2436,-1.2436,-1.2436,-1.2327,-1.2332,-1.2001,-1.1782,-1.1678,-1.1236,-1.0907,-1.0802,-1.0692,-1.0692,-1.0692,-1.0692,-1.0692,-1.0692,-1.0692,-1.0676,-1.0619,-1.0465,-1.0278,-1.0079,-0.992,-0.9758,-0.9624,-0.9327,-0.8825,-0.812,-0.7819,-0.7123,-0.6126,-0.4832,-0.4034,-0.3632,-0.323,-0.323,-0.323,-0.323,-0.323,-0.323,-0.323,-0.323,-0.323,-0.323,-0.323,-0.323,-0.323,-0.323,-0.323,-0.323,-0.323,-0.323,-0.323,-0.323,-0.323,-0.323,-0.323,-0.323,-0.323,-0.323,-0.323,-0.323,-0.323,-0.323,-0.323,-0.323,-0.323,-0.323,-0.323,-0.323,-0.323,-0.3229,-0.3226,-0.3214,-0.3188,-0.3165,-0.3127,-0.3086,-0.3056,-0.3031,-0.2986,-0.2937,-0.2906,-0.2875,-0.2875,-0.2875,-0.2785,-0.2694,-0.2515,-0.2244,-0.2155,-0.1885,-0.1705,-0.1436,-1.707,-1.7465,-1.6975,-1.688,-1.7077,-1.7173,-1.7234,-1.753,-1.7309,-1.6214,-1.5053,-1.4937,-1.4517,-1.3482,-1.351,-1.3244,-1.263,-1.2394,-1.2432,-1.2436,-1.2436,-1.2436,-1.2436,-1.2436,-1.2332,-1.2223,-1.2005,-1.1678,-1.1459,-1.1126,-1.1017,-1.0907,-1.0798,-1.0688,-1.0692,-1.0692,-1.0692,-1.0692,-1.0684,-1.0672,-1.059,-1.0339,-1.0115,-0.9989,-0.9847,-0.9648,-0.9525,-0.9426,-0.9225,-0.9023,-0.8124,-0.6728,-0.4933,-0.4634,-0.4033,-0.3432,-0.3331,-0.3331,-0.323,-0.323,-0.323,-0.323,-0.323,-0.323,-0.323,-0.323,-0.323,-0.323,-0.323,-0.323,-0.323,-0.323,-0.323,-0.323,-0.323,-0.323,-0.323,-0.323,-0.323,-0.323,-0.323,-0.323,-0.323,-0.323,-0.323,-0.323,-0.323,-0.323,-0.323,-0.323,-0.323,-0.323,-0.323,-0.3228,-0.3224,-0.3218,-0.3194,-0.318,-0.3147,-0.3119,-0.3087,-0.3014,-0.2941,-0.2902,-0.2875,-0.2875,-0.2875,-0.2875,-0.2784,-0.2604,-0.2424,-0.2244,-0.2155,-0.1885,-0.1615,-1.7333,-1.7333,-1.7333,-1.7333,-1.7333,-1.7333,-1.7443,-1.7574,-1.7604,-1.7014,-1.6052,-1.5897,-1.5294,-1.416,-1.4002,-1.3736,-1.2919,-1.2407,-1.2361,-1.2408,-1.2417,-1.2436,-1.2436,-1.2432,-1.2223,-1.2223,-1.2001,-1.1673,-1.1568,-1.1459,-1.124,-1.1126,-1.0907,-1.0798,-1.0692,-1.0692,-1.0692,-1.0692,-1.0692,-1.0688,-1.0651,-1.0379,-1.0176,-1.0059,-0.9868,-0.9673,-0.9624,-0.9624,-0.9624,-0.9324,-0.852,-0.7726,-0.6429,-0.5829,-0.5031,-0.4332,-0.3932,-0.3732,-0.3432,-0.323,-0.323,-0.323,-0.323,-0.323,-0.323,-0.323,-0.323,-0.323,-0.323,-0.323,-0.323,-0.323,-0.323,-0.323,-0.323,-0.323,-0.323,-0.323,-0.323,-0.323,-0.323,-0.323,-0.323,-0.323,-0.323,-0.323,-0.323,-0.323,-0.323,-0.323,-0.323,-0.323,-0.323,-0.323,-0.3229,-0.3228,-0.3222,-0.321,-0.3195,-0.3138,-0.308,-0.3008,-0.2944,-0.2901,-0.2875,-0.2875,-0.2875,-0.2875,-0.2875,-0.2784,-0.2604,-0.2424,-0.2334,-0.2155,-0.1885,-1.7333,-1.7333,-1.7333,-1.7333,-1.7333,-1.7333,-1.734,-1.7347,-1.734,-1.734,-1.7145,-1.6758,-1.6056,-1.5016,-1.4265,-1.3909,-1.3498,-1.281,-1.252,-1.2285,-1.2356,-1.2346,-1.2375,-1.2309,-1.2323,-1.211,-1.2001,-1.1896,-1.1787,-1.1568,-1.1459,-1.124,-1.1017,-1.0907,-1.0798,-1.0692,-1.0692,-1.0692,-1.0688,-1.0672,-1.0534,-1.0351,-1.0213,-1.0042,-0.9843,-0.9652,-0.9624,-0.9624,-0.9624,-0.9324,-0.8821,-0.8223,-0.7624,-0.6924,-0.5829,-0.5033,-0.4933,-0.4332,-0.363,-0.343,-0.333,-0.3229,-0.323,-0.323,-0.323,-0.323,-0.323,-0.323,-0.323,-0.323,-0.323,-0.323,-0.323,-0.323,-0.323,-0.323,-0.323,-0.323,-0.323,-0.323,-0.323,-0.323,-0.323,-0.323,-0.323,-0.323,-0.323,-0.323,-0.323,-0.323,-0.323,-0.323,-0.323,-0.323,-0.323,-0.3226,-0.3225,-0.3217,-0.3192,-0.3135,-0.3072,-0.3,-0.2939,-0.2894,-0.2875,-0.2875,-0.2875,-0.2875,-0.2875,-0.2875,-0.2785,-0.2604,-0.2515,-0.2424,-0.2155,-1.7333,-1.7333,-1.7333,-1.7333,-1.7333,-1.7333,-1.7333,-1.7333,-1.7333,-1.7333,-1.7276,-1.7232,-1.667,-1.5855,-1.6002,-1.5322,-1.3696,-1.3111,-1.2496,-1.2035,-1.2129,-1.2186,-1.2219,-1.228,-1.2295,-1.229,-1.2154,-1.22,-1.1999,-1.172,-1.1555,-1.1415,-1.0882,-1.0777,-1.0781,-1.066,-1.0631,-1.0623,-1.0611,-1.059,-1.0444,-1.0294,-1.0197,-1.0022,-0.9819,-0.9689,-0.9624,-0.9624,-0.9624,-0.9525,-0.9324,-0.8825,-0.8326,-0.7826,-0.6828,-0.5929,-0.5829,-0.4931,-0.4331,-0.4131,-0.3932,-0.323,-0.323,-0.323,-0.323,-0.323,-0.323,-0.323,-0.323,-0.323,-0.323,-0.323,-0.323,-0.323,-0.323,-0.323,-0.323,-0.323,-0.323,-0.323,-0.323,-0.323,-0.323,-0.323,-0.323,-0.323,-0.323,-0.323,-0.323,-0.323,-0.323,-0.323,-0.323,-0.323,-0.323,-0.3219,-0.3214,-0.321,-0.318,-0.3104,-0.3038,-0.2988,-0.2933,-0.2888,-0.2875,-0.2875,-0.2875,-0.2875,-0.2875,-0.2875,-0.2875,-0.2785,-0.2784,-0.2604,-0.2424]},{"header":{"parameterUnit":"m.s-1","parameterCategory":1,"la1":31.0,"la2":29.5877,"lo1":-88.7671,"lo2":-86.6584,"dy":0.0162,"dx":0.0185,"nx":115,"ny":88,"refTime":"2023-07-10T12:00:00:Z","depth":0,"parameterNumber":3,"parameterNumberName":"V-component_of_WINDS"},"data":[0.0,0.0,0.0,0.0,0.0,0.0,0.0,0.0,0.0,0.0,0.0,0.0,0.0,0.0,0.0,0.0,0.0,0.0,0.0,0.0,0.0,0.0,0.0,0.0,0.0,0.0,0.0,0.0,0.0,0.0,0.0,0.0,0.0,0.0,0.0,0.0,0.0,0.0,0.0,0.0,0.0,0.0,0.0,0.0,0.0,0.0,0.0,0.0,0.0,0.0,0.0,0.0,0.0,0.0,0.0,0.0,0.0,0.0,0.0,0.0,0.0,0.0,0.0,0.0,0.0,0.0,0.0,0.0,0.0,0.0,0.0,0.0,0.0,0.0,0.0,0.0,0.0,0.0,0.0,0.0,0.0,0.0,0.0,0.0,0.0,0.0,0.0,0.0,0.0,0.0,0.0,0.0,0.0,0.0,0.0,0.0,0.0,0.0,0.0,0.0,0.0,0.0,0.0,0.0,0.0,0.0,0.0,0.0,0.0,0.0,0.0,0.0,0.0,0.0,0.0,0.0,0.0,0.0,0.0,0.0,0.0,0.0,0.0,0.0,0.0,0.0,0.0,0.0,0.0,0.0,0.0,0.0,0.0,0.0,0.0,0.0,0.0,0.0,0.0,0.0,0.0,0.0,0.0,0.0,0.0,0.0,0.0,0.0,0.0,0.0,0.0,0.0,0.0,0.0,0.0,0.0,0.0,0.0,0.0,0.0,0.0,0.0,0.0,0.0,0.0,0.0,0.0,0.0,0.0,0.0,0.0,0.0,0.0,0.0,0.0,0.0,0.0,0.0,0.0,0.0,0.0,0.0,0.0,0.0,0.0,0.0,0.0,0.0,0.0,0.0,0.0,0.0,0.0,0.0,0.0,0.0,0.0,0.0,0.0,0.0,0.0,0.0,0.0,0.0,0.0,0.0,0.0,0.0,0.0,0.0,0.0,0.0,0.0,0.0,0.0,0.0,0.0,0.0,0.0,0.0,0.0,0.0,0.0,0.0,0.0,0.0,0.0,0.0,0.0,0.0,0.0,0.0,0.0,0.0,0.0,0.0,0.0,0.0,0.0,0.0,0.0,0.0,0.0,0.0,0.0,0.0,0.0,0.0,0.0,0.0,0.0,0.0,0.0,0.0,0.0,0.0,0.0,0.0,0.0,0.0,0.0,0.0,0.0,0.0,0.0,0.0,0.0,0.0,0.0,0.0,0.0,0.0,0.0,0.0,0.0,0.0,0.0,0.0,0.0,0.0,0.0,0.0,0.0,0.0,0.0,0.0,0.0,0.0,0.0,0.0,0.0,0.0,0.0,0.0,0.0,0.0,0.0,0.0,0.0,0.0,0.0,0.0,0.0,0.0,0.0,0.0,0.0,0.0,0.0,0.0,0.0,0.0,0.0,0.0,0.0,0.0,0.0,0.0,0.0,0.0,0.0,0.0,0.0,0.0,0.0,0.0,0.0,0.0,0.0,0.0,0.0,0.0,0.0,0.0,0.0,0.0,0.0,0.0,0.0,0.0,0.0,0.0,0.0,0.0,0.0,0.0,0.0,0.0,0.0,0.0,0.0,0.0,0.0,0.0,0.0,0.0,0.0,0.0,0.0,0.0,0.0,0.0,0.0,0.0,0.0,0.0,0.0,0.0,0.0,0.0,0.0,0.0,0.0,0.0,0.0,0.0,0.0,0.0,0.0,0.0,0.0,0.0,0.0,0.0,0.0,0.0,0.0,0.0,0.0,0.0,0.0,0.0,0.0,0.0,0.0,0.0,0.0,0.0,0.0,0.0,0.0,0.0,0.0,0.0,0.0,0.0,0.0,0.0,0.0,0.0,0.0,0.0,0.0,0.0,0.0,0.0,0.0,0.0,0.0,0.0,0.0,0.0,0.0,0.0,0.0,0.0,0.0,0.0,0.0,0.0,0.0,0.0,0.0,0.0,0.0,0.0,0.0,0.0,0.0,0.0,0.0,0.0,0.0,0.0,0.0,0.0,0.0,0.0,0.0,0.0,0.0,0.0,0.0,0.0,0.0,0.0,0.0,0.0,0.0,0.0,0.0,0.0,0.0,0.0,0.0,0.0,0.0,0.0,0.0,0.0,0.0,0.0,0.0,0.0,0.0,0.0,0.0,0.0,0.0,0.0,0.0,0.0,0.0,0.0,0.0,0.0,0.0,0.0,0.0,0.0,0.0,0.0,0.0,0.0,0.0,0.0,0.0,0.0,0.0,0.0,0.0,0.0,0.0,0.0,0.0,0.0,0.0,0.0,0.0,0.0,0.0,0.0,0.0,0.0,0.0,0.0,0.0,0.0,0.0,0.0,0.0,0.0,0.0,0.0,0.0,0.0,0.0,0.0,0.0,0.0,0.0,0.0,0.0,0.0,0.0,0.0,0.0,0.0,0.0,0.0,0.0,0.0,0.0,0.0,0.0,0.0,0.0,0.0,0.0,0.0,0.0,0.0,0.0,0.0,0.0,0.0,0.0,0.0,0.0,0.0,0.0,0.0,0.0,0.0,0.0,0.0,0.0,0.0,0.0,0.0,0.0,0.0,0.0,0.0,0.0,0.0,0.0,0.0,0.0,0.0,0.0,0.0,0.0,0.0,0.0,0.0,0.0,0.0,0.0,0.0,0.0,0.0,0.0,0.0,0.0,0.0,0.0,0.0,0.0,0.0,0.0,0.0,0.0,0.0,0.0,0.0,0.0,0.0,0.0,0.0,0.0,0.0,0.0,0.0,0.0,0.0,0.0,0.0,0.0,0.0,0.0,0.0,0.0,0.0,0.0,0.0,0.0,0.0,0.0,0.0,0.0,0.0,0.0,0.0,0.0,0.0,0.0,0.0,0.0,0.0,0.0,0.0,0.0,0.0,0.0,0.0,0.0,0.0,0.0,0.0,0.0,0.0,0.0,0.0,0.0,0.0,0.0,0.0,0.0,0.0,0.0,0.0,0.0,0.0,0.0,0.0,0.0,0.0,0.0,0.0,0.0,0.0,0.0,0.0,0.0,0.0,0.0,0.0,0.0,0.0,0.0,0.0,0.0,0.0,0.0,0.0,0.0,0.0,0.0,0.0,0.0,0.0,0.0,0.0,0.0,0.0,0.0,0.0,0.0,0.0,0.0,0.0,0.0,0.0,0.0,0.0,0.0,0.0,0.0,0.0,0.0,0.0,0.0,0.0,0.0,0.0,0.0,0.0,0.0,0.0,0.0,0.0,0.0,0.0,0.0,0.0,0.0,0.0,0.0,0.0,0.0,0.0,0.0,0.0,0.0,0.0,0.0,0.0,0.0,0.0,0.0,0.0,0.0,0.0,0.0,0.0,0.0,0.0,0.0,0.0,0.0,0.0,0.0,0.0,0.0,0.0,0.0,0.0,0.0,0.0,0.0,0.0,0.0,0.0,0.0,0.0,0.0,0.0,0.0,0.0,0.0,0.0,0.0,0.0,0.0,0.0,0.0,0.0,0.0,0.0,0.0,0.0,0.0,0.0,0.0,0.0,0.0,0.0,0.0,0.0,0.0,0.0,0.0,0.0,0.0,0.0,0.0,0.0,0.0,0.0,0.0,0.0,0.0,0.0,0.0,0.0,0.0,0.0,0.0,0.0,0.0,0.0,0.0,0.0,0.0,0.0,0.0,0.0,0.0,0.0,0.0,0.0,0.0,0.0,0.0,0.0,0.0,0.0,0.0,0.0,0.0,0.0,0.0,0.0,0.0,0.0,0.0,0.0,0.0,0.0,0.0,0.0,0.0,0.0,0.0,0.0,0.0,0.0,0.0,0.0,0.0,0.0,0.0,0.0,0.0,0.0,0.0,0.0,0.0,0.0,0.0,0.0,0.0,0.0,0.0,0.0,0.0,0.0,0.0,0.0,0.0,0.0,0.0,0.0,0.0,0.0,0.0,0.0,0.0,0.0,0.0,0.0,0.0,0.0,0.0,0.0,0.0,0.0,0.0,0.0,0.0,0.0,0.0,0.0,0.0,0.0,0.0,0.0,0.0,0.0,0.0,0.0,0.0,0.0,0.0,0.0,0.0,0.0,0.0,0.0,0.0,0.0,0.0,0.0,0.0,0.0,0.0,0.0,0.0,0.0,0.0,0.0,0.0,0.0,0.0,0.0,0.0,0.0,0.0,0.0,0.0,0.0,0.0,0.0,0.0,0.0,0.0,0.0,0.0,0.0,0.0,0.0,0.0,0.0,0.0,0.0,0.0,0.0,0.0,0.0,0.0,0.0,0.0,0.0,0.0,0.0,0.0,0.0,0.0,0.0,0.0,0.0,0.0,0.0,0.0,0.0,-2.5086,0.0,0.0,0.0,0.0,0.0,0.0,0.0,0.0,0.0,0.0,0.0,0.0,0.0,0.0,0.0,0.0,0.0,0.0,0.0,0.0,0.0,0.0,0.0,0.0,0.0,0.0,0.0,0.0,0.0,0.0,0.0,0.0,0.0,0.0,0.0,0.0,0.0,0.0,0.0,0.0,0.0,0.0,0.0,0.0,0.0,0.0,0.0,0.0,0.0,0.0,0.0,0.0,0.0,0.0,0.0,0.0,0.0,0.0,0.0,0.0,0.0,0.0,0.0,0.0,0.0,0.0,0.0,0.0,0.0,0.0,0.0,0.0,0.0,0.0,0.0,0.0,0.0,0.0,0.0,0.0,0.0,0.0,0.0,0.0,0.0,0.0,0.0,0.0,0.0,0.0,0.0,0.0,0.0,0.0,0.0,0.0,0.0,0.0,0.0,0.0,0.0,0.0,0.0,0.0,0.0,0.0,0.0,0.0,0.0,0.0,-2.9166,-2.7631,-2.7513,-2.6925,-2.5712,0.0,0.0,0.0,0.0,0.0,0.0,0.0,0.0,0.0,0.0,0.0,0.0,0.0,0.0,0.0,0.0,0.0,0.0,0.0,0.0,0.0,0.0,0.0,0.0,0.0,0.0,0.0,0.0,0.0,0.0,0.0,0.0,0.0,0.0,0.0,0.0,0.0,0.0,0.0,0.0,0.0,0.0,0.0,0.0,0.0,0.0,0.0,0.0,0.0,0.0,0.0,0.0,0.0,0.0,0.0,0.0,0.0,0.0,0.0,0.0,0.0,0.0,0.0,0.0,0.0,0.0,0.0,0.0,0.0,0.0,0.0,0.0,0.0,0.0,0.0,0.0,0.0,0.0,0.0,0.0,0.0,0.0,0.0,0.0,0.0,0.0,0.0,0.0,0.0,0.0,0.0,0.0,0.0,0.0,0.0,0.0,0.0,0.0,0.0,0.0,0.0,0.0,0.0,0.0,0.0,0.0,0.0,0.0,0.0,0.0,0.0,0.0,-2.8116,-2.7281,-2.6257,0.0,0.0,0.0,0.0,0.0,0.0,0.0,0.0,0.0,0.0,0.0,0.0,0.0,0.0,0.0,0.0,0.0,0.0,0.0,0.0,0.0,0.0,0.0,0.0,0.0,0.0,0.0,0.0,0.0,0.0,0.0,0.0,0.0,0.0,0.0,0.0,0.0,0.0,0.0,0.0,0.0,0.0,0.0,0.0,0.0,0.0,0.0,0.0,0.0,0.0,0.0,0.0,0.0,0.0,0.0,0.0,0.0,0.0,0.0,0.0,0.0,0.0,0.0,0.0,0.0,0.0,0.0,0.0,0.0,0.0,0.0,0.0,0.0,0.0,0.0,0.0,0.0,0.0,0.0,0.0,0.0,0.0,0.0,0.0,0.0,0.0,0.0,0.0,0.0,0.0,0.0,0.0,0.0,0.0,0.0,0.0,0.0,0.0,0.0,0.0,0.0,0.0,0.0,0.0,0.0,0.0,0.0,0.0,0.0,0.0,-2.9608,-2.8829,-2.8722,0.0,-2.6439,0.0,0.0,0.0,0.0,0.0,0.0,0.0,0.0,0.0,0.0,0.0,0.0,0.0,0.0,0.0,0.0,0.0,0.0,0.0,0.0,0.0,0.0,0.0,0.0,0.0,0.0,0.0,0.0,0.0,0.0,0.0,0.0,0.0,0.0,0.0,0.0,0.0,0.0,0.0,0.0,0.0,0.0,0.0,0.0,0.0,0.0,0.0,0.0,0.0,0.0,0.0,0.0,0.0,0.0,0.0,0.0,0.0,0.0,0.0,0.0,0.0,0.0,0.0,0.0,0.0,0.0,0.0,0.0,0.0,0.0,0.0,0.0,0.0,0.0,0.0,0.0,0.0,0.0,0.0,0.0,0.0,0.0,0.0,0.0,0.0,0.0,0.0,0.0,0.0,0.0,0.0,0.0,0.0,0.0,0.0,0.0,0.0,0.0,0.0,0.0,0.0,0.0,0.0,0.0,0.0,0.0,0.0,0.0,0.0,0.0,-3.0075,-2.9761,-2.9248,-2.8434,0.0,0.0,0.0,0.0,0.0,0.0,0.0,0.0,0.0,0.0,0.0,0.0,0.0,0.0,0.0,0.0,0.0,0.0,0.0,0.0,0.0,0.0,0.0,0.0,0.0,0.0,0.0,0.0,0.0,0.0,0.0,0.0,0.0,0.0,0.0,0.0,0.0,0.0,0.0,0.0,0.0,0.0,0.0,0.0,0.0,0.0,0.0,0.0,0.0,0.0,0.0,0.0,0.0,0.0,0.0,0.0,0.0,0.0,0.0,0.0,0.0,0.0,0.0,0.0,0.0,0.0,0.0,0.0,0.0,0.0,0.0,0.0,0.0,0.0,0.0,0.0,0.0,0.0,0.0,0.0,0.0,0.0,0.0,0.0,0.0,0.0,0.0,0.0,0.0,0.0,0.0,0.0,0.0,0.0,0.0,0.0,0.0,0.0,0.0,0.0,0.0,0.0,0.0,0.0,0.0,0.0,0.0,0.0,0.0,0.0,-3.0351,-3.0404,-3.0404,-2.9805,-2.9081,-2.8269,0.0,0.0,0.0,0.0,0.0,0.0,0.0,0.0,0.0,0.0,0.0,0.0,0.0,0.0,0.0,0.0,0.0,0.0,0.0,0.0,0.0,0.0,0.0,0.0,0.0,0.0,0.0,0.0,0.0,0.0,0.0,0.0,0.0,0.0,0.0,0.0,0.0,0.0,0.0,0.0,0.0,0.0,0.0,0.0,0.0,0.0,0.0,0.0,0.0,0.0,0.0,0.0,0.0,0.0,0.0,0.0,0.0,0.0,0.0,0.0,0.0,0.0,0.0,0.0,0.0,0.0,0.0,0.0,0.0,0.0,0.0,0.0,0.0,0.0,0.0,0.0,0.0,0.0,0.0,0.0,0.0,0.0,0.0,0.0,0.0,0.0,0.0,0.0,0.0,0.0,0.0,0.0,0.0,0.0,0.0,0.0,0.0,0.0,0.0,0.0,0.0,0.0,0.0,0.0,0.0,0.0,0.0,0.0,-3.0385,-3.0385,-3.0424,-3.0501,-3.0414,-2.997,0.0,0.0,0.0,0.0,0.0,0.0,0.0,0.0,0.0,0.0,0.0,0.0,0.0,0.0,0.0,0.0,0.0,0.0,0.0,0.0,0.0,0.0,0.0,0.0,0.0,0.0,0.0,0.0,0.0,0.0,0.0,0.0,0.0,0.0,0.0,0.0,0.0,0.0,0.0,0.0,0.0,0.0,0.0,0.0,0.0,0.0,0.0,0.0,0.0,0.0,0.0,0.0,0.0,0.0,0.0,0.0,0.0,0.0,0.0,0.0,0.0,0.0,0.0,0.0,0.0,0.0,0.0,0.0,0.0,0.0,0.0,0.0,0.0,0.0,0.0,0.0,0.0,0.0,0.0,0.0,0.0,0.0,0.0,0.0,0.0,0.0,0.0,0.0,0.0,0.0,0.0,0.0,0.0,0.0,0.0,0.0,0.0,0.0,0.0,0.0,0.0,0.0,0.0,0.0,0.0,0.0,0.0,0.0,0.0,-3.0529,-3.0605,-3.0672,-3.0678,-3.0665,-3.0529,0.0,0.0,0.0,0.0,0.0,0.0,0.0,0.0,0.0,0.0,0.0,0.0,0.0,0.0,0.0,0.0,0.0,0.0,0.0,0.0,0.0,0.0,0.0,0.0,0.0,0.0,0.0,0.0,0.0,0.0,0.0,0.0,0.0,0.0,0.0,0.0,0.0,0.0,0.0,0.0,0.0,0.0,0.0,0.0,0.0,0.0,0.0,0.0,0.0,0.0,0.0,0.0,0.0,0.0,0.0,0.0,0.0,0.0,0.0,0.0,0.0,0.0,0.0,0.0,0.0,0.0,0.0,0.0,0.0,0.0,0.0,0.0,0.0,0.0,0.0,0.0,0.0,0.0,0.0,0.0,0.0,0.0,0.0,0.0,0.0,0.0,0.0,0.0,0.0,0.0,0.0,0.0,0.0,0.0,0.0,0.0,0.0,0.0,0.0,0.0,0.0,0.0,0.0,0.0,0.0,0.0,0.0,0.0,0.0,-3.0665,0.0,-3.0799,-3.0799,-3.0799,-3.0799,0.0,0.0,0.0,0.0,0.0,0.0,0.0,0.0,0.0,0.0,0.0,0.0,0.0,0.0,0.0,0.0,0.0,0.0,0.0,0.0,0.0,0.0,0.0,0.0,0.0,0.0,0.0,0.0,0.0,0.0,0.0,0.0,0.0,0.0,0.0,0.0,0.0,0.0,0.0,0.0,0.0,0.0,0.0,0.0,0.0,0.0,0.0,0.0,0.0,0.0,0.0,0.0,0.0,0.0,0.0,0.0,0.0,0.0,0.0,0.0,0.0,0.0,0.0,0.0,0.0,0.0,0.0,0.0,0.0,0.0,0.0,0.0,0.0,0.0,0.0,0.0,0.0,0.0,0.0,0.0,0.0,0.0,0.0,0.0,0.0,0.0,0.0,0.0,0.0,0.0,0.0,0.0,0.0,0.0,0.0,0.0,0.0,0.0,0.0,0.0,0.0,0.0,0.0,0.0,0.0,0.0,0.0,0.0,-3.0799,-3.0799,-3.0799,-3.0799,-3.0799,-3.0799,-3.0799,0.0,0.0,0.0,0.0,0.0,0.0,0.0,0.0,0.0,0.0,0.0,0.0,0.0,0.0,0.0,0.0,0.0,0.0,0.0,0.0,0.0,0.0,0.0,0.0,0.0,0.0,0.0,0.0,0.0,0.0,0.0,0.0,0.0,0.0,0.0,0.0,0.0,0.0,0.0,0.0,0.0,0.0,0.0,0.0,0.0,0.0,0.0,0.0,0.0,0.0,0.0,0.0,0.0,0.0,0.0,0.0,0.0,0.0,0.0,0.0,0.0,0.0,0.0,0.0,0.0,0.0,0.0,0.0,0.0,0.0,0.0,0.0,0.0,0.0,0.0,0.0,0.0,0.0,0.0,0.0,0.0,0.0,0.0,0.0,0.0,0.0,0.0,0.0,0.0,0.0,0.0,0.0,0.0,0.0,0.0,0.0,0.0,0.0,0.0,0.0,0.0,0.0,0.0,0.0,0.0,0.0,0.0,0.0,0.0,-3.0799,-3.0799,-3.0799,-3.0799,-3.0799,-3.0799,0.0,0.0,0.0,0.0,0.0,0.0,0.0,0.0,0.0,0.0,0.0,0.0,0.0,0.0,0.0,0.0,0.0,0.0,0.0,0.0,0.0,0.0,0.0,0.0,0.0,0.0,0.0,0.0,0.0,0.0,0.0,0.0,0.0,0.0,0.0,0.0,0.0,0.0,0.0,0.0,0.0,0.0,0.0,0.0,0.0,0.0,0.0,0.0,0.0,0.0,0.0,0.0,0.0,0.0,0.0,0.0,0.0,0.0,0.0,0.0,0.0,0.0,0.0,0.0,0.0,0.0,0.0,0.0,0.0,0.0,0.0,0.0,0.0,0.0,0.0,0.0,0.0,0.0,0.0,0.0,0.0,0.0,0.0,0.0,0.0,0.0,0.0,0.0,0.0,0.0,0.0,0.0,0.0,0.0,0.0,0.0,0.0,0.0,0.0,0.0,0.0,0.0,0.0,0.0,0.0,0.0,0.0,0.0,0.0,-3.0799,-3.0799,-3.0799,-3.0799,-3.0799,-3.0799,-3.0799,0.0,0.0,0.0,0.0,0.0,0.0,0.0,0.0,0.0,0.0,0.0,0.0,0.0,0.0,0.0,0.0,0.0,0.0,0.0,0.0,0.0,0.0,0.0,0.0,0.0,0.0,0.0,0.0,0.0,0.0,0.0,0.0,0.0,0.0,0.0,0.0,0.0,0.0,0.0,0.0,0.0,0.0,0.0,0.0,0.0,0.0,0.0,0.0,0.0,0.0,0.0,0.0,0.0,0.0,0.0,0.0,0.0,0.0,0.0,0.0,0.0,0.0,0.0,0.0,0.0,0.0,0.0,0.0,0.0,0.0,0.0,0.0,0.0,0.0,0.0,0.0,0.0,0.0,0.0,0.0,0.0,0.0,0.0,0.0,0.0,0.0,0.0,0.0,0.0,0.0,0.0,0.0,0.0,0.0,0.0,0.0,0.0,0.0,0.0,0.0,0.0,0.0,0.0,0.0,0.0,0.0,0.0,0.0,-3.0799,-3.0799,-3.0799,-3.0799,-3.0799,-3.0799,0.0,0.0,0.0,0.0,0.0,0.0,0.0,0.0,0.0,0.0,0.0,0.0,0.0,0.0,0.0,0.0,0.0,0.0,0.0,0.0,0.0,0.0,0.0,0.0,0.0,0.0,0.0,0.0,0.0,0.0,0.0,0.0,0.0,0.0,0.0,0.0,0.0,0.0,0.0,0.0,0.0,0.0,0.0,0.0,0.0,0.0,0.0,0.0,0.0,0.0,0.0,0.0,0.0,0.0,0.0,0.0,0.0,0.0,0.0,0.0,0.0,0.0,0.0,0.0,0.0,0.0,0.0,0.0,0.0,0.0,0.0,0.0,0.0,0.0,0.0,0.0,0.0,0.0,0.0,0.0,0.0,0.0,0.0,0.0,0.0,0.0,0.0,0.0,0.0,0.0,0.0,0.0,0.0,0.0,0.0,0.0,0.0,0.0,0.0,0.0,0.0,0.0,0.0,0.0,0.0,0.0,0.0,0.0,0.0,-3.0799,-3.0799,-3.0799,-3.0799,-3.0799,-3.0799,0.0,0.0,0.0,0.0,0.0,0.0,0.0,0.0,0.0,0.0,0.0,0.0,0.0,0.0,0.0,0.0,0.0,0.0,0.0,0.0,0.0,0.0,0.0,0.0,0.0,0.0,0.0,0.0,0.0,0.0,0.0,0.0,0.0,0.0,0.0,0.0,0.0,0.0,0.0,0.0,0.0,0.0,0.0,0.0,0.0,0.0,0.0,0.0,0.0,0.0,0.0,0.0,0.0,0.0,0.0,0.0,0.0,0.0,0.0,0.0,0.0,0.0,0.0,0.0,0.0,0.0,0.0,0.0,0.0,0.0,0.0,0.0,0.0,0.0,0.0,0.0,0.0,0.0,0.0,0.0,0.0,0.0,0.0,0.0,0.0,0.0,0.0,0.0,0.0,0.0,0.0,0.0,0.0,0.0,0.0,0.0,0.0,0.0,0.0,0.0,0.0,0.0,0.0,0.0,0.0,0.0,0.0,0.0,-3.0799,-3.0799,-3.0799,-3.0799,-3.0799,-3.0799,-3.0799,0.0,0.0,0.0,0.0,0.0,0.0,0.0,0.0,0.0,0.0,0.0,0.0,0.0,0.0,0.0,0.0,0.0,0.0,0.0,0.0,0.0,0.0,0.0,0.0,0.0,0.0,0.0,0.0,0.0,0.0,0.0,0.0,0.0,0.0,0.0,0.0,0.0,0.0,0.0,0.0,0.0,0.0,0.0,0.0,0.0,0.0,0.0,0.0,0.0,0.0,0.0,0.0,0.0,0.0,0.0,0.0,0.0,0.0,0.0,0.0,0.0,0.0,0.0,0.0,0.0,0.0,0.0,0.0,0.0,0.0,0.0,0.0,0.0,0.0,0.0,0.0,0.0,0.0,0.0,0.0,0.0,0.0,0.0,0.0,0.0,0.0,0.0,0.0,0.0,0.0,0.0,0.0,0.0,0.0,0.0,0.0,0.0,0.0,0.0,0.0,0.0,0.0,0.0,0.0,0.0,0.0,0.0,0.0,-3.0799,-3.0799,-3.0799,-3.0799,-3.0799,-3.0799,-3.0799,0.0,0.0,0.0,0.0,0.0,0.0,0.0,0.0,0.0,0.0,0.0,0.0,0.0,0.0,0.0,0.0,0.0,0.0,0.0,0.0,0.0,0.0,0.0,0.0,0.0,0.0,0.0,0.0,0.0,0.0,0.0,0.0,0.0,0.0,0.0,0.0,0.0,0.0,0.0,0.0,0.0,0.0,0.0,0.0,0.0,0.0,0.0,0.0,0.0,0.0,0.0,0.0,0.0,0.0,0.0,0.0,0.0,0.0,0.0,0.0,0.0,0.0,0.0,0.0,0.0,0.0,0.0,0.0,0.0,0.0,0.0,0.0,0.0,0.0,0.0,0.0,0.0,0.0,0.0,0.0,0.0,0.0,0.0,0.0,0.0,0.0,0.0,0.0,0.0,0.0,0.0,0.0,0.0,0.0,0.0,0.0,0.0,0.0,0.0,0.0,0.0,0.0,0.0,0.0,0.0,0.0,0.0,0.0,-3.0799,-3.0799,-3.0799,-3.0799,-3.0799,-3.0799,-3.0799,0.0,0.0,0.0,0.0,0.0,0.0,0.0,0.0,0.0,0.0,0.0,0.0,0.0,0.0,0.0,0.0,0.0,0.0,0.0,0.0,0.0,0.0,0.0,0.0,0.0,0.0,0.0,0.0,0.0,0.0,0.0,0.0,0.0,0.0,0.0,0.0,0.0,0.0,0.0,0.0,0.0,0.0,0.0,0.0,0.0,0.0,0.0,0.0,-2.5605,0.0,0.0,0.0,0.0,0.0,0.0,0.0,0.0,0.0,0.0,0.0,0.0,0.0,0.0,0.0,0.0,0.0,0.0,0.0,0.0,0.0,0.0,0.0,0.0,0.0,0.0,0.0,0.0,0.0,0.0,0.0,0.0,0.0,0.0,0.0,0.0,0.0,0.0,0.0,0.0,0.0,0.0,0.0,0.0,0.0,0.0,0.0,0.0,0.0,0.0,0.0,0.0,0.0,0.0,0.0,0.0,0.0,0.0,0.0,-3.0799,-3.0799,-3.0799,-3.0799,-3.0799,-3.0799,-3.0799,0.0,0.0,0.0,0.0,0.0,0.0,0.0,0.0,0.0,0.0,0.0,0.0,0.0,0.0,0.0,0.0,0.0,0.0,0.0,0.0,0.0,0.0,0.0,0.0,0.0,0.0,0.0,0.0,0.0,0.0,0.0,0.0,0.0,0.0,0.0,0.0,0.0,0.0,0.0,0.0,0.0,0.0,0.0,0.0,0.0,0.0,0.0,0.0,0.0,0.0,0.0,0.0,0.0,0.0,0.0,0.0,0.0,0.0,0.0,0.0,0.0,0.0,0.0,0.0,0.0,0.0,0.0,0.0,0.0,0.0,0.0,0.0,0.0,0.0,0.0,0.0,0.0,0.0,0.0,0.0,0.0,0.0,0.0,0.0,0.0,0.0,0.0,0.0,0.0,0.0,0.0,0.0,0.0,0.0,0.0,0.0,0.0,0.0,0.0,0.0,0.0,0.0,0.0,0.0,0.0,0.0,0.0,-3.1213,-3.1188,-3.1213,-3.1188,-3.1213,-3.1193,-3.1076,-3.0998,-3.0998,0.0,0.0,0.0,0.0,0.0,0.0,0.0,0.0,0.0,0.0,0.0,0.0,0.0,0.0,0.0,0.0,0.0,0.0,0.0,0.0,0.0,0.0,0.0,0.0,0.0,0.0,0.0,0.0,0.0,0.0,0.0,0.0,0.0,0.0,0.0,0.0,0.0,0.0,-2.5703,-2.5703,0.0,0.0,0.0,0.0,0.0,0.0,0.0,0.0,-2.597,0.0,0.0,0.0,0.0,0.0,0.0,0.0,0.0,0.0,0.0,0.0,0.0,0.0,0.0,0.0,0.0,0.0,0.0,0.0,0.0,0.0,0.0,0.0,0.0,0.0,0.0,0.0,0.0,0.0,0.0,0.0,0.0,0.0,0.0,0.0,0.0,0.0,0.0,0.0,0.0,0.0,0.0,0.0,0.0,0.0,0.0,0.0,0.0,0.0,0.0,0.0,0.0,0.0,0.0,0.0,0.0,-3.2966,-3.2976,-3.2966,-3.2966,-3.2966,-3.2986,-3.2947,-3.2265,-3.188,-3.185,0.0,0.0,0.0,0.0,0.0,0.0,0.0,0.0,0.0,0.0,0.0,0.0,0.0,0.0,0.0,0.0,0.0,0.0,0.0,0.0,0.0,0.0,0.0,0.0,0.0,0.0,0.0,0.0,0.0,0.0,0.0,0.0,0.0,0.0,0.0,0.0,0.0,0.0,0.0,-2.5703,-2.5663,0.0,0.0,0.0,0.0,0.0,0.0,0.0,0.0,-2.7672,0.0,0.0,0.0,0.0,0.0,0.0,0.0,0.0,0.0,0.0,0.0,0.0,0.0,0.0,0.0,0.0,0.0,0.0,0.0,0.0,0.0,0.0,0.0,0.0,0.0,0.0,0.0,0.0,0.0,0.0,0.0,0.0,0.0,0.0,0.0,0.0,0.0,0.0,0.0,0.0,0.0,0.0,0.0,0.0,0.0,0.0,0.0,0.0,0.0,0.0,0.0,0.0,0.0,0.0,0.0,-3.339,-3.338,-3.338,-3.338,-3.338,-3.338,-3.338,-3.2991,-3.2771,0.0,0.0,0.0,0.0,0.0,0.0,0.0,0.0,0.0,0.0,0.0,0.0,0.0,0.0,0.0,0.0,0.0,0.0,0.0,0.0,0.0,0.0,0.0,0.0,0.0,0.0,0.0,0.0,0.0,0.0,0.0,0.0,0.0,0.0,0.0,0.0,0.0,0.0,0.0,0.0,-2.6324,-2.6475,-2.6897,0.0,0.0,0.0,0.0,0.0,0.0,-2.8106,-2.8092,0.0,0.0,0.0,0.0,0.0,0.0,0.0,0.0,0.0,0.0,0.0,0.0,0.0,0.0,0.0,0.0,0.0,0.0,0.0,0.0,0.0,0.0,0.0,0.0,0.0,0.0,0.0,0.0,0.0,0.0,0.0,0.0,0.0,0.0,0.0,0.0,0.0,0.0,0.0,0.0,0.0,0.0,0.0,0.0,0.0,0.0,0.0,0.0,0.0,0.0,0.0,0.0,0.0,0.0,0.0,-3.3921,-3.3907,-3.3902,-3.3907,-3.3902,-3.3902,-3.3882,-3.3731,-3.3637,0.0,0.0,0.0,0.0,0.0,0.0,0.0,0.0,0.0,0.0,0.0,0.0,0.0,0.0,0.0,0.0,0.0,0.0,0.0,0.0,0.0,0.0,0.0,0.0,0.0,0.0,0.0,0.0,0.0,0.0,0.0,0.0,0.0,0.0,0.0,0.0,0.0,0.0,0.0,0.0,0.0,-2.7413,-2.8095,-2.8197,0.0,0.0,0.0,0.0,-2.8592,-2.8623,0.0,0.0,0.0,0.0,0.0,0.0,0.0,0.0,0.0,0.0,0.0,0.0,0.0,0.0,0.0,0.0,0.0,0.0,0.0,0.0,0.0,0.0,0.0,0.0,0.0,0.0,0.0,0.0,0.0,0.0,0.0,0.0,0.0,0.0,0.0,0.0,0.0,0.0,0.0,0.0,0.0,0.0,0.0,0.0,0.0,0.0,0.0,0.0,0.0,0.0,0.0,0.0,0.0,0.0,0.0,0.0,-3.5692,-3.5641,-3.5597,-3.5597,-3.5597,-3.5616,-3.5597,-3.4876,-3.4445,0.0,0.0,0.0,0.0,0.0,0.0,0.0,0.0,0.0,0.0,0.0,0.0,0.0,0.0,0.0,0.0,0.0,0.0,0.0,0.0,0.0,0.0,0.0,0.0,0.0,0.0,0.0,0.0,0.0,0.0,0.0,0.0,0.0,0.0,0.0,0.0,0.0,0.0,0.0,0.0,0.0,-2.809,-2.8188,-2.8145,-2.8379,0.0,0.0,-2.9523,-3.0275,-3.0404,0.0,0.0,0.0,0.0,0.0,0.0,0.0,0.0,0.0,0.0,0.0,0.0,0.0,0.0,0.0,0.0,0.0,0.0,0.0,0.0,0.0,0.0,0.0,0.0,0.0,0.0,0.0,0.0,0.0,0.0,0.0,0.0,0.0,0.0,0.0,0.0,0.0,0.0,0.0,0.0,0.0,0.0,0.0,0.0,0.0,0.0,0.0,0.0,0.0,0.0,0.0,0.0,0.0,0.0,0.0,-3.5949,-3.5946,-3.5914,-3.5889,-3.5889,-3.5889,-3.5889,-3.5889,-3.5538,-3.5362,0.0,0.0,0.0,0.0,0.0,0.0,0.0,0.0,0.0,0.0,0.0,0.0,0.0,0.0,0.0,0.0,0.0,0.0,0.0,0.0,0.0,0.0,0.0,0.0,0.0,0.0,0.0,0.0,0.0,0.0,0.0,0.0,0.0,0.0,0.0,0.0,0.0,0.0,0.0,0.0,0.0,0.0,-2.9549,-2.9599,0.0,0.0,0.0,-3.0273,-3.0656,0.0,0.0,0.0,0.0,0.0,0.0,0.0,0.0,0.0,0.0,0.0,0.0,0.0,0.0,0.0,0.0,0.0,0.0,0.0,0.0,0.0,0.0,0.0,0.0,0.0,0.0,0.0,0.0,0.0,0.0,0.0,0.0,0.0,0.0,0.0,0.0,0.0,0.0,0.0,0.0,0.0,0.0,0.0,0.0,0.0,0.0,0.0,0.0,0.0,0.0,0.0,0.0,0.0,0.0,0.0,0.0,0.0,-3.5913,-3.5914,-3.5889,-3.5889,-3.5889,-3.5889,-3.5889,-3.5889,0.0,0.0,0.0,0.0,0.0,0.0,0.0,0.0,0.0,0.0,0.0,0.0,0.0,0.0,0.0,0.0,0.0,0.0,0.0,0.0,0.0,0.0,0.0,0.0,0.0,0.0,0.0,-2.7469,0.0,0.0,0.0,0.0,0.0,0.0,0.0,0.0,0.0,0.0,0.0,0.0,0.0,0.0,-3.0029,-3.0607,-3.0697,-3.0709,0.0,0.0,-3.07,-3.0707,-3.0707,-3.068,0.0,0.0,0.0,0.0,0.0,0.0,0.0,0.0,0.0,0.0,0.0,0.0,0.0,0.0,0.0,0.0,0.0,0.0,0.0,0.0,0.0,0.0,0.0,0.0,0.0,0.0,0.0,0.0,0.0,0.0,0.0,0.0,0.0,0.0,0.0,0.0,0.0,0.0,0.0,0.0,0.0,0.0,0.0,0.0,0.0,0.0,0.0,0.0,0.0,0.0,0.0,0.0,0.0,0.0,-3.5935,-3.5989,-3.5927,-3.5889,-3.5889,-3.5889,-3.5889,-3.5889,-3.5889,-3.5896,0.0,0.0,0.0,0.0,0.0,0.0,0.0,0.0,0.0,0.0,0.0,0.0,0.0,0.0,0.0,0.0,0.0,0.0,0.0,0.0,0.0,0.0,0.0,0.0,0.0,0.0,0.0,0.0,0.0,0.0,0.0,0.0,0.0,0.0,0.0,0.0,0.0,0.0,0.0,0.0,0.0,-3.0647,-3.0685,-3.0697,-3.0709,0.0,-3.0695,-3.0707,-3.071,-3.071,-3.0676,-3.0618,0.0,0.0,0.0,0.0,0.0,0.0,0.0,0.0,0.0,0.0,0.0,0.0,0.0,0.0,0.0,0.0,0.0,0.0,0.0,0.0,0.0,0.0,0.0,0.0,0.0,0.0,0.0,0.0,0.0,0.0,0.0,0.0,0.0,0.0,0.0,0.0,0.0,0.0,0.0,0.0,0.0,0.0,0.0,0.0,0.0,0.0,0.0,0.0,0.0,0.0,0.0,0.0,0.0,-3.5986,-3.601,-3.5926,-3.5895,-3.5894,-3.5895,-3.5895,-3.5889,-3.5889,-3.588,0.0,0.0,0.0,0.0,0.0,0.0,0.0,0.0,0.0,0.0,0.0,0.0,0.0,0.0,0.0,0.0,0.0,0.0,0.0,0.0,0.0,0.0,0.0,0.0,0.0,0.0,0.0,0.0,-2.9214,-2.9117,-2.9641,0.0,0.0,0.0,0.0,0.0,0.0,0.0,0.0,0.0,0.0,-3.0747,-3.07,-3.07,0.0,0.0,-3.0695,-3.0707,-3.071,-3.069,-3.0703,-3.0673,-3.0637,0.0,0.0,0.0,0.0,0.0,0.0,0.0,0.0,0.0,0.0,0.0,0.0,0.0,0.0,0.0,0.0,0.0,0.0,0.0,0.0,0.0,0.0,0.0,0.0,0.0,0.0,0.0,0.0,0.0,0.0,0.0,0.0,0.0,0.0,0.0,0.0,0.0,0.0,0.0,0.0,0.0,0.0,0.0,0.0,0.0,0.0,0.0,0.0,0.0,0.0,0.0,0.0,-3.601,-3.601,-3.5949,-3.5884,-3.589,-3.588,-3.5884,-3.589,-3.5894,-3.589,0.0,0.0,0.0,0.0,0.0,0.0,0.0,0.0,0.0,0.0,0.0,0.0,0.0,0.0,0.0,0.0,0.0,0.0,0.0,0.0,0.0,0.0,0.0,0.0,0.0,0.0,0.0,0.0,-3.0166,-3.003,-3.0632,0.0,0.0,0.0,0.0,0.0,0.0,0.0,0.0,0.0,0.0,-3.0771,-3.0711,-3.0697,-3.0792,-3.1047,-3.1084,-3.1181,-3.1428,-3.1467,-3.146,-3.1457,0.0,0.0,0.0,0.0,0.0,0.0,0.0,0.0,0.0,0.0,0.0,0.0,0.0,0.0,0.0,0.0,0.0,0.0,0.0,0.0,0.0,0.0,0.0,0.0,0.0,0.0,0.0,-3.3249,0.0,0.0,-3.3215,0.0,0.0,0.0,0.0,0.0,0.0,0.0,0.0,0.0,0.0,0.0,0.0,0.0,0.0,0.0,0.0,0.0,0.0,0.0,0.0,0.0,0.0,-3.601,-3.601,-3.5931,-3.589,-3.5896,-3.589,-3.589,-3.5896,-3.589,-3.589,-3.588,0.0,0.0,0.0,0.0,0.0,0.0,0.0,0.0,0.0,0.0,0.0,0.0,0.0,0.0,0.0,0.0,0.0,0.0,0.0,0.0,0.0,0.0,0.0,0.0,0.0,0.0,-3.0704,-3.0671,-3.0671,0.0,0.0,0.0,0.0,0.0,0.0,0.0,0.0,0.0,-3.0796,-3.0801,-3.0791,-3.073,-3.0721,-3.107,-3.1863,-3.1972,-3.2264,-3.3079,-3.3196,-3.3227,0.0,0.0,0.0,0.0,0.0,0.0,0.0,0.0,0.0,0.0,0.0,0.0,0.0,0.0,0.0,0.0,0.0,0.0,0.0,0.0,0.0,0.0,0.0,0.0,0.0,0.0,0.0,-3.3363,-3.3367,0.0,0.0,0.0,0.0,0.0,0.0,0.0,0.0,0.0,0.0,0.0,-3.5559,-3.553,0.0,0.0,0.0,0.0,0.0,0.0,0.0,0.0,0.0,0.0,0.0,0.0,-3.601,-3.5991,-3.5949,-3.5884,-3.589,-3.588,-3.5884,-3.589,-3.5894,-3.589,-3.588,0.0,0.0,0.0,0.0,0.0,0.0,0.0,0.0,0.0,0.0,0.0,0.0,0.0,0.0,0.0,0.0,0.0,0.0,0.0,0.0,0.0,0.0,0.0,0.0,0.0,-3.0751,0.0,0.0,0.0,0.0,0.0,0.0,0.0,0.0,0.0,0.0,0.0,-3.0771,-3.0801,-3.1301,-3.1647,-3.1592,-3.2065,-3.2556,0.0,0.0,0.0,0.0,0.0,0.0,0.0,0.0,0.0,0.0,0.0,0.0,0.0,0.0,-3.2307,-3.1985,-3.1879,-3.1826,-3.1785,0.0,0.0,0.0,0.0,0.0,0.0,0.0,0.0,0.0,0.0,0.0,0.0,0.0,0.0,-3.4277,-3.4297,-3.4316,0.0,0.0,0.0,0.0,0.0,0.0,0.0,0.0,-3.5982,-3.5974,-3.5974,-3.5916,-3.5919,-3.5974,-3.5955,-3.5964,0.0,0.0,0.0,0.0,0.0,0.0,0.0,0.0,-3.5989,-3.5964,-3.5923,-3.588,-3.589,-3.588,-3.588,-3.589,-3.5899,-3.588,-3.5884,-3.5896,-3.5884,0.0,0.0,0.0,0.0,0.0,0.0,0.0,0.0,0.0,0.0,0.0,0.0,0.0,0.0,0.0,0.0,0.0,0.0,0.0,0.0,0.0,0.0,0.0,-3.164,0.0,0.0,0.0,0.0,0.0,0.0,0.0,0.0,0.0,-3.1278,-3.147,-3.1695,-3.1711,-3.2176,-3.2494,-3.2445,0.0,0.0,0.0,0.0,0.0,0.0,0.0,-3.4159,-3.4104,-3.4104,-3.4104,-3.4096,-3.4124,-3.4068,-3.3974,0.0,0.0,-3.3059,-3.2856,-3.28,-3.282,-3.2807,-3.2795,-3.2782,-3.282,-3.287,0.0,0.0,0.0,0.0,-3.5896,0.0,0.0,0.0,-3.5875,-3.5878,0.0,-3.5932,0.0,0.0,0.0,0.0,-3.5995,-3.5975,0.0,0.0,-3.5895,-3.5894,-3.5889,-3.5889,-3.5889,-3.5889,-3.5889,-3.589,-3.5923,-3.5964,0.0,0.0,0.0,0.0,0.0,0.0,-3.5964,-3.5903,-3.5929,-3.5948,-3.5955,-3.5987,-3.5987,-3.5955,-3.5909,-3.5889,-3.5889,-3.5884,-3.588,-3.59,-3.5942,0.0,0.0,0.0,0.0,0.0,0.0,0.0,0.0,0.0,0.0,0.0,0.0,0.0,0.0,0.0,0.0,0.0,0.0,0.0,0.0,-3.3298,0.0,0.0,0.0,0.0,0.0,0.0,0.0,0.0,0.0,-3.3124,-3.2313,-3.2795,-3.3326,-3.3359,0.0,0.0,0.0,0.0,-3.3662,-3.4439,-3.4536,-3.4828,-3.5643,-3.5779,-3.5752,-3.5752,0.0,0.0,-3.5771,-3.5771,-3.5732,-3.5771,-3.5713,-3.5294,-3.3693,-3.3306,-3.3179,-3.3149,-3.3216,-3.3087,-3.3045,-3.3323,-3.3374,-3.7393,0.0,0.0,0.0,0.0,-3.5884,-3.5921,-3.5955,-3.5976,-3.5951,-3.5932,-3.5913,0.0,0.0,0.0,0.0,0.0,0.0,-3.5945,-3.5903,-3.5892,-3.5895,-3.5889,-3.5889,-3.5889,-3.5889,-3.5889,-3.5894,-3.5885,-3.5919,-3.5949,-3.6013,0.0,0.0,0.0,0.0,-3.5929,-3.5919,-3.6514,-3.683,-3.684,-3.7453,-3.7453,-3.686,-3.6226,-3.5889,-3.5889,-3.588,-3.5885,-3.5885,-3.5919,0.0,0.0,0.0,0.0,0.0,0.0,0.0,0.0,0.0,0.0,0.0,0.0,0.0,0.0,0.0,0.0,0.0,0.0,0.0,-3.3374,-3.3379,-3.3375,0.0,0.0,0.0,0.0,0.0,0.0,0.0,0.0,0.0,-3.3984,-3.3612,-3.3355,0.0,0.0,-3.4211,-3.4165,-3.4688,-3.5177,-3.5391,-3.541,0.0,-3.576,-3.5791,-3.5791,-3.5791,-3.5791,-3.5791,-3.5791,-3.5791,-3.5791,-3.5791,-3.5791,-3.5624,-3.5227,-3.5036,-3.4999,-3.4999,-3.499,-3.4981,-3.4982,-3.503,-3.503,-4.0033,-3.9179,-3.8133,-3.7409,-3.693,-3.6946,-3.6953,-3.6983,-3.6994,-3.6967,-3.6937,-3.6918,-3.6953,-3.6997,-3.7003,0.0,0.0,0.0,-3.6967,-3.6937,-3.6937,-3.6923,-3.6941,-3.6921,-3.6941,-3.6921,-3.6941,-3.6941,-3.6921,-3.6921,-3.6947,-3.6964,0.0,-3.6645,-3.6977,-3.6944,-3.693,-3.6957,-3.7459,-3.772,-3.772,-3.8227,-3.8246,-3.774,-3.7214,-3.6766,-3.6434,-3.6415,-3.624,-3.5908,-3.5889,-3.5889,0.0,0.0,0.0,0.0,0.0,0.0,0.0,0.0,0.0,0.0,0.0,-3.4443,-3.4426,0.0,0.0,0.0,-3.4429,-3.4429,-3.4432,-3.441,0.0,0.0,0.0,0.0,0.0,0.0,0.0,-3.4331,-3.4844,-3.5209,-3.5191,-3.4726,-3.4386,-3.4354,-3.4769,-3.5067,-3.503,0.0,-3.5791,-3.5791,-3.5791,-3.5791,-3.5791,-3.5791,-3.5791,-3.5791,-3.5791,-3.5791,-3.5791,-3.5791,-3.5791,-3.5791,-3.5791,-3.5791,-3.5791,-3.5791,-3.5791,-3.5791,-3.5791,-3.581,-3.5803,-3.5803,-3.5775,-4.3173,-4.2275,-3.992,-3.881,-3.86,-3.8541,-3.8505,-3.8511,-3.8506,-3.8517,-3.8519,-3.8519,-3.8522,-3.8514,-3.8517,0.0,-3.8514,-3.8514,-3.8497,-3.8519,-3.8519,-3.8519,-3.8519,-3.85,-3.8519,-3.85,-3.8519,-3.8519,-3.848,-3.85,-3.8539,-3.8578,-3.7815,-3.7769,-3.8475,-3.8514,-3.8517,-3.85,-3.8558,-3.8656,-3.8714,-3.8636,-3.8617,-3.8597,-3.8539,-3.811,-3.735,-3.7311,-3.6902,-3.6064,-3.6006,-3.5967,-3.5908,0.0,0.0,0.0,0.0,0.0,0.0,0.0,0.0,0.0,0.0,0.0,0.0,0.0,0.0,0.0,-3.601,0.0,-3.601,-3.5953,0.0,0.0,0.0,-3.5882,-3.5921,-3.5897,-3.5884,-3.5898,0.0,0.0,-3.601,-3.5937,-3.5896,-3.5893,-3.5833,-3.5791,-3.5791,-3.5771,-3.5791,-3.5791,-3.5791,-3.5791,-3.5791,-3.5791,-3.5791,-3.5791,-3.5791,-3.5791,-3.5791,-3.5791,-3.5791,-3.5791,-3.5791,-3.5791,-3.5791,-3.5791,-3.5791,-3.5791,-3.5791,-3.581,-3.5803,-3.5803,-3.5775,-4.3481,-4.3266,-4.2655,-4.1261,-3.944,-3.8778,-3.8514,-3.8506,-3.8514,-3.8517,-3.8519,-3.8519,-3.8505,-3.8516,-3.8507,-3.8502,-3.8516,-3.8516,-3.8511,-3.8519,-3.8519,-3.8519,-3.8519,-3.8519,-3.8519,-3.8519,-3.8519,-3.8519,-3.8519,-3.8519,-3.885,-3.9454,-3.9291,-3.8959,-3.8536,-3.8516,-3.8511,-3.8519,-3.9143,-3.9805,-4.0429,-3.9825,-3.9493,-3.9474,-3.885,-3.8402,-3.8188,-3.8188,-3.7779,-3.6941,-3.6883,-3.659,-3.5928,-3.5889,0.0,0.0,0.0,0.0,0.0,0.0,0.0,0.0,0.0,-3.6013,-3.6017,0.0,-3.6004,0.0,-3.6007,-3.601,-3.601,-3.5979,0.0,0.0,-3.5929,-3.5911,-3.597,-3.5923,-3.5918,-3.5962,-3.5977,-3.601,-3.601,-3.5935,-3.5894,-3.5896,-3.5852,-3.5791,-3.5791,-3.5791,-3.5791,-3.5791,-3.5791,-3.5791,-3.5791,-3.5791,-3.5791,-3.5791,-3.5791,-3.5791,-3.5791,-3.5791,-3.5791,-3.5791,-3.5791,-3.5791,-3.5791,-3.5791,-3.5791,-3.5791,-3.5791,-3.5791,-3.5803,-3.5803,-3.5775,-4.4773,-4.4715,-4.4345,-4.3356,-4.2011,-4.1133,-4.0749,-4.0774,-4.0774,-4.0764,-4.076,-4.076,-4.0779,-4.0779,-4.076,-4.076,-4.0779,-4.076,-4.0779,-4.0779,-4.076,-4.076,-4.0779,-4.0779,-4.0565,-4.0195,-4.0195,-4.0019,-3.9669,-3.9669,-3.9902,-4.039,-4.039,-4.0136,-3.9688,-3.9669,-3.9649,-3.9669,-4.0136,-4.0604,-4.1071,-4.0623,-4.039,-4.037,-3.9922,-3.9474,-3.9084,-3.9065,-3.8675,-3.7818,-3.7779,-3.7389,-3.6532,-3.6473,-3.6298,0.0,0.0,0.0,0.0,0.0,0.0,0.0,0.0,0.0,0.0,0.0,-3.6004,-3.6004,-3.601,-3.601,-3.601,-3.601,-3.601,-3.601,-3.5971,-3.5952,-3.601,-3.5971,-3.5952,-3.5991,-3.601,-3.601,-3.6013,-3.6285,-3.6484,-3.6498,-3.6772,-3.6662,-3.5962,-3.5791,-3.5791,-3.5791,-3.5791,-3.5791,-3.5791,-3.5791,-3.5791,-3.5791,-3.5791,-3.5791,-3.5791,-3.5791,-3.5791,-3.5791,-3.5791,-3.5791,-3.5791,-3.5791,-3.5791,-3.5791,-3.5791,-3.5791,-3.5801,-3.5793,-3.5793,-4.6196,-4.6137,-4.5377,-4.5066,-4.5007,-4.4247,-4.3792,-4.3617,-4.3617,-4.3617,-4.3617,-4.3617,-4.3617,-4.3617,-4.3617,-4.3617,-4.3617,-4.3617,-4.3617,-4.3617,-4.3617,-4.3617,-4.3617,-4.3598,-4.3215,-4.2474,-4.2468,-4.2098,-4.1442,-4.1422,-4.1422,-4.1422,-4.1403,-4.1422,-4.1422,-4.1422,-4.1305,-4.111,-4.111,-4.111,-4.111,-4.111,-4.111,-4.111,-4.111,-4.074,-4.0,-3.9961,-3.9571,-3.8733,-3.8675,-3.8266,-3.7428,-3.737,-3.698,0.0,-3.607,0.0,0.0,0.0,0.0,0.0,0.0,0.0,0.0,-3.6004,-3.601,-3.601,-3.601,-3.601,-3.601,-3.601,-3.601,-3.601,-3.6108,-3.6166,-3.6166,-3.6264,-3.6323,-3.6342,-3.6323,-3.6342,-3.6423,-3.6947,-3.7382,-3.7402,-3.787,-3.7756,-3.6533,-3.6239,-3.627,-3.6145,-3.6145,-3.6328,-3.627,-3.6118,-3.6012,-3.5985,-3.5868,-3.581,-3.5791,-3.5791,-3.5791,-3.5791,-3.5791,-3.5849,-3.5926,-3.5993,-3.6051,-3.6226,-3.6284,-3.6168,-3.5868,-3.5791,-3.5791,-4.6196,-4.6176,-4.602,-4.5942,-4.5923,-4.5767,-4.491,-4.3617,-4.3617,-4.3617,-4.3617,-4.3617,-4.3617,-4.3617,-4.3617,-4.3617,-4.3617,-4.3617,-4.3617,-4.3617,-4.3617,-4.3617,-4.3617,-4.3617,-4.3526,-4.3344,-4.3364,-4.3266,-4.3137,-4.3137,-4.313,-4.3111,-4.313,-4.3111,-4.3137,0.0,0.0,0.0,-4.111,-4.111,-4.111,-4.111,-4.111,-4.111,-4.111,0.0,-4.0857,-4.0838,-4.0448,-3.961,-3.9552,0.0,0.0,0.0,0.0,0.0,0.0,0.0,0.0,0.0,0.0,0.0,-3.5962,-3.5986,-3.5919,-3.5966,-3.6017,-3.601,-3.601,-3.601,-3.601,-3.601,-3.601,-3.603,-3.6638,-3.7067,-3.7067,-3.7653,-3.8102,-3.8121,-3.8082,-3.8102,-3.8043,-3.8244,-3.8311,-3.8261,-3.8378,-3.8352,-3.8073,-3.7893,-3.7884,-3.7884,-3.7786,-3.7864,-3.7903,-3.7292,-3.6856,-3.6789,-3.6226,-3.5896,-3.5896,-3.5868,-3.5829,-3.5829,-3.5791,-3.6071,-3.6653,-3.6867,-3.7003,-3.7741,-3.7858,-3.7469,-3.6129,-3.581,-3.5791,-4.6196,-4.6196,-4.6196,-4.6196,0.0,-4.6663,-4.6352,-4.5494,-4.5066,-4.489,-4.489,-4.4871,-4.489,-4.4871,-4.489,-4.489,-4.489,-4.4871,-4.489,-4.489,-4.489,-4.489,-4.4871,-4.4871,-4.4656,-4.4247,-4.4247,-4.4033,-4.3617,-4.3617,-4.3617,-4.3617,-4.3617,-4.3617,-4.3617,-4.3617,-4.2981,-4.1714,-4.1695,-4.15,-4.113,-4.111,-4.111,-4.111,-4.111,0.0,0.0,0.0,0.0,0.0,0.0,0.0,0.0,-3.9143,0.0,-3.7915,-3.7843,-3.7634,-3.7225,-3.721,-3.721,-3.7186,-3.6826,-3.6426,-3.5977,-3.5981,-3.6009,-3.6024,-3.6398,-3.6632,-3.6657,-3.7028,-3.7282,-3.7321,-3.7672,-3.7946,-3.7985,-3.8316,-3.859,-3.8609,-3.8609,-3.8609,-3.8609,-3.898,-3.9161,-3.9172,-3.953,-3.9765,-3.9702,-3.898,-3.8448,-3.8428,-3.8467,-3.8448,-3.8424,-3.811,-3.7767,-3.7689,-3.7396,-3.7125,-3.7085,-3.7094,-3.6964,-3.6576,-3.6459,-3.6518,-3.644,-3.6789,-3.7256,-3.7683,-3.811,-3.8149,-3.7236,-3.7081,-3.71,-4.6663,-4.6663,-4.6663,-4.6663,-4.6702,-4.7423,-4.7715,-4.7676,-4.6956,0.0,0.0,-4.6644,-4.6566,-4.6429,-4.6429,-4.6332,-4.6196,-4.6196,-4.6196,-4.6196,-4.6196,-4.6196,-4.6196,-4.6196,-4.5806,-4.5144,-4.5144,-4.4754,-4.4091,-4.4072,-4.4052,-4.4072,-4.4052,-4.4072,-4.4072,-4.4072,-4.3643,-4.2786,-4.2611,-4.2221,-4.1578,-4.1539,-4.1481,-4.1325,-4.1325,-4.1247,-4.111,-4.111,-4.111,-4.111,-4.111,-4.0779,-4.0097,-4.0019,-3.9649,-3.8811,-3.8733,-3.8675,-3.8519,-3.8363,-3.8266,-3.8266,-3.7751,-3.7138,-3.6493,-3.6317,-3.6306,-3.643,-3.7097,-3.753,-3.7536,-3.8141,-3.8609,-3.8609,-3.8726,-3.8804,-3.8824,-3.8961,-3.9117,-3.9039,-3.9117,-3.9061,-3.9136,-3.9644,-4.0015,-4.0115,-4.0539,-4.1112,-4.0937,-3.9919,-3.9129,-3.9115,-3.9192,-3.9049,-3.8949,-3.8768,-3.8697,-3.872,-3.8531,-3.8422,-3.8422,-3.841,-3.8105,-3.7444,-3.7331,-3.7061,-3.6518,-3.6945,-3.7372,-3.7547,-3.811,-3.8674,-3.881,-3.8848,-3.8712,-4.8417,-4.8436,-4.8436,-4.8436,-4.8436,-4.8553,-4.8631,-4.8592,-4.8475,-4.8417,-4.8436,-4.8436,-4.8008,-4.7306,-4.7326,-4.6917,-4.6215,-4.6196,-4.6196,-4.6196,-4.6196,-4.6196,-4.6196,-4.6196,-4.6137,-4.602,-4.602,-4.5962,-4.5845,-4.5806,-4.5825,-4.5806,-4.5825,-4.5806,-4.5825,-4.5825,-4.5416,-4.4559,-4.3799,-4.3364,-4.3254,-4.3247,-4.2877,-4.2163,-4.2143,-4.1812,-4.1149,-4.113,-4.111,-4.111,-4.111,-4.1033,-4.0935,-4.0916,-4.0526,-3.9708,-3.961,-3.9298,-3.8558,-3.7818,-3.7389,-3.7409,-3.7954,-3.8263,-3.8131,-3.7496,-3.7448,-3.8141,-3.8316,-3.8414,-3.8414,-3.857,-3.8707,-3.8707,-3.9253,-3.9624,-3.9644,-4.0229,-4.0639,-4.062,-4.0737,-4.0678,-4.062,-4.0756,-4.0834,-4.0893,-4.098,-4.1116,-4.1062,-4.0915,-4.0741,-4.0716,-4.0721,-4.0722,-4.0487,-4.0049,-3.9686,-3.9627,-3.9036,-3.869,-3.8684,-3.8649,-3.8513,-3.826,-3.8213,-3.8136,-3.7953,-3.811,-3.8438,-3.8924,-3.9313,-3.9615,-4.0198,-4.0392,-4.0033,-4.8806,-4.8806,-4.8806,-4.8806,-4.8826,-4.9255,-4.9722,-5.0151,-5.0151,-4.9644,-4.8826,-4.8806,-4.8573,-4.8222,-4.8202,-4.7988,-4.7579,-4.7111,-4.6917,-4.6858,-4.6429,-4.6196,-4.6196,-4.6196,-4.6196,-4.6196,-4.6196,-4.6196,-4.6196,-4.6196,-4.6196,-4.6196,-4.6196,-4.6196,-4.6196,-4.6196,-4.6001,-4.5592,-4.4734,-4.4091,-4.3617,-4.3617,-4.3383,-4.302,-4.302,-4.2838,-4.2474,-4.2007,-4.1753,-4.1753,-4.1325,-4.111,-4.111,-4.111,-4.0916,-4.0526,-4.0506,-4.0351,-3.9941,-3.9552,-3.9318,-3.9318,-3.9226,-3.9433,-3.9897,-3.8712,-3.8116,-3.8518,-3.8951,-3.927,-3.9273,-3.9663,-3.9956,-3.9939,-4.0307,-4.0503,-4.0542,-4.0815,-4.1088,-4.1108,-4.1108,-4.1108,-4.1108,-4.1108,-4.1108,-4.1108,-4.1108,-4.1108,-4.1108,-4.1099,-4.1103,-4.1114,-4.1101,-4.1105,-4.1087,-4.0801,-4.0526,-4.0508,-4.015,-3.991,-3.9895,-3.9842,-3.9607,-3.9252,-3.9151,-3.8965,-3.8608,-3.8453,-3.8842,-3.9499,-3.9721,-4.003,-4.0684,-4.0924,-4.0616,-4.9372,-4.9352,-4.9352,-4.9352,-4.943,-5.0014,-5.0677,-5.1281,-5.1281,-5.056,-4.9469,-4.9372,-4.9274,-4.9079,-4.906,-4.8962,-4.8709,-4.8105,-4.7793,-4.7715,-4.6897,-4.6488,-4.6468,-4.6313,-4.6196,-4.6196,-4.6196,-4.6196,-4.6196,-4.6196,-4.6196,-4.6196,-4.6196,-4.6196,-4.6196,-4.6196,-4.6196,-4.6157,-4.5533,-4.4851,-4.4228,-4.4189,-4.4111,-4.3897,-4.3897,-4.3812,-4.3578,-4.2961,-4.2591,-4.2552,-4.1812,-4.1364,-4.1364,-4.1188,-4.111,-4.111,-4.111,-4.1013,-4.0838,-4.0994,-4.1013,-4.0799,-4.0357,-4.0388,-4.0894,-3.9886,-3.9097,-3.9165,-3.9724,-4.0102,-4.0168,-4.0639,-4.1166,-4.1342,-4.14,-4.1498,-4.1654,-4.1674,-4.1693,-4.1693,-4.1693,-4.1732,-4.1654,-4.1518,-4.1342,-4.1147,-4.1108,-4.1108,-4.1108,-4.1108,-4.1108,-4.1108,-4.1108,-4.1111,-4.1111,-4.1086,-4.105,-4.1111,-4.1015,-4.0898,-4.0937,-4.0994,-4.0828,-4.022,-4.0079,-3.9738,-3.9022,-3.8824,-3.9094,-3.9657,-3.975,-3.9998,-4.0797,-4.0942,-4.0913,-5.1047,-5.1067,-5.0989,-5.1067,-5.1028,-5.1125,-5.1222,-5.13,-5.13,-5.1242,-5.0989,-5.1067,-5.0579,-4.9956,-4.9898,-4.9527,-4.8904,-4.8729,-4.869,-4.8592,-4.7774,-4.7384,-4.7287,-4.6585,-4.6196,-4.6215,-4.6215,-4.6196,-4.6196,-4.6196,-4.6196,-4.6196,-4.6196,-4.6196,-4.6196,-4.6196,-4.6196,-4.6196,-4.6118,-4.604,-4.5962,-4.5962,-4.5592,-4.4793,-4.4773,-4.4403,-4.3734,-4.3526,-4.3481,-4.341,-4.2669,-4.2202,-4.2143,-4.152,-4.111,-4.113,-4.111,-4.0779,-4.0097,-4.0662,-4.0779,-4.0078,-4.0604,-4.0974,-4.1091,-4.0972,-4.0847,-4.0838,-4.091,-4.0976,-4.0976,-4.1143,-4.1557,-4.2201,-4.2279,-4.2572,-4.3177,-4.345,-4.3469,-4.3469,-4.3255,-4.343,-4.3196,-4.2689,-4.2025,-4.1459,-4.1322,-4.1264,-4.1244,-4.1127,-4.1108,-4.1108,-4.1108,-4.1108,-4.1111,-4.1111,-4.1114,-4.1111,-4.1094,-4.1099,-4.1084,-4.1091,-4.1035,-4.0839,-4.0834,-4.0474,-3.9984,-3.9666,-3.9652,-3.9891,-3.9981,-4.007,-4.0753,-4.0976,-4.0944,-5.13,-5.13,-5.13,-5.13,-5.13,-5.13,-5.13,-5.13,-5.13,-5.13,-5.13,-5.13,-5.1106,-5.0774,-5.0774,-5.0579,-5.0248,-4.9742,-4.9527,-4.943,-4.8651,-4.8261,-4.8164,-4.7384,-4.6975,-4.6897,-4.6468,-4.6196,-4.6196,-4.6196,-4.6196,-4.6196,-4.6196,-4.6196,-4.6196,-4.6196,-4.6196,-4.6196,-4.6196,-4.6196,-4.6196,-4.6196,-4.602,-4.5728,-4.565,-4.5514,-4.5124,-4.4656,-4.4364,-4.4325,-4.3546,-4.3059,-4.3052,-4.2253,-4.1812,-4.1773,-4.1364,-4.0935,-4.0623,-4.0916,-4.0935,-4.0584,-4.0896,-4.111,-4.113,-4.1526,-4.183,-4.1861,-4.1857,-4.1866,-4.1905,-4.2323,-4.2799,-4.3111,-4.3173,-4.3333,-4.3645,-4.3723,-4.3704,-4.3704,-4.3704,-4.3723,-4.3665,-4.3391,-4.304,-4.2611,-4.224,-4.1869,-4.1849,-4.1439,-4.1127,-4.1108,-4.1108,-4.1108,-4.1108,-4.1108,-4.1108,-4.1108,-4.1108,-4.1108,-4.1111,-4.1116,-4.1105,-4.1105,-4.1073,-4.0957,-4.0662,-4.0136,-3.9901,-4.0214,-4.0545,-4.0677,-4.0957,-4.0991,-4.0972,-5.13,-5.13,-5.13,-5.13,-5.13,-5.13,-5.13,-5.13,-5.13,-5.1265,-5.1267,-5.1292,-5.1284,-5.1248,-5.1284,-5.13,-5.1222,-5.0638,-5.0365,-5.0268,-4.9508,-4.9118,-4.906,-4.8261,-4.7715,-4.7423,-4.6878,-4.6429,-4.6235,-4.6196,-4.6196,-4.6196,-4.6196,-4.6196,-4.6196,-4.6196,-4.6196,-4.6196,-4.6196,-4.6196,-4.6196,-4.6196,-4.6196,-4.6196,-4.6196,-4.6196,-4.6176,-4.5592,-4.526,-4.5241,-4.4423,-4.3955,-4.3936,-4.3137,-4.265,-4.2591,-4.189,-4.1442,-4.1422,-4.1227,-4.111,-4.113,-4.1266,-4.1422,-4.1578,-4.2182,-4.265,-4.2721,-4.2933,-4.3056,-4.2837,-4.3318,-4.3751,-4.4005,-4.4071,-4.4133,-4.4406,-4.4406,-4.4465,-4.4426,-4.4582,-4.4289,-4.4114,-4.4055,-4.3957,-4.3587,-4.3118,-4.2767,-4.265,-4.2045,-4.1498,-4.1439,-4.1283,-4.1108,-4.1108,-4.1108,-4.1108,-4.1108,-4.1108,-4.1108,-4.1108,-4.1111,-4.1111,-4.1116,-4.1111,-4.1072,-4.0923,-4.0489,-4.0232,-4.0821,-4.1086,-4.1035,-4.1034,-4.1032,-4.103,-5.13,-5.1292,-5.13,-5.1292,-5.13,-5.1292,-5.1292,-5.1265,-5.1292,-5.121,-5.1128,-5.123,-5.123,-5.1097,-5.123,-5.1292,-5.1281,-5.1222,-5.1156,-5.1078,-5.0346,-4.9937,-4.9898,-4.9118,-4.8319,-4.7727,-4.7408,-4.6929,-4.6235,-4.6196,-4.6196,-4.6196,-4.6189,-4.6196,-4.6196,-4.6196,-4.6196,-4.6196,-4.6196,-4.6196,-4.6196,-4.6196,-4.6196,-4.6196,-4.6196,-4.6196,-4.6196,-4.6157,-4.6118,-4.6118,-4.528,-4.4832,-4.4773,-4.4033,-4.3546,-4.3422,-4.2708,-4.2241,-4.2182,-4.1637,-4.1247,-4.1266,-4.1883,-4.2241,-4.2318,-4.3039,-4.3526,-4.3546,-4.4254,-4.4429,-4.386,-4.3907,-4.4227,-4.4852,-4.4949,-4.5285,-4.6007,-4.5909,-4.6144,-4.6066,-4.5948,-4.5636,-4.5031,-4.4953,-4.4602,-4.4094,-4.3723,-4.3645,-4.3528,-4.2903,-4.2415,-4.2103,-4.1674,-4.1108,-4.1108,-4.1108,-4.1108,-4.1108,-4.1108,-4.1108,-4.1108,-4.1108,-4.1108,-4.1108,-4.1108,-4.1108,-4.1088,-4.103,-4.0952,-4.1111,-4.1111,-4.1084,-4.1069,-4.1099,-4.1101,-5.0979,-5.0979,-5.0979,-5.0979,-5.0998,-5.0979,-5.0979,-5.0979,-5.0998,-5.0972,-5.0932,-5.0953,-5.0953,-5.0898,-5.0953,-5.11,-5.1292,-5.13,-5.1248,-5.1162,-5.0925,-5.0714,-5.0467,-4.9787,-4.9294,-4.8866,-4.7855,-4.6919,-4.6266,-4.613,-4.6056,-4.6075,-4.6056,-4.6075,-4.6084,-4.6154,-4.6196,-4.6196,-4.6196,-4.6196,-4.6196,-4.6196,-4.6196,-4.6196,-4.6196,-4.6196,-4.6196,-4.6196,-4.6196,-4.6196,-4.5884,-4.5728,-4.565,-4.491,-4.415,-4.3637,-4.3293,-4.3117,-4.3098,-4.2877,-4.2701,-4.2721,-4.2935,-4.313,-4.3273,-4.3897,-4.4429,-4.4592,-4.5222,-4.5532,-4.5455,-4.5328,-4.5425,-4.5742,-4.5847,-4.5909,-4.6202,-4.63,-4.63,-4.63,-4.63,-4.6144,-4.5909,-4.5812,-4.5695,-4.5382,-4.4875,-4.4582,-4.4387,-4.3782,-4.3079,-4.2533,-4.2123,-4.1713,-4.1108,-4.1108,-4.1108,-4.1108,-4.1108,-4.1108,-4.1108,-4.1108,-4.1108,-4.1108,-4.1108,-4.1108,-4.1088,-4.1088,-4.1108,-4.1108,-4.1108,-4.1108,-4.1108,-4.1108,-4.1108,-5.0809,-5.0809,-5.0809,-5.0809,-5.0809,-5.0809,-5.0809,-5.0809,-5.0809,-5.0774,-5.0745,-5.0793,-5.0793,-5.0745,-5.0774,-5.0926,-5.1141,-5.1152,-5.1109,-5.1017,-5.1089,-5.1023,-5.0773,-5.0331,-4.9964,-4.9459,-4.7946,-4.6888,-4.6445,-4.6083,-4.5902,-4.5902,-4.5956,-4.5977,-4.6017,-4.6138,-4.6196,-4.6196,-4.6196,-4.6196,-4.6196,-4.6196,-4.6196,-4.6196,-4.6196,-4.6196,-4.6196,-4.6196,-4.6196,-4.6196,-4.6196,-4.6196,-4.6137,-4.5631,-4.5066,-4.4501,-4.4189,-4.4033,-4.3975,-4.3753,-4.3598,-4.3617,-4.3877,-4.4014,-4.4091,-4.4832,-4.5248,-4.5456,-4.5787,-4.6228,-4.6245,-4.6192,-4.6236,-4.6288,-4.6296,-4.63,-4.63,-4.63,-4.63,-4.63,-4.63,-4.63,-4.63,-4.628,-4.6261,-4.63,-4.5753,-4.546,-4.5304,-4.468,-4.3977,-4.3313,-4.2708,-4.2201,-4.1654,-4.142,-4.1166,-4.1108,-4.1108,-4.1108,-4.1108,-4.1108,-4.1108,-4.1108,-4.1108,-4.1108,-4.1108,-4.1108,-4.1108,-4.1108,-4.1108,-4.1108,-4.1108,-4.1108,-4.1108,-5.0793,-5.0778,-5.079,-5.0778,-5.0742,-5.0761,-5.0793,-5.0778,-5.0758,-5.0696,-5.0606,-5.0711,-5.0677,-5.0625,-5.0694,-5.0774,-5.079,-5.079,-5.079,-5.079,-5.084,-5.0825,-5.0723,-5.0697,-5.0248,-4.9479,-4.7893,-4.7076,-4.6892,-4.622,-4.5819,-4.575,-4.5879,-4.5933,-4.5966,-4.6084,-4.6162,-4.6189,-4.6189,-4.6189,-4.6196,-4.6196,-4.6196,-4.6196,-4.6196,-4.6196,-4.6196,-4.6196,-4.6196,-4.6196,-4.6196,-4.6196,-4.6196,-4.6098,-4.6118,-4.5903,-4.5338,-4.4949,-4.4832,-4.4228,-4.3909,-4.3975,-4.4481,-4.491,-4.5027,-4.5611,-4.6059,-4.6066,-4.6144,-4.6209,-4.6209,-4.6201,-4.6236,-4.6296,-4.63,-4.63,-4.63,-4.63,-4.63,-4.63,-4.63,-4.63,-4.63,-4.63,-4.63,-4.6261,-4.6202,-4.6105,-4.6046,-4.5441,-4.507,-4.4602,-4.3762,-4.2903,-4.2298,-4.1732,-4.1381,-4.1108,-4.1108,-4.1108,-4.1108,-4.1108,-4.1108,-4.1108,-4.1108,-4.1108,-4.1108,-4.1108,-4.1108,-4.1108,-4.1108,-4.1108,-4.1108,-4.1108,-4.1108,-5.0425,-5.0404,-5.0425,-5.0445,-5.0385,-5.0425,-5.0466,-5.0466,-5.0446,-5.0442,-5.0399,-5.0423,-5.0423,-5.0399,-5.0445,-5.0446,-5.0446,-5.0446,-5.0528,-5.0642,-5.0742,-5.0657,-5.0509,-5.0606,-5.0218,-4.9428,-4.8952,-4.8106,-4.7129,-4.6626,-4.6172,-4.5687,-4.5638,-4.5654,-4.5684,-4.579,-4.5906,-4.6047,-4.6047,-4.6102,-4.6189,-4.6196,-4.6196,-4.6196,-4.6196,-4.6196,-4.6196,-4.6196,-4.6196,-4.6196,-4.6196,-4.6196,-4.6196,-4.6196,-4.6196,-4.6176,-4.5981,-4.5806,-4.5767,-4.5553,-4.5319,-4.5416,-4.565,-4.5767,-4.5787,-4.602,-4.6196,-4.6196,-4.6196,-4.6203,-4.6203,-4.6209,-4.6226,-4.6288,-4.6296,-4.63,-4.63,-4.63,-4.63,-4.63,-4.63,-4.63,-4.63,-4.63,-4.63,-4.63,-4.63,-4.63,-4.6241,-4.6046,-4.5597,-4.5031,-4.427,-4.3548,-4.2767,-4.2123,-4.1693,-4.1264,-4.1108,-4.1108,-4.1108,-4.1108,-4.1108,-4.1108,-4.1108,-4.1108,-4.1108,-4.1108,-4.1108,-4.1108,-4.1108,-4.1108,-4.1108,-4.1108,-4.1108,-5.0188,-5.0182,-5.0188,-5.0188,-5.0163,-5.0207,-5.0231,-5.0231,-5.0255,-5.0259,-5.0278,-5.0302,-5.0302,-5.0302,-5.0302,-5.0302,-5.0302,-5.0302,-5.0374,-5.0466,-5.0548,-5.0488,-5.0306,-5.0421,-5.0255,-4.9698,-4.9452,-4.8815,-4.7794,-4.7031,-4.6417,-4.5937,-4.5627,-4.5507,-4.5507,-4.565,-4.5803,-4.5966,-4.6007,-4.6056,-4.6162,-4.6196,-4.6196,-4.6196,-4.6196,-4.6196,-4.6196,-4.6196,-4.6196,-4.6196,-4.6196,-4.6196,-4.6196,-4.6196,-4.6196,-4.6196,-4.6196,-4.6196,-4.6196,-4.6118,-4.6196,-4.6196,-4.6196,-4.6196,-4.6196,-4.6196,-4.6196,-4.6196,-4.6196,-4.6203,-4.6209,-4.6203,-4.6215,-4.6255,-4.6288,-4.6296,-4.63,-4.63,-4.63,-4.63,-4.63,-4.63,-4.63,-4.63,-4.63,-4.63,-4.63,-4.63,-4.63,-4.628,-4.589,-4.548,-4.5012,-4.4172,-4.3138,-4.2533,-4.2025,-4.1537,-4.1108,-4.1108,-4.1108,-4.1108,-4.1108,-4.1108,-4.1108,-4.1108,-4.1108,-4.1108,-4.1108,-4.1108,-4.1108,-4.1108,-4.1108,-4.1108,-4.1108,-5.0108,-5.0108,-5.0108,-5.0089,-5.0108,-5.0089,-5.0108,-5.0133,-5.0163,-5.0188,-5.0212,-5.0278,-5.0302,-5.0302,-5.0302,-5.0302,-5.0302,-5.0302,-5.0302,-5.0306,-5.0352,-5.0306,-5.0325,-5.0325,-5.0272,-5.0115,-4.9583,-4.9163,-4.8805,-4.7575,-4.6577,-4.6409,-4.5899,-4.553,-4.551,-4.5619,-4.575,-4.5914,-4.5956,-4.6037,-4.6189,-4.6196,-4.6196,-4.6196,-4.6196,-4.6196,-4.6196,-4.6196,-4.6196,-4.6196,-4.6196,-4.6196,-4.6196,-4.6196,-4.6196,-4.6196,-4.6196,-4.6196,-4.6196,-4.6196,-4.6196,-4.6196,-4.6196,-4.6196,-4.6196,-4.6196,-4.6196,-4.6196,-4.6196,-4.6196,-4.6203,-4.6209,-4.6209,-4.6206,-4.626,-4.6292,-4.63,-4.63,-4.63,-4.63,-4.63,-4.63,-4.63,-4.63,-4.63,-4.63,-4.63,-4.63,-4.63,-4.63,-4.63,-4.5987,-4.5558,-4.468,-4.3626,-4.3099,-4.2513,-4.1459,-4.1108,-4.1108,-4.1108,-4.1108,-4.1108,-4.1108,-4.1108,-4.1108,-4.1108,-4.1108,-4.1108,-4.1108,-4.1108,-4.1108,-4.1108,-4.1108,-4.1108,-5.0082,-5.0031,-5.0082,-5.0082,-5.0012,-5.0063,-5.0108,-5.0108,-5.0108,-5.0158,-5.0188,-5.0212,-5.0255,-5.0302,-5.0302,-5.0302,-5.0302,-5.0302,-5.0302,-5.0302,-5.0302,-5.0302,-5.0302,-5.0302,-5.0302,-5.0245,-5.0034,-4.9691,-4.9117,-4.8563,-4.7704,-4.6538,-4.6392,-4.5954,-4.5456,-4.5438,-4.5541,-4.575,-4.577,-4.5936,-4.6162,-4.6196,-4.6196,-4.6196,-4.6196,-4.6196,-4.6196,-4.6196,-4.6196,-4.6196,-4.6196,-4.6196,-4.6196,-4.6196,-4.6196,-4.6196,-4.6196,-4.6196,-4.6196,-4.6196,-4.6196,-4.6196,-4.6196,-4.6196,-4.6196,-4.6196,-4.6196,-4.6196,-4.6196,-4.6196,-4.6196,-4.6203,-4.6216,-4.6215,-4.626,-4.6296,-4.63,-4.63,-4.63,-4.63,-4.63,-4.63,-4.63,-4.63,-4.63,-4.63,-4.63,-4.63,-4.63,-4.63,-4.63,-4.63,-4.589,-4.5012,-4.4231,-4.3704,-4.2864,-4.1537,-4.1108,-4.1108,-4.1108,-4.1108,-4.1108,-4.1108,-4.1108,-4.1108,-4.1108,-4.1108,-4.1108,-4.1108,-4.1108,-4.1108,-4.1108,-4.1108,-4.1108,-4.9986,-4.9978,-5.0005,-5.0005,-4.9978,-5.0005,-5.0031,-5.0012,-5.0057,-5.0082,-5.0133,-5.0158,-5.0182,-5.0207,-5.0207,-5.0207,-5.0231,-5.0255,-5.0236,-5.0278,-5.0278,-5.0302,-5.0302,-5.0302,-5.0302,-5.0302,-5.0302,-5.0034,-4.9614,-4.9289,-4.8506,-4.7761,-4.7226,-4.6615,-4.591,-4.5814,-4.5764,-4.5723,-4.5698,-4.5883,-4.6181,-4.6196,-4.6196,-4.6196,-4.6196,-4.6196,-4.6196,-4.6196,-4.6196,-4.6196,-4.6196,-4.6196,-4.6196,-4.6196,-4.6196,-4.6196,-4.6196,-4.6196,-4.6196,-4.6196,-4.6196,-4.6196,-4.6196,-4.6196,-4.6196,-4.6196,-4.6196,-4.6196,-4.6196,-4.6196,-4.6196,-4.6203,-4.6216,-4.6209,-4.6255,-4.6292,-4.6296,-4.6296,-4.63,-4.63,-4.63,-4.63,-4.63,-4.63,-4.63,-4.63,-4.63,-4.63,-4.63,-4.63,-4.63,-4.63,-4.6105,-4.5285,-4.4367,-4.3743,-4.2825,-4.1557,-4.1108,-4.1108,-4.1108,-4.1108,-4.1108,-4.1108,-4.1108,-4.1108,-4.1108,-4.1108,-4.1108,-4.1108,-4.1108,-4.1108,-4.1108,-4.1108,-4.1108,-4.9879,-4.9879,-4.9879,-4.9879,-4.9906,-4.9879,-4.9906,-4.9906,-4.9959,-5.0005,-5.0012,-5.0082,-5.0108,-5.0127,-5.0133,-5.0108,-5.0108,-5.0182,-5.0212,-5.0255,-5.0278,-5.0302,-5.0302,-5.0302,-5.0302,-5.0302,-5.0302,-5.0264,-5.0054,-4.9538,-4.9194,-4.8754,-4.8181,-4.7494,-4.6748,-4.6538,-4.6225,-4.5943,-4.5747,-4.584,-4.6111,-4.6169,-4.6196,-4.6196,-4.6196,-4.6196,-4.6196,-4.6196,-4.6196,-4.6196,-4.6196,-4.6196,-4.6196,-4.6196,-4.6196,-4.6196,-4.6196,-4.6196,-4.6196,-4.6196,-4.6196,-4.6196,-4.6196,-4.6196,-4.6196,-4.6196,-4.6196,-4.6196,-4.6196,-4.6196,-4.6196,-4.6209,-4.6196,-4.6203,-4.6245,-4.6279,-4.6303,-4.6292,-4.63,-4.63,-4.63,-4.63,-4.63,-4.63,-4.63,-4.63,-4.63,-4.63,-4.63,-4.63,-4.63,-4.63,-4.5987,-4.5558,-4.4621,-4.3704,-4.263,-4.1537,-4.1225,-4.1108,-4.1108,-4.1108,-4.1108,-4.1108,-4.1108,-4.1108,-4.1108,-4.1108,-4.1108,-4.1108,-4.1108,-4.1108,-4.1108,-4.1108,-4.1108,-4.9879,-4.9879,-4.9879,-4.9879,-4.9879,-4.9879,-4.9879,-4.9906,-4.9925,-4.9952,-5.0005,-5.0031,-5.0057,-5.0127,-5.0082,-5.0108,-5.0108,-5.0158,-5.0231,-5.0278,-5.0302,-5.0302,-5.0302,-5.0302,-5.0302,-5.0302,-5.0302,-5.0302,-5.0206,-5.0054,-4.971,-4.9137,-4.8945,-4.8372,-4.7589,-4.6978,-4.6587,-4.6448,-4.6036,-4.588,-4.6066,-4.6146,-4.6196,-4.6196,-4.6196,-4.6196,-4.6196,-4.6196,-4.6196,-4.6196,-4.6196,-4.6196,-4.6196,-4.6196,-4.6196,-4.6196,-4.6196,-4.6196,-4.6196,-4.6196,-4.6196,-4.6196,-4.6196,-4.6196,-4.6196,-4.6196,-4.6196,-4.6196,-4.6196,-4.6196,-4.6196,-4.6203,-4.6203,-4.6209,-4.6222,-4.6234,-4.624,-4.6264,-4.63,-4.63,-4.63,-4.63,-4.63,-4.63,-4.63,-4.63,-4.63,-4.63,-4.63,-4.63,-4.63,-4.63,-4.6163,-4.5656,-4.4309,-4.3352,-4.2318,-4.1537,-4.1264,-4.1108,-4.1108,-4.1108,-4.1108,-4.1108,-4.1108,-4.1108,-4.1108,-4.1108,-4.1108,-4.1108,-4.1108,-4.1108,-4.1108,-4.1108,-4.1108,-4.9879,-4.9879,-4.9879,-4.9879,-4.9879,-4.9879,-4.9879,-4.9879,-4.9879,-4.9925,-4.9952,-4.9933,-4.9978,-5.0005,-5.0005,-5.0005,-5.0031,-5.0108,-5.0207,-5.0278,-5.0302,-5.0302,-5.0302,-5.0302,-5.0302,-5.0302,-5.0302,-5.0302,-5.0302,-5.0283,-5.0073,-4.971,-4.9652,-4.9213,-4.8525,-4.7876,-4.766,-4.7261,-4.6634,-4.6327,-4.6519,-4.6241,-4.6146,-4.6189,-4.6196,-4.6196,-4.6196,-4.6196,-4.6196,-4.6196,-4.6196,-4.6196,-4.6196,-4.6196,-4.6196,-4.6196,-4.6196,-4.6196,-4.6196,-4.6196,-4.6196,-4.6196,-4.6196,-4.6196,-4.6196,-4.6196,-4.6196,-4.6196,-4.6196,-4.6196,-4.6196,-4.6196,-4.6196,-4.6203,-4.6216,-4.6203,-4.6209,-4.6255,-4.6292,-4.6296,-4.6296,-4.63,-4.63,-4.63,-4.63,-4.63,-4.63,-4.63,-4.63,-4.63,-4.63,-4.63,-4.63,-4.5636,-4.4114,-4.2942,-4.1967,-4.142,-4.1186,-4.1108,-4.1108,-4.1108,-4.1108,-4.1108,-4.1108,-4.1108,-4.1108,-4.1108,-4.1108,-4.1108,-4.1108,-4.1108,-4.1108,-4.1108,-4.1108,-4.9879,-4.9879,-4.9879,-4.9879,-4.9879,-4.9879,-4.9879,-4.9879,-4.9879,-4.9906,-4.9879,-4.9879,-4.9906,-4.9906,-4.9906,-4.9906,-4.9933,-5.0057,-5.0182,-5.0255,-5.0302,-5.0302,-5.0302,-5.0302,-5.0302,-5.0302,-5.0302,-5.0302,-5.0302,-5.0302,-5.0245,-5.0264,-5.0264,-4.9862,-4.9385,-4.9083,-4.869,-4.8125,-4.7414,-4.695,-4.7023,-4.653,-4.6328,-4.6181,-4.6196,-4.6196,-4.6196,-4.6196,-4.6196,-4.6196,-4.6196,-4.6196,-4.6196,-4.6196,-4.6196,-4.6196,-4.6196,-4.6196,-4.6196,-4.6196,-4.6196,-4.6196,-4.6196,-4.6196,-4.6196,-4.6196,-4.6196,-4.6196,-4.6196,-4.6196,-4.6196,-4.6196,-4.6196,-4.6203,-4.6209,-4.6196,-4.6203,-4.6265,-4.6275,-4.6308,-4.6292,-4.6296,-4.63,-4.63,-4.63,-4.63,-4.63,-4.63,-4.63,-4.63,-4.63,-4.63,-4.63,-4.5539,-4.4055,-4.2513,-4.1537,-4.1342,-4.1108,-4.1108,-4.1108,-4.1108,-4.1108,-4.1108,-4.1108,-4.1108,-4.1108,-4.1108,-4.1108,-4.1108,-4.1108,-4.1108,-4.1108,-4.1108,-4.1108,-4.9879,-4.9879,-4.9879,-4.9879,-4.9879,-4.9879,-4.9879,-4.9879,-4.9879,-4.9879,-4.9879,-4.9879,-4.9879,-4.9879,-4.9879,-4.9906,-4.9986,-5.0057,-5.0133,-5.0231,-5.0278,-5.0302,-5.0302,-5.0302,-5.0302,-5.0302,-5.0302,-5.0302,-5.0302,-5.0302,-5.0302,-5.0302,-5.0302,-5.013,-4.9901,-4.95,-4.9159,-4.8865,-4.8163,-4.7656,-4.7212,-4.6892,-4.6572,-4.6266,-4.6196,-4.6196,-4.6196,-4.6196,-4.6196,-4.6196,-4.6196,-4.6196,-4.6196,-4.6196,-4.6196,-4.6196,-4.6196,-4.6196,-4.6196,-4.6196,-4.6196,-4.6196,-4.6196,-4.6196,-4.6196,-4.6196,-4.6196,-4.6196,-4.6196,-4.6196,-4.6196,-4.6196,-4.6196,-4.6196,-4.6203,-4.6203,-4.6209,-4.6222,-4.6245,-4.6275,-4.6284,-4.6292,-4.6296,-4.6296,-4.6273,-4.6292,-4.6296,-4.6292,-4.6292,-4.6296,-4.63,-4.63,-4.63,-4.5246,-4.3977,-4.2396,-4.1186,-4.1225,-4.1108,-4.1108,-4.1108,-4.1108,-4.1108,-4.1108,-4.1108,-4.1108,-4.1108,-4.1108,-4.1108,-4.1108,-4.1108,-4.1108,-4.1108,-4.1108,-4.1108,-4.9879,-4.9879,-4.9879,-4.9879,-4.9879,-4.9879,-4.9879,-4.9879,-4.9879,-4.9879,-4.9879,-4.9879,-4.9879,-4.9879,-4.9879,-4.9933,-4.9986,-5.0031,-5.0108,-5.0188,-5.0231,-5.0278,-5.0302,-5.0302,-5.0302,-5.0302,-5.0302,-5.0302,-5.0302,-5.0302,-5.0302,-5.0302,-5.0302,-5.0302,-5.0245,-4.9939,-4.971,-4.9522,-4.8941,-4.8202,-4.7475,-4.7043,-4.6416,-4.629,-4.6196,-4.6196,-4.6196,-4.6196,-4.6196,-4.6196,-4.6196,-4.6196,-4.6196,-4.6196,-4.6196,-4.6196,-4.6196,-4.6196,-4.6196,-4.6196,-4.6196,-4.6196,-4.6196,-4.6196,-4.6196,-4.6196,-4.6196,-4.6196,-4.6196,-4.6196,-4.6196,-4.6196,-4.6196,-4.6196,-4.6196,-4.6196,-4.6203,-4.6203,-4.6228,-4.6265,-4.6279,-4.6284,-4.6288,-4.6288,-4.6264,-4.6284,-4.6288,-4.6288,-4.6284,-4.6292,-4.628,-4.5929,-4.5753,-4.4719,-4.3587,-4.2259,-4.1147,-4.1108,-4.1108,-4.1108,-4.1108,-4.1108,-4.1108,-4.1108,-4.1108,-4.1108,-4.1108,-4.1108,-4.1108,-4.1108,-4.1108,-4.1108,-4.1108,-4.1108,-4.1108,-4.9879,-4.9879,-4.9879,-4.9879,-4.9879,-4.9879,-4.9879,-4.9879,-4.9879,-4.9879,-4.9879,-4.9879,-4.9879,-4.9879,-4.9925,-4.9952,-4.9959,-4.9986,-5.0063,-5.0114,-5.0163,-5.0207,-5.0255,-5.0255,-5.0236,-5.0259,-5.0278,-5.0302,-5.0302,-5.0302,-5.0302,-5.0302,-5.0302,-5.0302,-5.0264,-5.0206,-5.0302,-5.0092,-4.971,-4.8941,-4.7966,-4.6933,-4.6183,-4.6189,-4.6196,-4.6196,-4.6196,-4.6196,-4.6196,-4.6196,-4.6196,-4.6196,-4.6196,-4.6196,-4.6196,-4.6196,-4.6196,-4.6196,-4.6196,-4.6196,-4.6196,-4.6196,-4.6196,-4.6196,-4.6196,-4.6196,-4.6196,-4.6196,-4.6196,-4.6196,-4.6196,-4.6196,-4.6196,-4.6196,-4.6196,-4.6196,-4.6196,-4.6203,-4.6209,-4.6234,-4.625,-4.6255,-4.626,-4.626,-4.6236,-4.6231,-4.6255,-4.6255,-4.6275,-4.6288,-4.616,-4.5578,-4.5012,-4.4075,-4.306,-4.2103,-4.1303,-4.1108,-4.1108,-4.1108,-4.1108,-4.1108,-4.1108,-4.1108,-4.1108,-4.1108,-4.1108,-4.1108,-4.1108,-4.1108,-4.1108,-4.1108,-4.1108,-4.1108,-4.1108,-4.9879,-4.9879,-4.9879,-4.9879,-4.9879,-4.9879,-4.9879,-4.9879,-4.9879,-4.9879,-4.9879,-4.9879,-4.9879,-4.9879,-4.9879,-4.9906,-4.9906,-4.9978,-5.0005,-5.0038,-5.0108,-5.0133,-5.0133,-5.0133,-5.0182,-5.0212,-5.0231,-5.0255,-5.0278,-5.0302,-5.0302,-5.0302,-5.0302,-5.0302,-5.0302,-5.0302,-5.0302,-5.0264,-5.0149,-4.9486,-4.8318,-4.7417,-4.6756,-4.6349,-4.6196,-4.6196,-4.6196,-4.6196,-4.6196,-4.6196,-4.6196,-4.6196,-4.6196,-4.6196,-4.6196,-4.6196,-4.6196,-4.6196,-4.6196,-4.6196,-4.6196,-4.6196,-4.6196,-4.6196,-4.6196,-4.6196,-4.6196,-4.6196,-4.6196,-4.6196,-4.6196,-4.6196,-4.6196,-4.6196,-4.6196,-4.6196,-4.6196,-4.6196,-4.6209,-4.6209,-4.6234,-4.622,-4.6226,-4.6206,-4.6206,-4.6201,-4.6215,-4.622,-4.6245,-4.6279,-4.5961,-4.5379,-4.4621,-4.3704,-4.2806,-4.181,-4.1361,-4.1108,-4.1108,-4.1108,-4.1108,-4.1108,-4.1108,-4.1108,-4.1108,-4.1108,-4.1108,-4.1108,-4.1108,-4.1108,-4.1108,-4.1108,-4.1108,-4.1108,-4.1108,-4.9879,-4.9879,-4.9879,-4.9879,-4.9879,-4.9879,-4.9879,-4.9879,-4.9879,-4.9879,-4.9879,-4.9879,-4.9879,-4.9879,-4.9879,-4.9879,-4.9906,-4.9933,-4.9978,-5.0005,-5.0031,-5.0057,-5.0108,-5.0108,-5.0133,-5.0182,-5.0207,-5.0255,-5.0278,-5.0302,-5.0302,-5.0302,-5.0302,-5.0302,-5.0302,-5.0302,-5.0302,-5.0195,-4.9882,-4.924,-4.8365,-4.7585,-4.6883,-4.6227,-4.6215,-4.6196,-4.6196,-4.6196,-4.6196,-4.6196,-4.6196,-4.6196,-4.6196,-4.6196,-4.6196,-4.6196,-4.6196,-4.6196,-4.6196,-4.6196,-4.6196,-4.6196,-4.6196,-4.6196,-4.6196,-4.6196,-4.6196,-4.6196,-4.6196,-4.6196,-4.6196,-4.6196,-4.6196,-4.6196,-4.6196,-4.6196,-4.6196,-4.6196,-4.6203,-4.6203,-4.6209,-4.6203,-4.6209,-4.6209,-4.6209,-4.6203,-4.6203,-4.6209,-4.624,-4.6275,-4.58,-4.5145,-4.4348,-4.3469,-4.2611,-4.1713,-4.1342,-4.1108,-4.1108,-4.1108,-4.1108,-4.1108,-4.1108,-4.1108,-4.1108,-4.1108,-4.1108,-4.1108,-4.1108,-4.1108,-4.1108,-4.1108,-4.1108,-4.1108,-4.1108,-4.9879,-4.9879,-4.9879,-4.9879,-4.9879,-4.9879,-4.9879,-4.9879,-4.9879,-4.9879,-4.9879,-4.9879,-4.9879,-4.9879,-4.9879,-4.9879,-4.9879,-4.9879,-4.9925,-4.9978,-4.9978,-5.0005,-5.0031,-5.0057,-5.0082,-5.0158,-5.0158,-5.0207,-5.0255,-5.0278,-5.0302,-5.0302,-5.0302,-5.0302,-5.0302,-5.0302,-5.0302,-5.0264,-4.9901,-4.9202,-4.8337,-4.7804,-4.7026,-4.6452,-4.6189,-4.6196,-4.6196,-4.6196,-4.6196,-4.6196,-4.6196,-4.6196,-4.6196,-4.6196,-4.6196,-4.6196,-4.6196,-4.6196,-4.6196,-4.6196,-4.6196,-4.6196,-4.6196,-4.6196,-4.6196,-4.6196,-4.6196,-4.6196,-4.6196,-4.6196,-4.6196,-4.6196,-4.6196,-4.6196,-4.6196,-4.6196,-4.6196,-4.6196,-4.6196,-4.6203,-4.6203,-4.6203,-4.6209,-4.6216,-4.6209,-4.6203,-4.6209,-4.6196,-4.6234,-4.6245,-4.5558,-4.4864,-4.4204,-4.3251,-4.2162,-4.1518,-4.1205,-4.1104,-4.1104,-4.1104,-4.1104,-4.1104,-4.1104,-4.1104,-4.1108,-4.1108,-4.1108,-4.1108,-4.1108,-4.1108,-4.1108,-4.1108,-4.1108,-4.1108,-4.1108,-4.9879,-4.9879,-4.9879,-4.9879,-4.9879,-4.9879,-4.9879,-4.9879,-4.9879,-4.9879,-4.9879,-4.9879,-4.9879,-4.9879,-4.9879,-4.9879,-4.9879,-4.9879,-4.9925,-4.9925,-4.9906,-4.9906,-4.9933,-4.9933,-4.9959,-5.0031,-5.0108,-5.0158,-5.0231,-5.0298,-5.0302,-5.0302,-5.0302,-5.0302,-5.0302,-5.0302,-5.0302,-5.0302,-5.0144,-4.937,-4.8527,-4.7944,-4.7463,-4.6367,-4.6138,-4.6196,-4.6196,-4.6196,-4.6196,-4.6196,-4.6196,-4.6196,-4.6196,-4.6196,-4.6196,-4.6196,-4.6196,-4.6196,-4.6196,-4.6196,-4.6196,-4.6196,-4.6196,-4.6196,-4.6196,-4.6196,-4.6196,-4.6196,-4.6196,-4.6196,-4.6196,-4.6196,-4.6196,-4.6196,-4.6196,-4.6196,-4.6196,-4.6196,-4.6196,-4.6196,-4.6196,-4.6196,-4.6196,-4.6203,-4.6209,-4.6203,-4.6203,-4.6209,-4.6203,-4.6117,-4.527,-4.4577,-4.404,-4.3049,-4.167,-4.1163,-4.1121,-4.1117,-4.1113,-4.1117,-4.1117,-4.1117,-4.1101,-4.1108,-4.1108,-4.1108,-4.1108,-4.1108,-4.1108,-4.1108,-4.1108,-4.1108,-4.1108,-4.1108,-4.1108,-4.9879,-4.9879,-4.9879,-4.9879,-4.9879,-4.9879,-4.9879,-4.9879,-4.9879,-4.9879,-4.9879,-4.9879,-4.9879,-4.9879,-4.9879,-4.9879,-4.9879,-4.9879,-4.9879,-4.9879,-4.9879,-4.9879,-4.9879,-4.9906,-4.9933,-5.0005,-5.0082,-5.0133,-5.0207,-5.0278,-5.0302,-5.0302,-5.0302,-5.0302,-5.0302,-5.0302,-5.0302,-5.0348,-5.0284,-4.9662,-4.8394,-4.8125,-4.7558,-4.6171,-4.6027,-4.613,-4.6189,-4.6196,-4.6196,-4.6196,-4.6196,-4.6196,-4.6196,-4.6196,-4.6196,-4.6196,-4.6196,-4.6196,-4.6196,-4.6196,-4.6196,-4.6196,-4.6196,-4.6196,-4.6196,-4.6196,-4.6196,-4.6196,-4.6196,-4.6196,-4.6196,-4.6196,-4.6196,-4.6196,-4.6196,-4.6196,-4.6196,-4.6196,-4.6196,-4.6196,-4.6196,-4.6196,-4.6196,-4.6196,-4.6196,-4.6196,-4.6196,-4.6203,-4.6216,-4.6105,-4.5376,-4.4587,-4.4026,-4.3309,-4.1972,-4.1503,-4.1148,-4.1105,-4.11,-4.1105,-4.1105,-4.1113,-4.1117,-4.1104,-4.1108,-4.1108,-4.1108,-4.1108,-4.1108,-4.1108,-4.1108,-4.1108,-4.1108,-4.1108,-4.1108,-4.9879,-4.9879,-4.9879,-4.9879,-4.9879,-4.9879,-4.9879,-4.9879,-4.9879,-4.9879,-4.9879,-4.9879,-4.9879,-4.9879,-4.9879,-4.9879,-4.9879,-4.9879,-4.9879,-4.9879,-4.9879,-4.9879,-4.9879,-4.9906,-4.9906,-4.9978,-5.0057,-5.0133,-5.0182,-5.0255,-5.0302,-5.0302,-5.0302,-5.0302,-5.0302,-5.0302,-5.0302,-5.0348,-5.0284,-4.9661,-4.8202,-4.806,-4.7422,-4.6145,-4.5933,-4.6037,-4.6111,-4.6174,-4.6196,-4.6196,-4.6196,-4.6196,-4.6196,-4.6196,-4.6196,-4.6196,-4.6196,-4.6196,-4.6196,-4.6196,-4.6196,-4.6196,-4.6196,-4.6196,-4.6196,-4.6196,-4.6196,-4.6196,-4.6196,-4.6196,-4.6196,-4.6196,-4.6196,-4.6196,-4.6196,-4.6196,-4.6196,-4.6196,-4.6196,-4.6196,-4.6196,-4.6196,-4.6196,-4.6196,-4.6196,-4.6196,-4.6196,-4.6203,-4.6203,-4.606,-4.5715,-4.4902,-4.4148,-4.3353,-4.25,-4.1803,-4.1178,-4.1111,-4.1111,-4.1111,-4.1115,-4.1105,-4.1109,-4.1113,-4.1117,-4.1104,-4.1104,-4.1104,-4.1108,-4.1108,-4.1108,-4.1108,-4.1108,-4.1108,-4.1108,-4.9879,-4.9879,-4.9879,-4.9879,-4.9879,-4.9879,-4.9879,-4.9879,-4.9879,-4.9879,-4.9879,-4.9879,-4.9879,-4.9879,-4.9879,-4.9879,-4.9879,-4.9879,-4.9879,-4.9879,-4.9879,-4.9879,-4.9879,-4.9906,-4.9906,-4.9933,-5.0012,-5.0082,-5.0108,-5.0231,-5.0278,-5.0302,-5.0302,-5.0302,-5.0302,-5.0302,-5.0302,-5.0302,-5.0325,-4.9373,-4.825,-4.7933,-4.7123,-4.6044,-4.5783,-4.5914,-4.5988,-4.6102,-4.6146,-4.6174,-4.6196,-4.6196,-4.6196,-4.6196,-4.6196,-4.6196,-4.6196,-4.6196,-4.6196,-4.6196,-4.6196,-4.6196,-4.6196,-4.6196,-4.6196,-4.6196,-4.6196,-4.6196,-4.6196,-4.6196,-4.6196,-4.6196,-4.6196,-4.6196,-4.6196,-4.6196,-4.6196,-4.6196,-4.6196,-4.6196,-4.6196,-4.6196,-4.6196,-4.6196,-4.6196,-4.6196,-4.6196,-4.6203,-4.6203,-4.6105,-4.5859,-4.5397,-4.4585,-4.3727,-4.2894,-4.1852,-4.1247,-4.1159,-4.1114,-4.11,-4.11,-4.1106,-4.1111,-4.1115,-4.1105,-4.1113,-4.1117,-4.1101,-4.1104,-4.1104,-4.1108,-4.1108,-4.1108,-4.1108,-4.1108,-4.9879,-4.9879,-4.9879,-4.9879,-4.9879,-4.9879,-4.9879,-4.9879,-4.9879,-4.9879,-4.9879,-4.9879,-4.9879,-4.9879,-4.9879,-4.9879,-4.9879,-4.9879,-4.9879,-4.9879,-4.9879,-4.9879,-4.9879,-4.9879,-4.9879,-4.9906,-4.9986,-5.0082,-5.0108,-5.0207,-5.0278,-5.0278,-5.0302,-5.0302,-5.0302,-5.0302,-5.0302,-5.0302,-5.0149,-4.9519,-4.8028,-4.7771,-4.7126,-4.5607,-4.5638,-4.5722,-4.5803,-4.5958,-4.6084,-4.6113,-4.6138,-4.6196,-4.6196,-4.6196,-4.6196,-4.6196,-4.6196,-4.6196,-4.6196,-4.6196,-4.6196,-4.6196,-4.6196,-4.6196,-4.6196,-4.6196,-4.6196,-4.6196,-4.6196,-4.6196,-4.6196,-4.6196,-4.6196,-4.6196,-4.6196,-4.6196,-4.6196,-4.6196,-4.6196,-4.6196,-4.6196,-4.6196,-4.6196,-4.6196,-4.6196,-4.6196,-4.6196,-4.6196,-4.6203,-4.6203,-4.6066,-4.5774,-4.5157,-4.426,-4.3325,-4.2323,-4.1543,-4.1337,-4.122,-4.1103,-4.1109,-4.1109,-4.11,-4.1111,-4.1115,-4.11,-4.1105,-4.1113,-4.1117,-4.1101,-4.1104,-4.1108,-4.1108,-4.1108,-4.1108,-4.975,-4.9539,-4.9797,-4.975,-4.9588,-4.9797,-4.9879,-4.9879,-4.9879,-4.9879,-4.9879,-4.9879,-4.9879,-4.9879,-4.9879,-4.9879,-4.9879,-4.9879,-4.9879,-4.9879,-4.9879,-4.9879,-4.9879,-4.9879,-4.9879,-4.9925,-5.0005,-5.0057,-5.0108,-5.0207,-5.0255,-5.0302,-5.0302,-5.0302,-5.0302,-5.0302,-5.0302,-5.0302,-5.0168,-4.948,-4.8296,-4.7592,-4.7023,-4.5899,-4.5491,-4.5558,-4.5679,-4.5822,-4.5977,-4.6027,-4.6102,-4.6196,-4.6196,-4.6196,-4.6196,-4.6196,-4.6196,-4.6196,-4.6196,-4.6196,-4.6196,-4.6196,-4.6196,-4.6196,-4.6196,-4.6196,-4.6196,-4.6196,-4.6196,-4.6196,-4.6196,-4.6196,-4.6196,-4.6196,-4.6196,-4.6196,-4.6196,-4.6196,-4.6196,-4.6196,-4.6196,-4.6196,-4.6196,-4.6196,-4.6196,-4.6196,-4.6196,-4.6196,-4.6196,-4.6196,-4.6196,-4.5942,-4.5572,-4.4741,-4.3806,-4.287,-4.2169,-4.1598,-4.1383,-4.1234,-4.1117,-4.1103,-4.1109,-4.11,-4.1106,-4.1111,-4.1115,-4.11,-4.1109,-4.1113,-4.1097,-4.1104,-4.1108,-4.1108,-4.1108,-4.9356,-4.8878,-4.9512,-4.93,-4.8889,-4.9276,-4.9654,-4.986,-4.9879,-4.9879,-4.9879,-4.9879,-4.9879,-4.9879,-4.9879,-4.9879,-4.9879,-4.9879,-4.9879,-4.9879,-4.9879,-4.9879,-4.9879,-4.9879,-4.9879,-4.9952,-5.0005,-5.0038,-5.0108,-5.0231,-5.0278,-5.0302,-5.0302,-5.0302,-5.0302,-5.0302,-5.0302,-5.0302,-5.0206,-4.9461,-4.843,-4.7818,-4.698,-4.605,-4.5515,-4.5475,-4.5574,-4.5728,-4.5879,-4.5977,-4.6093,-4.6154,-4.6189,-4.6196,-4.6196,-4.6196,-4.6196,-4.6196,-4.6196,-4.6196,-4.6196,-4.6196,-4.6196,-4.6196,-4.6196,-4.6196,-4.6196,-4.6196,-4.6196,-4.6196,-4.6196,-4.6196,-4.6196,-4.6196,-4.6196,-4.6196,-4.6196,-4.6196,-4.6196,-4.6196,-4.6196,-4.6196,-4.6196,-4.6196,-4.6196,-4.6196,-4.6196,-4.6196,-4.6196,-4.6196,-4.6176,-4.6098,-4.567,-4.5144,-4.4306,-4.3526,-4.2981,-4.2474,-4.1714,-4.1442,-4.1286,-4.1169,-4.1097,-4.1103,-4.1109,-4.1114,-4.11,-4.1111,-4.1096,-4.1105,-4.1113,-4.1101,-4.1108,-4.1108,-4.1108,-4.7298,-4.7117,-4.7311,-4.7279,-4.7169,-4.733,-4.8171,-4.9453,-4.9769,-4.9879,-4.9879,-4.9879,-4.9879,-4.9879,-4.9879,-4.9879,-4.9879,-4.9879,-4.9879,-4.9879,-4.9879,-4.9879,-4.9879,-4.9879,-4.9879,-4.9952,-5.0005,-5.0063,-5.0133,-5.0231,-5.0302,-5.0302,-5.0302,-5.0302,-5.0302,-5.0302,-5.0302,-5.0302,-5.0302,-4.9614,-4.8735,-4.8105,-4.715,-4.6332,-4.5551,-4.5438,-4.5438,-4.5577,-4.5669,-4.5699,-4.5933,-4.6056,-4.6047,-4.6138,-4.6196,-4.6196,-4.6196,-4.6196,-4.6196,-4.6196,-4.6196,-4.6196,-4.6196,-4.6196,-4.6196,-4.6196,-4.6196,-4.6196,-4.6196,-4.6196,-4.6196,-4.6196,-4.6196,-4.6196,-4.6196,-4.6196,-4.6196,-4.6196,-4.6196,-4.6196,-4.6196,-4.6196,-4.6196,-4.6196,-4.6196,-4.6196,-4.6196,-4.6196,-4.6196,-4.6196,-4.6196,-4.6118,-4.5981,-4.5494,-4.5085,-4.4384,-4.3877,-4.3332,-4.2552,-4.1909,-4.1773,-4.1598,-4.1266,-4.111,-4.1097,-4.1097,-4.1097,-4.1109,-4.1106,-4.1115,-4.1105,-4.1117,-4.1104,-4.1108,-4.1108,-4.6212,-4.6024,-4.6298,-4.6312,-4.6197,-4.6215,-4.6981,-4.8049,-4.8689,-4.92,-4.9693,-4.9712,-4.9769,-4.9879,-4.9879,-4.9879,-4.9879,-4.9879,-4.9879,-4.9879,-4.9879,-4.9879,-4.9879,-4.9906,-4.9925,-4.9952,-5.0005,-5.0063,-5.0139,-5.0231,-5.0302,-5.0302,-5.0302,-5.0302,-5.0302,-5.0302,-5.0302,-5.0302,-5.0187,-4.9786,-4.9117,-4.8277,-4.7398,-4.6577,-4.5736,-4.5373,-4.5298,-4.5419,-4.5472,-4.5524,-4.5783,-4.5933,-4.5977,-4.613,-4.6196,-4.6196,-4.6196,-4.6196,-4.6196,-4.6196,-4.6196,-4.6196,-4.6196,-4.6196,-4.6196,-4.6196,-4.6196,-4.6196,-4.6196,-4.6196,-4.6196,-4.6196,-4.6196,-4.6196,-4.6196,-4.6196,-4.6196,-4.6196,-4.6196,-4.6196,-4.6196,-4.6196,-4.6196,-4.6196,-4.6196,-4.6196,-4.6196,-4.6196,-4.6196,-4.6196,-4.6196,-4.6176,-4.6137,-4.5942,-4.5533,-4.5124,-4.4637,-4.4052,-4.339,-4.2806,-4.2474,-4.2007,-4.1637,-4.1344,-4.111,-4.111,-4.111,-4.1097,-4.1109,-4.1106,-4.11,-4.1109,-4.1097,-4.1104,-4.1108,-4.5697,-4.5098,-4.584,-4.5762,-4.5699,-4.5571,-4.5663,-4.5883,-4.6882,-4.7998,-4.889,-4.9215,-4.9311,-4.9476,-4.9664,-4.9852,-4.9879,-4.9879,-4.9879,-4.9879,-4.9879,-4.9879,-4.9879,-4.9906,-4.9925,-4.9986,-5.0038,-5.0082,-5.0163,-5.0236,-5.0278,-5.0302,-5.0302,-5.0302,-5.0302,-5.0302,-5.0302,-5.0302,-5.0225,-4.9958,-4.9232,-4.8353,-4.7417,-4.6672,-4.5908,-4.5277,-4.5339,-4.54,-4.5472,-4.5505,-4.5619,-4.5764,-4.5977,-4.6113,-4.6146,-4.6196,-4.6196,-4.6196,-4.6196,-4.6196,-4.6196,-4.6196,-4.6196,-4.6196,-4.6196,-4.6196,-4.6196,-4.6196,-4.6196,-4.6196,-4.6196,-4.6196,-4.6196,-4.6196,-4.6196,-4.6196,-4.6196,-4.6196,-4.6196,-4.6196,-4.6196,-4.6196,-4.6196,-4.6196,-4.6196,-4.6196,-4.6196,-4.6196,-4.6196,-4.6196,-4.6196,-4.6196,-4.6176,-4.6137,-4.5962,-4.5592,-4.526,-4.4715,-4.413,-4.3702,-4.3351,-4.2708,-4.2007,-4.1559,-4.111,-4.111,-4.111,-4.1117,-4.1103,-4.1114,-4.1111,-4.1115,-4.1109,-4.1097,-4.1108,-4.3614,-4.35,-4.3651,-4.3688,-4.3632,-4.3595,-4.4033,-4.4504,-4.48,-4.5788,-4.7024,-4.7737,-4.8234,-4.8614,-4.9133,-4.9428,-4.973,-4.9709,-4.986,-4.9879,-4.9879,-4.9879,-4.9879,-4.9879,-4.9925,-4.9952,-5.0005,-5.0082,-5.0133,-5.0188,-5.0212,-5.0236,-5.0259,-5.0283,-5.0302,-5.0302,-5.0302,-5.0302,-5.0264,-5.0206,-4.9824,-4.864,-4.7589,-4.6997,-4.6328,-4.5392,-4.5298,-4.5319,-4.5341,-4.5361,-4.5491,-4.5699,-4.5966,-4.6017,-4.6093,-4.6181,-4.6189,-4.6189,-4.6196,-4.6196,-4.6196,-4.6196,-4.6196,-4.6196,-4.6196,-4.6196,-4.6196,-4.6196,-4.6196,-4.6196,-4.6196,-4.6196,-4.6196,-4.6196,-4.6196,-4.6196,-4.6196,-4.6196,-4.6196,-4.6196,-4.6196,-4.6196,-4.6196,-4.6196,-4.6196,-4.6196,-4.6196,-4.6196,-4.6196,-4.6196,-4.6196,-4.6196,-4.6196,-4.6157,-4.6098,-4.602,-4.567,-4.5475,-4.5007,-4.4598,-4.415,-4.3098,-4.2065,-4.15,-4.111,-4.111,-4.111,-4.111,-4.1097,-4.1109,-4.11,-4.1111,-4.1115,-4.1109,-4.1101,-4.29,-4.29,-4.29,-4.29,-4.29,-4.29,-4.3172,-4.3498,-4.357,-4.4034,-4.5017,-4.6168,-4.707,-4.7423,-4.804,-4.8705,-4.907,-4.9303,-4.9576,-4.9765,-4.9803,-4.9879,-4.9879,-4.986,-4.9952,-4.9952,-4.9986,-5.0063,-5.0108,-5.0133,-5.0182,-5.0188,-5.0236,-5.0259,-5.0302,-5.0302,-5.0302,-5.0302,-5.0302,-5.0283,-5.0111,-4.8831,-4.7876,-4.7322,-4.6424,-4.5507,-4.5277,-4.5277,-4.5277,-4.532,-4.5419,-4.556,-4.5742,-4.5822,-4.5936,-4.6047,-4.6102,-4.6138,-4.6181,-4.6196,-4.6196,-4.6196,-4.6196,-4.6196,-4.6196,-4.6196,-4.6196,-4.6196,-4.6196,-4.6196,-4.6196,-4.6196,-4.6196,-4.6196,-4.6196,-4.6196,-4.6196,-4.6196,-4.6196,-4.6196,-4.6196,-4.6196,-4.6196,-4.6196,-4.6196,-4.6196,-4.6196,-4.6196,-4.6196,-4.6196,-4.6196,-4.6196,-4.6196,-4.6196,-4.6176,-4.6157,-4.6079,-4.5903,-4.5689,-4.4871,-4.4052,-4.302,-4.2104,-4.1481,-4.111,-4.111,-4.111,-4.111,-4.111,-4.1097,-4.1109,-4.11,-4.1106,-4.1115,-4.1109,-4.29,-4.29,-4.29,-4.29,-4.29,-4.29,-4.2918,-4.2936,-4.2918,-4.2918,-4.3249,-4.4821,-4.5657,-4.6215,-4.6657,-4.7335,-4.7859,-4.823,-4.8851,-4.9273,-4.9557,-4.9519,-4.9633,-4.983,-4.9887,-4.9959,-4.9986,-5.0031,-5.0057,-5.0108,-5.0133,-5.0182,-5.0212,-5.0236,-5.0259,-5.0302,-5.0302,-5.0302,-5.0283,-5.0206,-4.9557,-4.8697,-4.8048,-4.7245,-4.6309,-4.5411,-4.5277,-4.5277,-4.5277,-4.532,-4.5381,-4.5473,-4.5558,-4.565,-4.5822,-4.5956,-4.5966,-4.6047,-4.6127,-4.6162,-4.6169,-4.6176,-4.6196,-4.6196,-4.6196,-4.6196,-4.6196,-4.6196,-4.6196,-4.6196,-4.6196,-4.6196,-4.6196,-4.6196,-4.6196,-4.6196,-4.6196,-4.6196,-4.6196,-4.6196,-4.6196,-4.6196,-4.6196,-4.6196,-4.6196,-4.6196,-4.6196,-4.6196,-4.6196,-4.6196,-4.6196,-4.6196,-4.6196,-4.6196,-4.6196,-4.6137,-4.6118,-4.6001,-4.565,-4.4832,-4.3936,-4.2903,-4.2026,-4.1383,-4.111,-4.111,-4.111,-4.111,-4.111,-4.111,-4.1117,-4.1109,-4.1114,-4.11,-4.1115,-4.29,-4.29,-4.29,-4.29,-4.29,-4.29,-4.29,-4.29,-4.29,-4.29,-4.3029,-4.3193,-4.3999,-4.5086,-4.5821,-4.6465,-4.699,-4.7278,-4.7464,-4.7825,-4.8647,-4.8875,-4.9007,-4.9254,-4.9773,-4.9754,-4.9667,-4.9857,-4.9504,-4.9772,-5.0051,-4.9942,-5.0121,-5.0164,-5.0183,-5.0149,-5.0015,-4.9977,-4.992,-4.9824,-4.9137,-4.843,-4.7971,-4.715,-4.6194,-4.5583,-4.5277,-4.5277,-4.5277,-4.5298,-4.532,-4.54,-4.5475,-4.5543,-4.5684,-4.5809,-4.5822,-4.5947,-4.6027,-4.6065,-4.6102,-4.6196,-4.6196,-4.6196,-4.6196,-4.6196,-4.6196,-4.6196,-4.6196,-4.6196,-4.6196,-4.6196,-4.6196,-4.6196,-4.6196,-4.6196,-4.6196,-4.6196,-4.6196,-4.6196,-4.6196,-4.6196,-4.6196,-4.6196,-4.6196,-4.6196,-4.6196,-4.6196,-4.6196,-4.6196,-4.6196,-4.6196,-4.6196,-4.6196,-4.6196,-4.604,-4.5962,-4.5903,-4.5475,-4.4384,-4.3448,-4.2728,-4.1948,-4.1305,-4.111,-4.111,-4.111,-4.111,-4.111,-4.111,-4.111,-4.1117,-4.1097,-4.1109,-4.11]}]]